GFSWCAN_prec_radar_057.txt.gz
Reflectivity
-20 -20 -4 13 13 -3 9 6 -0 -20 -8 14 -9 13 21 29 19 23 10 -6 4 19 33 -5 11 -20 -20 -19 -16 -20 3 2 8 -20 -20 -20 -20 -6 -15 -20 -20 16 28 23 26 17 -2 -20 -20 8 5 -20 13 20
-20 16 11 9 -20 4 -13 -20 -20 -20 -20 -16 9 -17 14 21 15 29 34 19 -0 22 36 -5 2 -8 38 3 3 -20 2 -20 -20 -20 -20 -20 3 -20 -20 -20 -20 12 4 0 10 -1 -16 -20 -19 -7 -9 -19 11 -4
20 14 11 16 -15 -20 -20 8 13 11 9 10 16 15 17 18 16 31 30 25 18 24 31 20 17 17 -6 15 -14 -20 -20 -20 17 -20 2 14 -18 -20 -20 -20 -14 -20 1 -20 3 -19 -20 -14 11 25 11 14 12 -9
14 12 6 4 0 -19 1 -7 15 7 -10 13 23 9 14 18 22 34 27 21 -4 23 28 -0 11 31 -9 -20 -14 -13 -20 -20 -13 2 -12 -15 -20 15 -20 -20 -20 -20 -20 -20 -20 -7 -14 16 8 -12 21 15 10 -13
2 22 21 9 -13 -20 17 27 17 -18 15 -10 23 -1 19 19 14 24 12 -3 33 14 24 14 25 15 -20 -20 -12 -19 25 22 21 22 -13 -20 10 26 -3 6 -20 -20 -20 -20 -20 14 26 27 0 -15 -2 22 29 3
5 24 -12 5 -20 -20 15 33 16 -12 -7 8 9 4 17 20 28 23 38 40 34 33 -8 28 -20 -20 -1 18 21 -19 21 27 23 23 -8 -20 -15 8 18 -19 -20 -20 -20 -20 -20 -13 7 -19 -20 -20 -15 11 12 27
-5 13 -19 -20 -20 -20 -20 11 17 10 12 15 34 31 39 6 32 20 32 13 -20 -20 -20 -15 -20 -18 -0 -7 -7 -13 12 17 17 20 40 11 12 25 21 -20 -20 -20 -20 -20 -20 -20 -20 -20 -20 -20 -20 -15 -10 9
24 30 11 -9 -20 -16 -5 20 28 14 21 22 35 40 37 30 24 0 -3 -20 -20 -20 -20 -20 -20 2 -13 -20 -13 -20 -20 -20 4 -3 19 22 19 29 24 -20 -20 -20 -20 -20 -20 -20 -20 -20 -20 -20 -20 -2 -2 -10
14 14 12 -20 -20 -20 2 -0 3 10 20 29 28 21 21 -3 -19 2 -20 -20 -20 -1 -20 -20 -20 -20 -20 -7 -20 13 4 6 -9 16 -20 21 26 29 7 -15 -20 -20 -20 -20 -20 -20 -20 -20 -20 -20 -20 -20 -20 -20
14 21 21 26 20 23 23 22 14 13 9 -10 7 -14 23 19 6 16 26 24 17 4 -20 -20 -20 -20 -13 19 -9 22 8 -20 -20 -20 -3 1 21 25 -2 1 -0 -2 -2 -20 -20 -20 -20 -20 -20 -20 -20 -20 -20 -20
8 20 21 25 26 30 30 28 22 15 5 -9 -20 -7 7 -8 -13 -20 -20 -20 -15 -20 -20 -20 -20 -20 -20 2 8 -15 -20 -20 -20 -20 7 31 37 21 3 0 -20 -17 -20 -20 -20 -11 -17 -20 -20 -20 -20 -20 -20 -20
11 21 15 20 9 -1 14 0 -20 -20 -20 -20 -20 -20 -20 -12 15 -20 -10 -20 -20 6 -20 10 -20 10 -0 20 27 11 -20 4 -20 20 -14 11 10 4 1 -4 -18 -4 -19 -20 -19 -3 -20 -20 -20 -20 -20 -20 -20 -20
-11 -17 -7 -17 -20 -20 -20 -20 -20 -18 -20 -17 -19 9 12 -8 1 -20 6 11 -19 -11 3 9 -9 18 31 30 25 -19 1 -12 -7 -8 5 0 7 2 5 -0 -2 -4 -6 13 7 -10 -17 -17 -18 -19 -19 -15 -16 -17
-20 -20 -20 -20 -20 -20 -20 -20 -20 -20 -20 -20 -11 -20 -19 -20 -13 -16 -19 -15 4 -20 -12 -20 -16 -6 16 27 27 14 11 8 22 26 6 5 -5 -1 2 -1 -5 5 -5 -11 -9 -11 -10 -7 6 7 7 12 11 9
-20 -20 -20 -20 -20 -20 -20 -20 -20 -20 -20 -20 -20 -20 -19 4 -16 -12 -10 -15 -16 -20 -20 -1 21 0 18 20 25 27 22 14 1 10 6 8 1 2 9 11 12 12 13 10 9 6 7 3 -4 7 10 11 7 5
-10 -20 -9 -20 -20 -20 -20 -20 -20 -20 -20 -20 -20 -20 -8 -8 -10 -9 -19 -20 -20 -20 -11 10 4 -20 -4 10 15 17 14 12 13 6 20 16 20 22 23 22 21 19 19 19 17 14 12 8 5 2 -7 -15 -10 -18
6 -6 -20 -20 -20 -20 -20 -20 -20 -20 -20 -14 -2 -19 -19 -4 3 18 16 -12 -5 -14 -8 2 -9 -19 -19 -20 -20 -3 1 8 6 14 19 19 17 16 16 14 15 13 8 6 4 -9 -11 -11 -18 -18 -20 -19 -20 -20
-20 -19 -20 -11 0 -8 -20 -20 -20 -20 -20 -0 -17 -3 3 7 9 13 9 -2 -20 -20 -15 1 -20 -20 -20 -18 -15 5 6 2 4 7 12 15 17 17 16 12 9 5 -3 -11 -17 -7 -2 -12 -8 0 3 -1 -9 -11
-6 -20 -16 -20 -20 -15 -20 -20 -20 -20 9 6 8 3 9 10 0 -2 6 -10 -20 -13 -20 -20 -20 -2 -10 7 10 12 11 6 16 18 15 11 8 8 6 4 1 -6 -13 -7 -15 -9 -11 -19 -19 -20 -20 -20 -19 -0
-8 -20 -20 -20 -20 -20 -20 -20 -20 -20 5 -10 -20 -20 -20 -19 -13 -17 -19 -19 3 2 -10 -12 5 11 11 14 14 11 9 5 -1 -4 -5 -5 -10 -14 -14 -15 -5 -12 -16 -17 -18 -19 -19 -20 -20 -20 -20 -20 -20 -20
-20 -20 -20 -20 -20 -20 -20 -4 -7 -20 -9 12 -20 -2 -0 -6 -2 0 -10 -14 -2 4 5 7 3 -5 -0 -2 -18 -20 -20 -20 -20 -20 -4 -6 2 -5 -7 -5 -20 -20 -20 -20 -20 -20 -20 -20 -20 -8 -20 -20 -20 -20
-20 -20 -20 -20 -20 -14 -20 -20 -20 -6 -17 -5 -20 -20 -15 -20 -20 -20 -16 -20 -8 -10 -2 -18 -4 -20 -19 2 1 -20 -18 -20 -20 -20 -20 -20 -20 -20 -20 -20 -20 -20 -20 -17 -20 -20 -20 -20 -20 -20 -20 -20 -20 -20
-18 -12 -19 -20 -20 -20 -20 -20 -20 -11 -20 -12 -20 -20 -20 -20 -14 -20 -19 -9 12 -11 -13 -20 -10 -20 -20 -20 -20 -20 -20 -20 -20 -20 -20 -20 -20 -20 -20 -20 -20 -20 -20 -20 -20 -20 -20 -16 -20 -20 -20 -20 -20 -20
-20 -20 -20 -20 -20 -20 -20 -20 -20 -20 -20 -20 -20 -20 -20 -11 -20 -20 3 6 -10 -4 9 1 -20 -20 -20 -20 -20 -20 -20 -20 -20 -20 -20 -20 -20 -20 -20 -20 -20 -20 -20 -1 -20 -20 -20 -20 -20 -20 -20 -20 -20 -20
-20 -20 -20 -20 -20 -20 -20 -20 -20 -20 -20 -20 -20 -17 -20 -20 -20 -19 -1 7 6 -17 -19 -20 -20 -19 -19 -20 -20 -20 -20 -20 -20 -20 -20 -20 -20 -20 -20 -20 -20 -20 -20 -20 -20 -20 -20 -20 -20 -20 -20 -20 -20 -20
-20 -20 -20 -20 -20 -20 -20 -20 -20 -20 -20 -20 -18 -8 -20 -20 -20 -20 4 -11 -20 -20 -17 -3 -20 -20 -20 -20 -20 -20 -20 -20 -20 -20 -20 -20 -20 -20 -20 -20 -20 -18 -20 -20 -20 -20 -20 -20 -20 -20 -20 -20 -20 -20
-20 -20 -20 -20 -20 -20 -20 -20 -20 -20 -20 -20 -20 -20 -20 -20 -20 2 -2 -20 -20 -20 -20 -20 -20 -20 -20 -20 -20 -20 -20 -20 -20 -20 -20 -20 -20 -20 -20 -20 -20 -20 -20 -20 -20 -20 -20 -20 -20 -20 -20 -20 -20 -20
-19 -20 -20 -20 -20 -20 -20 -20 -20 -20 -20 -20 -20 -20 -20 -20 -20 -14 -20 -20 -20 -20 -20 -20 -20 -20 -20 -20 -20 -20 -20 -20 -20 -20 -20 -20 -20 -20 -20 -20 -20 -20 -20 -20 -20 -20 -20 -20 -20 -20 -20 -20 -20 -20
-19 -20 -20 -20 -20 -20 -20 -20 -20 -20 -20 -20 -20 -20 -10 -9 -20 -15 -18 -20 -20 -20 -20 -20 -20 -20 -20 -20 -20 -20 -20 -20 -20 -20 -20 -20 -20 -20 -20 -20 -20 -20 -20 -20 -18 -17 -17 -20 -20 -20 -20 -20 -20 -20
-20 -20 -20 -20 -20 -20 -1 -20 -1 -9 -20 -20 -20 -17 -20 -19 -12 -20 -7 1 -8 -19 -20 -20 -20 -20 -20 -20 -20 -20 -20 -20 -20 -20 -20 -20 -20 -20 -20 -20 -20 -20 -20 -20 -20 -20 -20 -20 -20 -20 -20 -20 -20 -20
-20 -20 -20 -20 -15 -18 -20 -20 -20 -20 -20 -20 -20 -20 -19 -20 -20 -20 -20 -20 -20 -20 -20 -20 -20 -20 -20 -20 -20 -20 -20 -20 -20 -20 -20 -20 -20 -20 -20 -20 -20 -20 -20 -20 -20 -20 -20 -20 -20 -20 -20 -20 -20 -20
-20 -20 -20 -20 -11 -10 -18 -0 -19 -20 -20 -20 -20 -20 -20 -20 -20 -20 -20 -20 -20 -20 -20 -20 -20 -20 -20 -20 -20 -20 -20 -20 -20 -20 -20 -20 -20 -20 -20 -20 -20 -20 -20 -20 -20 -20 -20 -20 -20 -20 -20 -20 -20 -20
-20 -20 -20 -20 -20 -20 -11 -20 -20 1 -20 -20 -20 -20 -20 -20 -20 -20 -20 -20 -19 -20 -20 -20 -20 -20 -20 -20 -20 -20 -20 -20 -20 -20 -20 -20 -20 -20 -20 -20 -20 -20 -20 -20 -20 -20 -20 -20 -20 -20 -20 -20 -20 -20

GFSWCAN_prec_radar_063.txt.gz
Reflectivity
18 14 16 9 -10 -20 0 -10 -1 -12 4 13 14 17 18 22 30 37 37 28 26 33 30 25 13 22 -20 -20 -20 -20 0 -7 -20 -20 -17 -20 -20 -20 -20 -20 -20 -20 -7 -20 -20 -20 -20 -11 11 12 18 17 -8 2
-20 -19 9 23 18 -20 -8 16 14 -1 18 19 14 16 14 -16 16 27 32 24 10 25 14 -9 19 13 15 6 -19 -20 -20 -20 -20 -20 -20 -20 -20 -20 -20 -20 -20 -12 -20 -20 -20 -20 -13 -4 4 1 30 25 17 14
-3 22 17 6 4 7 23 10 22 16 8 -0 5 9 14 8 4 18 12 15 24 32 19 -20 5 2 26 12 -20 -13 -19 -20 -20 -20 -20 -20 -20 -20 -20 -20 -20 -20 -20 -20 -20 -20 -20 -9 -2 3 30 11 28 13
16 15 10 2 -10 7 5 -6 -11 -1 17 18 17 -3 12 15 18 17 12 9 1 13 -10 -20 -20 4 5 1 17 14 -14 -20 -20 0 8 15 -20 -20 -20 -20 -20 -20 -20 -20 -20 -20 -10 -14 -1 -5 16 7 10 29
19 -5 5 -10 -6 -4 5 20 17 25 17 12 17 -9 -10 14 9 29 30 25 -5 -11 -20 -20 -20 5 7 5 -14 -1 15 22 10 6 -14 -20 -20 -3 24 19 -20 -12 -14 -11 -20 -20 -20 -20 -20 -20 -9 -7 -20 13
15 15 -15 -20 -20 9 16 -2 -20 -4 20 32 22 14 14 22 8 31 33 32 10 -5 -1 -20 -20 -3 9 0 -12 2 -20 -20 5 29 18 -19 -20 21 5 -20 -20 2 -20 -20 -8 -20 -20 -20 -20 -20 -6 -2 -20 -7
17 21 31 9 -4 4 3 -20 -20 -15 15 9 7 22 18 22 20 21 26 16 3 2 30 18 22 24 9 2 -19 -20 -5 -1 -19 19 -13 -20 -20 -3 37 9 -17 -20 -20 -20 -20 -20 -19 -20 20 5 -12 -1 12 -19
15 18 12 -2 23 24 2 -2 7 15 23 24 27 20 16 32 26 20 -3 8 -20 16 27 28 12 21 3 5 -1 -6 17 16 15 -20 -10 -20 -4 -2 7 19 2 -20 -20 -20 6 19 -18 15 12 -14 -4 -10 -11 -1
-8 25 4 25 20 12 36 26 17 25 23 24 29 22 29 23 23 8 9 8 6 6 20 12 -20 -1 18 30 6 26 -16 18 19 6 -18 3 25 24 25 12 -4 -7 -5 -20 -20 -16 29 28 16 16 14 16 -18 -20
-4 -17 2 9 21 -17 13 18 30 31 12 2 1 1 32 25 30 25 31 30 35 30 12 -20 -20 -10 -10 -5 16 0 22 2 13 2 3 13 0 -0 1 -11 18 15 18 5 3 11 -9 -20 -19 -17 -16 4 -19 -20
0 -20 -20 16 8 22 -20 -7 14 16 26 34 29 29 23 32 25 30 27 28 17 -20 -20 -20 -20 -20 8 -18 9 -13 14 -1 13 10 2 -17 -5 -3 -20 -20 -9 -14 -10 14 30 2 -20 -20 -5 -1 -6 -20 -20 -20
-18 -8 -20 -20 -20 -20 -20 -20 -15 -20 -18 16 -6 24 26 6 5 3 -13 -20 -17 -3 -13 -12 -9 -20 -20 -20 -15 -10 23 -2 -18 9 5 -15 8 -7 -20 -20 -20 -20 -19 -14 -15 -18 -3 -8 -10 4 -19 -17 -16 -20
-20 -20 -20 -20 -20 -20 -20 -20 -20 -20 -20 -20 -20 -20 -20 -20 -20 -20 -17 -20 -20 -20 -17 -20 -4 -20 -20 -20 -16 4 -2 5 4 3 6 -0 -1 -20 -9 -20 -20 -20 -15 -15 2 -11 -15 -12 -13 -19 -16 -14 -14 -12
-20 -20 -20 -20 -20 -20 -20 -20 -18 -17 -20 -20 -20 -20 -20 -20 -20 -20 -20 -20 -20 -16 -15 -20 1 -16 12 3 14 21 -4 -20 -20 -20 -11 -15 -18 -16 -18 -4 -20 -20 -20 -20 -15 -14 -8 -12 -10 -14 -17 -13 -5 -10
-20 -20 -20 -20 -20 -20 -18 -10 -15 -13 -20 -20 -20 -20 -20 -18 -19 -18 -18 -18 -13 -6 -10 -13 -9 -19 10 14 -0 -7 -20 -20 -20 -20 -19 0 -8 -20 -16 -6 -14 -14 -11 -18 -13 -19 1 -3 -20 -20 -18 -18 -15 -5
-20 -20 -20 -20 -20 -20 -20 -20 -20 -20 -20 -20 -20 -20 -20 -20 -20 -20 -20 -19 -16 -17 -20 -20 -20 -20 8 14 10 -1 -20 -20 -20 -20 -5 -18 -18 -8 -5 5 11 10 2 -9 -8 0 5 2 -4 -17 -19 -16 -9 -6
-20 -20 -20 -20 -20 -20 -20 -20 -20 -20 -12 3 -2 -16 -20 -20 -20 -20 -18 -20 -17 -20 -20 -20 -20 -20 -14 -4 -14 -6 1 5 -9 7 -5 -13 4 4 6 10 9 -6 -20 -19 -4 5 9 10 6 -4 -9 -1 -7 -9
-20 -20 -20 -20 -20 -20 -20 -20 -17 6 8 6 6 -11 1 -20 -20 -20 -20 -20 -20 -20 -20 -20 -20 -17 6 -12 -20 -20 -20 -0 9 8 13 14 12 5 3 -8 -3 2 5 5 4 2 -1 -8 -8 -20 -20 -20 -20 -20
-20 -20 -20 -20 -20 -20 -20 -14 7 2 4 7 1 -20 -20 -19 -20 -20 -20 -20 -20 -20 -20 -20 -20 -20 -20 -20 -20 -20 -20 -20 -20 -18 -17 -11 -1 4 3 -10 -16 -15 -20 -20 -20 -20 -20 -20 -20 -20 -20 -20 -20 -20
-20 -20 -20 -20 -20 -20 -19 10 11 -15 11 -2 3 -5 -15 -3 -20 -20 -20 -20 -20 -20 -20 -20 -20 -20 -18 -20 -20 -20 -20 -20 -20 -20 -19 -14 -10 -15 -17 -18 -19 -20 -20 -20 -20 -20 -20 -20 -20 -20 -20 -20 -20 -20
-20 -20 -20 -20 -20 -20 -20 -20 -20 -20 -20 10 -6 -20 -3 -2 -20 -20 -20 -20 -20 -20 -20 -7 -12 -3 -20 -20 -20 -20 -20 -20 -20 -20 -20 -20 -20 -20 -20 -20 -20 -20 -20 -20 -20 -20 -20 -20 -20 -20 -20 -20 -20 -20
-20 -20 -20 -20 -20 -20 -20 -20 -20 -20 -20 -20 -5 -20 -20 -20 -20 -20 -20 -20 -10 -18 -7 -15 -17 -20 -20 -20 -18 -20 -20 -20 -20 -20 -20 -20 -20 -20 -20 -20 -20 -20 -20 -20 -20 -20 -20 -20 -20 -20 -20 -20 -20 -20
-20 -20 -20 -20 -20 -20 -20 -20 -20 -20 -20 -20 -20 -20 -20 -20 -20 -20 -20 -4 0 -3 -20 -20 -20 -20 -20 -20 -20 -20 -20 -20 -20 -20 -20 -20 -20 -20 -20 -20 -20 -20 -20 -20 -20 -20 -20 -20 -20 -20 -20 -20 -20 -20
-20 -20 -20 -20 -20 -20 -20 -20 -20 -20 -20 -20 -20 -20 -20 -20 -20 -20 -20 -20 -20 -20 -20 -20 -20 -20 -20 -20 -20 -20 -20 -20 -20 -20 -20 -20 -20 -20 -20 -20 -20 -20 -20 -20 -20 -20 -20 -20 -20 -20 -20 -20 -20 -20
-20 -20 -20 -20 -20 -20 -20 -20 -20 -20 -20 -20 -20 -20 -20 -20 -20 -20 -20 -20 -20 -20 -20 -20 -20 -20 -20 -20 -20 -20 -20 -20 -20 -20 -20 -20 -20 -20 -20 -20 -20 -20 -20 -20 -20 -20 -20 -20 -20 -20 -20 -20 -20 -20
-20 -20 -20 -20 -20 -20 -20 -20 -20 -20 -20 -20 -20 -20 -20 -20 -20 -20 -20 -20 -20 -20 -20 -20 -20 -20 -20 -20 -20 -20 -20 -20 -20 -20 -20 -20 -20 -20 -20 -20 -20 -20 -20 -20 -20 -20 -20 -20 -20 -20 -20 -20 -20 -20
-20 -20 -20 -20 -20 -20 -20 -20 -20 -20 -20 -20 -20 -20 -20 -20 -20 -20 -20 -20 -20 -20 -20 -20 -20 -20 -20 -20 -20 -20 -20 -20 -20 -20 -20 -20 -20 -20 -20 -20 -20 -20 -20 -20 -20 -20 -20 -20 -20 -20 -20 -20 -20 -20
-20 -20 -20 -20 -20 -20 -20 -20 -20 -20 -20 -20 -20 -20 -20 -20 -20 -20 -20 -20 -20 -20 -20 -20 -20 -20 -20 -20 -20 -20 -20 -20 -20 -20 -20 -20 -20 -20 -20 -20 -20 -20 -20 -20 -20 -20 -20 -20 -20 -20 -20 -20 -20 -20
-20 -20 -20 -20 -20 -20 -20 -20 -20 -20 -20 -20 -20 -20 -20 -20 -20 -20 -20 -20 -20 -20 -20 -20 -20 -20 -20 -20 -20 -20 -20 -20 -20 -20 -20 -20 -20 -20 -20 -20 -20 -20 -20 -20 -20 -20 -20 -20 -20 -20 -20 -20 -20 -20
-20 -20 -20 -20 -20 -20 -20 -20 -20 -20 -20 -20 -20 -20 -20 -20 -19 -20 -20 -20 -20 -20 -20 -20 -20 -20 -20 -20 -20 -20 -20 -20 -20 -20 -20 -20 -20 -20 -20 -20 -20 -20 -20 -20 -20 -20 -20 -20 -20 -20 -20 -20 -20 -20
-20 -20 -20 -20 -20 -20 -20 -20 -20 -20 -20 -20 -20 -20 -20 -20 -19 -19 -20 -20 -20 -20 -20 -20 -20 -20 -20 -20 -20 -20 -20 -20 -20 -20 -20 -20 -20 -20 -20 -20 -20 -20 -20 -20 -20 -20 -20 -20 -20 -20 -20 -20 -20 -20
-20 -20 -20 -20 -20 -20 -20 -20 -20 -20 -20 -20 -20 -20 -20 -20 -20 -20 -20 -20 -20 -20 -20 -20 -20 -20 -20 -20 -20 -20 -20 -20 -20 -20 -20 -20 -20 -20 -20 -20 -20 -20 -20 -20 -20 -20 -20 -20 -20 -20 -20 -20 -20 -20
-20 -20 -20 -20 -20 -20 -20 -20 -20 -20 -20 -20 -20 -20 -20 -20 -20 -20 -20 -20 -20 -20 -20 -20 -20 -20 -20 -20 -20 -20 -20 -20 -20 -20 -20 -20 -20 -20 -20 -20 -20 -20 -20 -20 -20 -20 -20 -20 -20 -20 -20 -20 -20 -20

GFSWCAN_prec_radar_066.txt.gz
Reflectivity
10 -20 -20 -11 -15 -16 12 3 -20 8 -10 7 15 24 29 32 30 29 30 20 23 33 25 5 -4 21 4 10 -4 -8 22 18 14 5 6 1 -19 -20 -20 -20 -10 2 -19 -7 1 1 -17 -20 -18 -20 -20 -16 -20 -20
10 7 11 16 24 23 -7 19 -8 -14 21 10 13 17 27 28 33 34 36 29 27 29 29 5 12 12 -13 -14 11 8 3 3 -20 -20 -20 -20 -20 -20 -20 -20 -20 -19 -17 -20 3 -20 -20 -20 -20 -20 -20 -20 -20 -20
-7 5 16 17 16 13 21 7 -4 -1 10 25 18 22 21 28 29 29 32 29 29 37 34 21 14 0 -20 -20 -17 -11 -20 3 -4 -20 -20 -20 -20 -20 -20 -20 -20 -20 -20 -20 -16 -20 -20 -20 -20 -20 -20 -17 -17 -20
25 21 6 -17 1 19 -14 -12 -10 6 18 31 23 29 26 25 29 33 32 33 24 26 24 17 -11 -20 -17 -18 -20 -7 -17 19 20 13 -19 -20 -20 -20 -20 -20 -20 -20 -20 -20 -20 -20 -20 -20 -20 -20 -20 -20 -20 -11
18 10 14 -12 -20 -20 -13 12 -0 -16 -15 15 9 13 22 25 29 28 24 25 7 13 20 13 9 14 -0 23 -3 3 13 9 24 14 -2 -20 -20 -20 -20 -20 -20 -20 -20 -20 -20 -20 -20 -20 -20 -20 -20 -20 -20 -20
10 -6 12 19 -9 8 16 14 20 27 13 -12 17 17 13 24 34 26 36 19 12 14 14 -4 -20 -20 -7 -3 -1 23 34 29 15 9 4 -20 -20 -20 -20 -20 -20 -20 -10 14 -20 -13 -20 -20 -20 -20 -20 -20 -16 -14
-10 -2 18 14 -9 -13 -20 -20 -20 -16 9 30 16 16 16 -15 36 31 13 -18 -19 -14 0 -20 -20 -8 -20 -20 -12 11 -3 8 31 32 29 34 -12 22 -17 -20 -20 -18 -17 -20 -20 -18 -20 -20 -20 -20 3 -19 10 13
-1 30 8 20 25 10 -19 -1 -5 12 7 22 25 17 20 18 23 17 17 -20 2 15 -14 -6 -16 19 -7 7 16 14 16 22 10 -6 -5 -17 -20 20 -17 -20 -20 -18 3 -6 -20 16 12 -20 -20 -20 -20 -20 19 4
23 29 4 22 25 31 -1 16 14 29 23 35 27 29 23 21 29 19 -6 -10 7 2 -20 7 6 23 13 7 19 26 -18 -1 4 38 2 8 -1 -20 -13 -20 -6 -10 -1 -13 18 18 21 8 -20 22 16 -6 -14 16
-5 -17 -20 -1 26 4 28 21 22 24 31 25 16 26 32 3 -6 19 30 32 36 20 20 10 28 14 9 23 3 22 -15 -11 -16 7 -14 -14 -11 -7 -20 -20 -20 -5 12 27 1 18 7 9 -4 13 21 32 26 -11
-3 -10 13 -20 -4 27 11 11 5 -2 -1 25 20 30 37 28 -10 30 23 18 2 19 10 20 -18 -20 17 12 -20 -20 -3 -9 -20 15 24 -10 -17 1 -20 -20 -20 -20 -19 -6 14 -1 -15 -3 11 11 1 8 0 -20
-20 -20 -14 -20 -19 -20 -16 13 9 -5 -20 9 27 29 25 16 20 17 9 20 7 -20 -0 -15 -20 -20 -3 -1 -17 -11 3 5 -15 5 -13 -13 -2 -1 -20 -20 -20 -20 -20 -20 -17 -7 -9 -3 13 14 8 7 10 8
-20 -20 -20 -20 -20 -20 -20 -9 30 -6 -13 1 18 3 -4 -18 -20 -20 -20 -20 -13 -20 -20 -20 -20 -20 -18 -20 -16 16 -11 24 8 -1 14 -20 -20 -20 -7 -20 -20 -18 -20 -20 -11 -16 -19 -2 5 -7 -13 -5 -8 -9
-20 -20 -20 -20 -20 -20 -20 -20 9 -7 -7 15 -20 -20 -20 -20 -20 -20 -20 -19 -18 -18 -20 -11 -20 -20 -20 -20 11 -4 -4 -20 -20 -20 -20 -16 -20 -3 -3 -1 -20 -20 -20 -16 -16 -17 -1 -6 -4 -15 -18 -14 -16 -10
-20 -20 -20 -20 -20 -20 -15 -20 -20 -20 -20 -20 -20 -20 -20 -15 -18 -17 -14 -14 -11 -17 -15 -16 -20 -20 -15 7 -14 -15 6 -11 -20 -20 -20 -16 -20 -9 -6 -6 -11 -0 -5 -17 -11 -16 -14 -7 -13 1 6 9 10 9
-20 -20 -20 -20 -20 -17 -16 -20 -20 -20 -20 -20 -20 -20 -20 -20 -20 -20 -20 -19 -15 -17 -20 -20 -13 -18 2 -6 -7 0 -14 -20 -20 -19 -6 -3 -13 -7 5 8 2 8 11 8 -4 -4 6 8 2 3 1 -3 -1 -8
-20 -20 -20 -20 -20 -20 -20 -20 -20 -20 -20 -20 -20 -20 -20 -20 -20 -20 -20 -20 -17 -20 -4 -13 -18 2 3 4 12 15 16 14 -2 -7 -17 -16 -2 6 9 5 13 16 11 2 6 13 14 14 13 12 5 -2 2 6
-20 -20 -20 -20 -5 -0 5 -7 -15 -10 -5 -20 -20 -20 -20 -20 -20 -20 -20 -20 -20 -20 -18 -2 -9 -1 -5 3 -4 -20 -8 -6 -11 -1 7 9 8 5 9 10 6 4 2 4 8 8 3 -11 -17 -20 -20 -20 -20 -20
-20 -20 -14 -19 -20 -20 -2 4 12 -1 -4 -20 -20 -20 -20 -20 -20 -20 -20 -20 -20 -20 -20 -20 -20 -20 -20 -20 -20 -20 -20 -20 -19 3 7 9 8 4 3 4 4 1 -1 2 4 -2 -19 -20 -20 -20 -20 -20 -20 -20
-20 -20 -20 1 -15 -20 -15 -15 -20 -20 -3 -13 -13 -20 -20 -20 -20 -20 -20 -20 -20 -20 -20 -20 -20 -20 -20 -20 -20 -20 -20 -20 -20 -20 -20 -20 -18 -15 -13 -15 -18 -14 -14 -16 -19 -20 -20 -20 -20 -20 -20 -20 -20 -20
-20 -20 -7 -20 -19 6 -20 -20 -20 -20 -20 -5 -20 -20 -20 -20 -20 -20 -20 -20 -20 -6 -20 -20 -20 -8 -20 -20 -20 -20 -20 -20 -20 -20 -20 -20 -20 -20 -20 -20 -20 -20 -20 -20 -20 -20 -20 -20 -20 -20 -20 -20 -20 -20
-20 -20 -20 -20 -20 -20 -20 -20 -20 -20 -3 -20 -5 -20 -20 -20 -20 -20 -20 -20 -20 -20 -16 -16 -20 -20 -20 -20 -20 -20 -20 -20 -20 -20 -20 -20 -20 -20 -20 -20 -20 -20 -20 -20 -20 -20 -20 -20 -20 -20 -20 -20 -20 -20
-20 -20 -20 -20 -20 -20 -15 -20 -20 -20 -20 -20 -20 -20 -20 -20 -20 -20 -20 -6 -6 -1 -20 -20 -20 -20 -20 -20 -20 -20 -20 -20 -20 -20 -20 -20 -20 -20 -20 -20 -20 -20 -20 -20 -20 -20 -20 -20 -20 -20 -20 -20 -20 -20
-20 -20 -20 -20 -20 -20 -20 -20 -20 -20 -20 -20 -20 -20 -20 -20 -20 -20 -20 -20 -17 -20 -20 -20 -20 -20 -20 -20 -20 -20 -20 -20 -20 -20 -20 -20 -20 -20 -20 -20 -20 -20 -20 -20 -20 -20 -20 -20 -20 -20 -20 -20 -20 -20
-20 -20 -20 -20 -20 -20 -20 -20 -20 -20 -20 -20 -20 -20 -20 -20 -20 -20 -20 -20 -20 -20 -20 -20 -20 -20 -20 -20 -20 -20 -20 -20 -20 -20 -20 -20 -20 -20 -20 -20 -20 -20 -20 -20 -20 -20 -20 -20 -20 -20 -20 -20 -20 -20
-20 -20 -20 -20 -20 -20 -20 -20 -20 -20 -20 -20 -20 -20 -20 -20 -20 -16 -20 -20 -20 -20 -20 -20 -20 -20 -20 -20 -20 -20 -20 -20 -20 -20 -20 -20 -20 -20 -20 -20 -20 -20 -20 -20 -20 -20 -20 -20 -20 -20 -20 -20 -20 -20
-20 -20 -20 -20 -20 -20 -20 -20 -20 -20 -20 -20 -20 -20 -20 -20 -20 -20 -20 -20 -20 -20 -20 -20 -20 -20 -20 -20 -20 -20 -20 -20 -20 -20 -20 -20 -20 -20 -20 -20 -20 -20 -20 -20 -20 -20 -20 -20 -20 -20 -20 -20 -20 -20
-20 -20 -20 -20 -20 -20 -20 -20 -20 -20 -20 -20 -20 -20 -20 -20 -20 -20 -20 -20 -20 -20 -20 -20 -20 -20 -20 -20 -20 -20 -20 -20 -20 -20 -20 -20 -20 -20 -20 -20 -20 -20 -20 -20 -20 -20 -20 -20 -20 -20 -20 -20 -20 -20
-20 -20 -20 -20 -20 -20 -20 -20 -20 -20 -20 -20 -20 -20 -20 -20 -20 -20 -20 -20 -20 -20 -20 -20 -20 -20 -20 -20 -20 -20 -20 -20 -20 -20 -20 -20 -20 -20 -20 -20 -20 -20 -20 -20 -20 -20 -20 -20 -20 -20 -20 -20 -20 -20
-20 -20 -20 -20 -20 -20 -20 -20 -20 -20 -20 -20 -14 -18 -20 -20 -13 -20 -20 -20 -20 -20 -20 -20 -20 -20 -20 -20 -20 -20 -20 -20 -20 -20 -20 -20 -20 -20 -20 -20 -20 -20 -20 -20 -20 -20 -20 -20 -20 -20 -20 -20 -20 -20
-20 -20 -20 -20 -20 -20 -20 -20 -20 -20 -20 -20 -20 -20 -20 -20 -20 -20 -20 -20 -20 -20 -20 -20 -20 -20 -20 -20 -20 -20 -20 -20 -20 -20 -20 -20 -20 -20 -20 -20 -20 -20 -20 -20 -20 -20 -20 -20 -20 -20 -20 -20 -20 -20
-20 -20 -20 -20 -20 -20 -20 -20 -20 -20 -20 -20 -20 -20 -20 -20 -20 -20 -20 -20 -20 -20 -20 -20 -20 -20 -20 -20 -20 -20 -20 -20 -20 -20 -20 -20 -20 -20 -20 -20 -20 -20 -20 -20 -20 -20 -20 -20 -20 -20 -20 -20 -20 -20
-20 -20 -20 -20 -20 -20 -20 -20 -20 -20 -20 -20 -20 -20 -20 -20 -20 -20 -20 -20 -20 -20 -20 -20 -20 -20 -20 -20 -20 -20 -20 -20 -20 -20 -20 -20 -20 -20 -20 -20 -20 -20 -20 -20 -20 -20 -20 -20 -20 -20 -20 -20 -20 -20

GFSWCAN_prec_radar_069.txt.gz
Reflectivity
10 10 12 -11 -20 1 2 -2 -14 -1 12 14 10 15 28 20 17 21 25 16 15 30 12 16 -10 15 25 10 18 12 27 32 29 6 13 -15 -4 -20 -20 -9 -12 -20 -20 1 -5 5 -13 -20 -20 -14 -20 -20 -20 -20
10 6 13 5 -20 -20 9 12 16 7 -9 7 8 12 23 27 27 27 27 21 17 20 24 -15 -20 0 4 -1 21 31 13 7 2 -20 -20 -20 -20 -20 -20 -20 -20 -7 -19 -20 -20 -20 -20 -20 12 -20 -20 -20 -20 -20
17 17 17 11 2 0 9 -7 15 22 14 3 5 18 22 26 30 32 31 21 17 36 24 -4 -6 -17 -4 20 23 14 10 17 10 -20 -20 -20 -20 -20 -20 -20 -20 -20 -20 -20 -20 -20 -20 -20 -20 -20 -20 -20 -20 -20
13 20 20 6 -7 -3 -6 11 9 3 -12 -18 13 25 23 26 28 37 35 22 22 26 16 18 -18 27 15 22 20 -13 6 14 2 -4 -18 -20 -20 -20 -20 -20 -20 -20 -20 -20 -20 -20 -20 -20 -20 -20 -20 -20 -20 -20
34 20 3 -15 -6 -20 -20 -20 -16 18 -20 15 19 32 21 27 31 34 32 37 24 16 20 9 -20 -20 -13 -20 -18 1 7 19 14 9 30 -9 -20 3 -20 -20 -20 -20 -20 -20 -20 -20 -20 -20 -20 -20 -20 -20 -20 -20
17 9 11 -5 13 10 18 -20 13 -20 16 17 21 30 28 27 36 35 38 34 30 24 23 11 -19 -20 -13 -8 3 1 20 22 32 30 32 29 21 17 -20 -20 -20 -20 -20 -20 -20 -20 -20 -20 -20 -20 -20 -20 -20 -20
26 7 27 4 -2 15 -20 -14 5 7 -11 15 9 -8 33 31 34 24 7 13 26 24 18 -15 -19 -20 -20 -9 7 17 15 33 29 25 27 11 -16 18 14 -20 -20 -20 -20 -20 -20 -20 -20 -20 -20 -20 -20 -20 -20 -20
20 20 15 9 2 -3 -20 13 -1 -1 23 15 18 8 33 34 22 29 20 4 20 28 9 -10 -18 -17 -5 15 19 16 22 39 31 32 30 30 11 30 25 -13 -20 -20 -20 -20 -20 -20 -18 -6 -20 -20 -13 -14 -20 -20
-1 11 26 5 15 19 10 6 17 16 31 22 21 29 29 36 37 32 17 24 21 13 -15 -20 -18 7 -10 13 2 11 16 19 13 10 -10 0 -15 -13 -8 -20 -20 -20 -20 -17 -20 -19 6 6 -19 -14 4 5 -19 13
-18 -12 -19 8 12 15 33 14 10 38 36 30 32 30 31 30 35 25 27 -3 -1 4 -18 -20 -16 27 8 -12 19 33 26 -15 -0 -18 6 13 -19 -16 -17 -20 -20 -20 -20 -20 -20 -20 -14 -0 -17 10 16 15 23 15
-10 -18 -20 1 29 18 20 35 34 35 13 2 9 17 28 15 19 -5 -20 -20 -18 -20 -20 -17 -15 23 -3 -1 -15 -20 1 3 -20 12 -9 -19 -17 -12 -14 -20 -20 -20 -20 -20 -19 -16 -12 12 -2 8 11 18 21 17
-20 -20 -20 -17 -9 14 -8 -12 -18 -16 -20 -19 13 21 -5 6 -11 17 2 -2 -20 -12 -6 18 27 3 11 39 2 -19 12 4 -12 -15 -20 -15 -2 -14 -20 -20 -20 -18 -20 -20 -20 -20 -16 -13 -19 2 12 11 13 13
-20 -20 -20 -20 -20 -9 -17 -4 24 -20 -15 -13 -4 -20 -1 19 5 -18 -19 -20 -20 -18 -7 12 14 23 14 -5 -1 18 -20 -7 4 4 -12 -15 -17 -18 -14 -20 -9 -18 -13 -20 -20 -6 2 -20 -16 3 4 -1 -2 -4
-20 -20 -20 -20 -20 -20 -20 -20 -1 -18 -16 -19 -20 -20 -20 -20 -20 -20 -20 -20 -20 -18 -4 -8 -20 -20 -19 -20 -0 -20 -19 -20 -14 2 -19 -7 -2 -13 -2 -1 -20 -20 -20 -20 -9 -5 -12 -16 -8 -6 -14 -7 -13 -14
-20 -20 -7 -10 -20 -20 -20 -20 -18 0 -20 -20 -20 -20 -20 -19 -19 -17 -17 -20 -20 -17 -4 -18 -20 -20 -20 -20 -20 -20 -20 -12 -20 -20 -11 -13 -19 4 4 3 -4 -14 -20 -14 -5 -16 -17 -8 -15 -16 -1 1 -10 2
-20 -20 -20 -20 -7 2 -20 -20 -20 -20 -20 -20 -20 -20 -20 -20 -20 -20 -20 -20 -19 -18 -20 -20 -20 -20 -20 -20 -20 -20 -20 -20 -5 -7 -4 -4 -17 -12 -2 -4 -3 -2 -6 -5 -1 4 9 11 8 7 5 2 -4 -5
-20 -20 -20 -20 -20 5 -20 -20 -20 -20 -20 -20 -20 -20 -20 -20 -20 -20 -19 -20 -20 -20 -20 -20 -20 -20 -8 -3 4 7 6 6 6 7 11 9 8 6 6 1 -14 -7 -3 1 -2 2 7 7 2 -7 -19 -1 -4 -11
-20 -18 -19 -20 -20 -20 -20 -20 -20 -20 -20 -20 -20 -20 -20 -20 -19 -20 -20 -20 -20 -20 -20 -9 -10 -3 10 -2 -16 -1 4 4 8 3 -3 -0 1 -9 -6 -11 -8 -4 -10 -13 -4 -7 -18 -20 -20 -20 -20 -20 -20 -20
-20 -10 3 -12 -18 -20 -19 -20 -20 -20 -20 -20 -20 -20 -20 -20 -20 -20 -20 -20 -20 -20 -20 -20 -12 -5 -19 -20 -20 -20 -20 -20 -20 -15 -11 -8 -13 -13 -10 -7 -7 -15 -7 2 3 -10 -20 -20 -20 -20 -20 -20 -20 -20
-20 -20 -1 22 5 -17 -20 -20 -20 -20 -20 -19 -16 -20 -20 -20 -20 -20 -20 -20 -20 -20 -20 -20 -20 -20 -20 -20 -20 -20 -20 -20 -20 -20 -20 -20 -20 -20 -18 -7 -3 -1 -2 -10 -16 -20 -20 -20 -20 -20 -20 -20 -20 -20
3 -11 -18 -6 -20 -20 -20 -20 -20 -20 -20 -20 -20 -20 -20 -20 -20 -20 -20 -19 -19 -8 -20 -20 -20 -20 -20 -20 -20 -20 -20 -20 -20 -20 -20 -20 -20 -20 -20 -20 -20 -20 -20 -20 -20 -20 -20 -20 -20 -20 -20 -20 -20 -20
-20 -20 -20 -20 -20 -20 -20 -20 -20 -20 2 -20 -8 -20 -20 -20 -20 -20 -20 -20 -20 -20 -18 -20 -20 -20 -20 -20 -20 -20 -20 -20 -20 -20 -20 -20 -20 -20 -20 -20 -20 -20 -20 -20 -20 -20 -20 -20 -20 -20 -20 -20 -20 -20
-20 -20 -20 -20 -20 -20 -7 -20 -20 -20 -20 -20 -20 -20 -20 -20 -20 -20 -20 -17 -15 -2 -20 -20 -20 -20 -20 -20 -20 -20 -20 -20 -20 -20 -20 -20 -20 -20 -20 -20 -20 -20 -20 -20 -20 -20 -20 -20 -20 -20 -20 -20 -20 -20
-20 -20 -20 -20 -20 -20 -20 -20 -20 -20 -20 -20 -20 -20 -20 -20 -20 -20 -20 -20 -8 -20 -20 -20 -20 -20 -20 -20 -20 -20 -20 -20 -20 -20 -20 -20 -20 -20 -20 -20 -20 -20 -20 -20 -20 -20 -20 -20 -20 -20 -20 -20 -20 -20
-20 -20 -20 -20 -20 -20 -20 -20 -20 -20 -20 -20 -20 -20 -20 -20 -20 -20 -20 -20 -20 -20 -20 -20 -20 -20 -20 -20 -20 -20 -20 -20 -20 -20 -20 -20 -20 -20 -20 -20 -20 -20 -20 -20 -20 -20 -20 -20 -20 -20 -20 -20 -20 -20
-20 -20 -20 -20 -20 -20 -20 -20 -20 -20 -20 -20 -20 -20 -20 -20 -20 -20 -20 -20 -20 -20 -20 -20 -20 -20 -20 -20 -20 -20 -20 -20 -20 -20 -20 -20 -20 -20 -20 -20 -20 -20 -20 -20 -20 -20 -20 -20 -20 -20 -20 -20 -20 -20
-20 -20 -20 -20 -20 -20 -20 -20 -20 -20 -20 -20 -20 -20 -20 -20 -20 -20 -20 -20 -20 -20 -20 -20 -20 -20 -20 -20 -20 -20 -20 -20 -20 -20 -20 -20 -20 -20 -20 -20 -20 -20 -20 -20 -20 -20 -20 -20 -20 -20 -20 -20 -20 -20
-20 -20 -20 -20 -20 -20 -20 -20 -20 -20 -20 -20 -20 -20 -20 -20 -20 -20 -20 -20 -20 -20 -20 -20 -20 -20 -20 -20 -20 -20 -20 -20 -20 -20 -20 -20 -20 -20 -20 -20 -20 -20 -20 -20 -20 -20 -20 -20 -20 -20 -20 -20 -20 -20
-20 -20 -20 -20 -20 -20 -20 -20 -20 -20 -20 -20 -20 -20 -20 -20 -20 -20 -20 -20 -20 -20 -20 -20 -20 -20 -20 -20 -20 -20 -20 -20 -20 -20 -20 -20 -20 -20 -20 -20 -20 -20 -20 -20 -20 -18 -20 -20 -20 -20 -20 -20 -20 -20
-20 -20 -20 -20 -20 -20 -20 -20 -20 -20 -20 -20 -20 -20 -20 -20 -19 -20 -20 -20 -20 -20 -20 -20 -20 -20 -20 -20 -20 -20 -20 -20 -20 -20 -20 -20 -20 -20 -20 -20 -20 -20 -20 -20 -20 -20 -20 -20 -20 -20 -20 -20 -20 -20
-20 -20 -20 -20 -20 -20 -20 -20 -20 -20 -20 -20 -20 -20 -20 -20 -20 -20 -20 -20 -20 -20 -20 -20 -20 -20 -20 -20 -20 -20 -20 -20 -20 -20 -20 -20 -20 -20 -20 -20 -20 -20 -20 -20 -20 -20 -20 -20 -20 -20 -20 -20 -20 -20
-20 -20 -20 -20 -20 -20 -20 -20 -20 -20 -20 -20 -20 -20 -20 -20 -20 -20 -20 -20 -20 -20 -20 -20 -20 -20 -20 -20 -20 -20 -20 -20 -20 -20 -20 -20 -20 -20 -20 -20 -20 -20 -20 -20 -20 -20 -20 -20 -20 -20 -20 -20 -20 -20
-20 -20 -20 -20 -20 -20 -20 -20 -20 -20 -20 -20 -20 -20 -20 -20 -20 -20 -20 -20 -20 -20 -20 -20 -20 -20 -20 -20 -20 -20 -20 -20 -20 -20 -20 -20 -20 -20 -20 -20 -20 -20 -20 -20 -20 -20 -20 -20 -20 -20 -20 -20 -20 -20

GFSWCAN_prec_radar_072.txt.gz
Reflectivity
9 15 11 3 8 16 9 12 10 -3 -9 -2 7 13 23 23 29 33 34 3 5 8 -20 -8 8 10 4 17 17 17 21 29 31 16 17 12 11 6 -20 4 -20 -0 6 10 9 6 8 -20 -20 -10 -4 -20 -20 -20
11 7 4 5 3 10 12 30 4 11 -14 -18 -5 14 18 17 19 31 31 22 2 20 1 3 -20 -16 24 23 21 29 13 -14 -2 11 17 20 12 9 -18 -0 -20 19 -17 11 -17 -3 -20 -20 -20 -20 -20 -20 -20 -20
6 5 11 10 7 7 -15 14 -20 -20 12 15 10 -11 9 15 26 30 28 11 15 27 5 -1 10 -20 -4 17 20 26 12 11 20 17 19 17 19 -14 10 -20 -20 -20 -20 -20 -20 -20 -20 -20 -20 -20 -20 -20 -20 -20
9 26 20 -9 -5 9 -1 -20 7 -20 -20 13 23 3 1 20 22 32 25 15 11 31 19 -5 -20 -20 -20 -20 -19 -0 8 24 27 18 16 18 14 -20 10 -9 -20 -20 -20 -20 -20 -20 -20 -20 -20 -20 -20 -20 -20 -20
27 17 1 4 14 10 15 -4 -20 14 21 18 -20 15 10 27 29 33 30 15 9 10 16 11 -18 -20 9 -16 5 19 17 27 21 28 26 17 6 11 6 9 -20 -20 -20 -20 -20 -20 -20 -20 -20 -20 -20 -20 -20 -20
11 -16 12 18 3 18 8 -20 -20 -20 -3 17 -5 -6 24 30 30 32 38 34 9 22 27 13 -4 -20 -1 9 23 21 18 25 28 27 13 -2 -18 21 19 10 -20 -19 -20 -20 -20 -20 -20 -5 -3 -20 -20 -20 -20 -20
-19 1 3 17 -1 1 9 9 15 14 11 -20 -16 23 34 32 20 24 23 17 30 15 27 4 10 9 7 15 18 23 22 18 19 32 27 10 13 16 4 10 -20 -20 -20 -20 -20 -20 -17 -20 -2 -20 -16 -20 -20 -20
6 -17 22 8 19 -20 -20 -20 -4 16 -2 18 17 33 29 22 25 33 1 -14 13 25 14 7 7 13 5 18 23 19 18 11 31 25 -1 16 20 22 29 -19 -20 -20 -20 -20 -20 -20 -20 1 -20 -20 -20 -20 -20 -20
-20 13 14 13 22 9 9 -15 16 32 28 16 16 37 38 30 31 16 11 13 11 5 -3 -8 10 11 8 11 21 13 12 28 7 31 27 14 24 19 1 -19 -20 -20 -20 -18 -20 -20 -20 -19 -20 -20 -19 -19 -18 -16
-20 -13 24 11 -3 -17 -19 15 31 33 19 19 25 24 30 28 27 22 35 37 35 24 10 12 -20 23 -10 15 5 4 15 27 14 26 10 6 -20 -1 -20 -20 -20 -17 -10 -10 -20 -20 -20 -20 -19 -20 -11 -2 -13 -19
-20 -13 14 10 29 31 30 34 29 2 1 8 33 30 24 33 31 27 22 11 2 6 -14 8 2 8 -11 13 9 20 26 -16 18 1 12 -13 -7 1 -13 -20 -8 -19 -14 -13 -20 -19 -9 -9 -20 -20 -9 4 -12 -2
-18 -11 17 -20 4 22 29 23 6 4 -20 -19 24 27 26 23 4 -5 12 7 12 4 -7 5 -9 13 -12 -20 -18 3 18 12 20 -16 -20 -6 0 -7 -4 -4 -3 -0 -6 -4 -12 -4 -3 -14 -5 -20 -9 -16 -16 -15
-18 -20 -18 -20 -19 -0 -20 2 -3 -6 -20 -20 5 6 -20 -20 -20 -20 -0 1 0 -20 4 5 24 24 23 38 29 21 -17 17 5 -16 -20 -1 1 -1 -1 -3 -3 -3 -5 -6 -2 -3 -3 -4 -3 -18 -9 -3 -2 -11
16 27 -11 -20 -20 5 -6 -20 -20 -20 -20 -20 -20 -5 16 -3 -7 -2 -2 -4 -10 -17 2 -9 -18 -20 -19 2 0 -20 -2 -20 -20 -20 -2 4 3 3 5 3 -6 -1 -1 -1 -4 -20 -8 -18 -3 -6 -14 -4 -12 -12
-20 10 19 -20 -20 -20 -19 -16 -20 -20 -20 -20 -20 -15 -20 -2 -6 -3 -3 -8 -11 -6 -9 -20 -20 -20 -20 -20 -20 -20 -20 -20 -20 -1 3 6 0 3 5 3 1 -5 -14 -14 -3 -10 -8 -10 -19 -20 -9 1 -7 -8
-20 -20 -9 7 -20 -20 -20 -20 -20 -20 -20 -20 -20 -13 -20 -14 -16 -18 -20 -17 -14 -20 -20 -20 -20 -20 -20 -20 -20 -11 -20 -20 -0 4 5 -1 -6 -3 -9 -1 0 0 -1 -2 0 1 -4 -11 -10 -8 -8 -11 -11 -14
-20 -20 -20 -20 -20 -20 -20 -20 -20 -20 -20 -20 -2 -0 -1 -4 -4 -5 -6 -11 -18 -20 -20 -20 -20 -7 -19 -20 -20 -20 -9 3 8 9 10 7 2 -2 -1 -3 -2 -1 2 2 -1 -0 0 3 4 4 -4 4 1 -5
-19 -20 -20 -20 -20 -20 -20 -20 -20 -20 -20 -16 -9 -1 -2 0 -3 -6 -4 -20 -20 -20 -20 -18 -20 -20 -20 -18 -9 -3 -1 -2 -1 -2 0 -10 -9 -3 -2 -1 1 1 1 2 3 2 2 -0 -6 -8 -8 -20 -20 -20
-20 -19 -6 -20 -20 -20 -20 -20 -20 -13 1 1 1 -10 -12 -10 -20 -20 -20 -20 -20 -20 -20 -20 -20 -18 -2 1 -1 1 2 -2 -4 -4 -20 -17 -14 -13 -15 -15 -11 -8 -4 -1 -3 -3 -0 -4 -19 -20 -20 -20 -20 -20
-20 -20 -20 -20 -20 -20 -20 -20 -20 -20 -8 -6 -20 -20 -20 -20 -20 -20 -20 -20 -20 -20 -16 -20 -3 3 1 4 2 0 -2 -3 -18 -20 -18 -20 -19 -20 -20 -19 -18 -8 -18 -17 -17 -20 -20 -20 -20 -20 -20 -20 -8 -2
9 -4 -14 -14 -20 -20 -20 -20 -20 -20 -3 -20 -20 -20 -20 -20 -20 -20 -20 -20 -20 -5 -2 3 2 1 0 1 1 0 0 -0 1 -20 -20 -20 -5 -20 -20 -20 -20 -20 -20 -20 -20 -20 -20 -20 -20 -20 -20 -2 0 2
-20 -20 -20 -20 -20 -20 -16 -20 -20 -13 -15 -20 -20 -20 -20 -20 -20 -20 -20 -20 -2 2 1 1 -0 -1 -6 -9 -3 -20 -7 -20 -20 -20 -20 -20 -20 -20 -20 -20 -20 -20 -20 -20 -20 -16 -20 -20 -20 -20 -20 -3 -20 -2
-20 -20 -20 -20 -20 -20 -12 -4 -6 4 -20 -20 -20 -20 -20 -20 -20 -20 -20 -16 1 2 -1 -3 -10 -20 -20 -20 -20 -20 -20 -20 -20 -20 -20 -20 -20 -20 -20 -20 -20 -20 -20 -20 -20 -5 -4 -20 -20 -1 -14 -2 -2 -2
-20 -20 -20 -20 -20 -20 -20 -20 -20 -20 -20 -20 -20 -20 -20 -20 -20 -20 -18 -1 2 -0 -10 -18 -20 -20 -20 -20 -20 -20 -20 -20 -20 -20 -20 -20 -20 -20 -20 -20 -20 -20 -20 -20 -20 -3 -1 -1 -18 -6 -20 -7 -16 -16
-20 -20 -20 -20 -20 -20 -20 -20 -20 -20 -20 -20 -20 -20 -20 -20 -20 -20 -20 -12 1 -0 -20 -20 -20 -20 -20 -20 -20 -20 -20 -20 -20 -20 -20 -20 -20 -20 -20 -20 -20 -20 -20 -6 -20 -20 -20 -20 -20 -20 -20 -20 -20 -20
-20 -20 -20 -20 -20 -20 -20 -20 -20 -20 -20 -20 -20 -20 -20 -20 -20 -16 -13 -0 -0 -20 -20 -20 -20 -20 -20 -20 -20 -20 -20 -20 -20 -20 -20 -20 -20 -20 -20 -20 -20 -20 -20 -7 -14 -4 -20 -20 -20 -20 -20 -20 -20 -20
-20 -20 -20 -20 -20 -20 -20 -20 -20 -20 -20 -20 -20 -20 -20 -20 -20 -11 -4 -20 -20 -20 -20 -20 -20 -20 -20 -20 -20 -20 -20 -20 -20 -20 -20 -20 -20 -20 -20 -20 -20 -20 -20 -20 -20 -8 -3 -20 -20 -20 -20 -20 -12 -20
-20 -20 -20 -20 -20 -20 -20 -20 -20 -20 -20 -20 -20 -20 -20 -20 -11 -1 -18 -20 -20 -20 -20 -20 -20 -20 -20 -20 -20 -20 -20 -20 -20 -20 -20 -20 -20 -20 -20 -20 -20 -20 -20 -20 -20 -20 -20 -20 -20 -20 -20 -5 -4 -12
-20 -20 -20 -20 -20 -20 -18 -20 -20 -20 -20 -20 -20 -20 -5 -5 -20 -7 -5 -20 -20 -20 -20 -20 -20 -20 -20 -20 -20 -20 -20 -20 -20 -20 -20 -20 -20 -2 -20 -20 -20 -20 -20 -1 -19 -18 -10 -20 -20 -20 -20 -20 -9 -20
-20 -20 -20 -20 -20 -20 -2 -1 -13 -20 -20 -20 -20 -18 -20 -17 -10 -19 -20 -20 -20 -20 -20 -20 -20 -20 -20 -20 -20 -20 -20 -20 -20 -20 -20 -20 -20 -18 -20 -20 -20 -20 -20 -4 -3 -7 -15 -3 -13 -13 -18 -20 -3 -7
-20 -20 -20 -20 -16 1 -14 -20 -20 -20 -20 -20 -20 -20 -19 -14 -20 -20 -20 -20 -20 -20 -20 -20 -20 -20 -20 -20 -20 -20 -20 -20 -20 -20 -20 -20 -20 -20 -20 -20 -20 -20 -20 -20 -20 -20 -20 -20 -20 -20 -20 -20 -20 -20
-20 -20 -20 -20 -20 -20 -20 -20 -20 -20 -20 -20 -20 -20 -20 -20 -20 -18 -20 -20 -20 -20 -20 -20 -20 -20 -20 -20 -20 -20 -20 -20 -20 -20 -20 -20 -20 -20 -20 -20 -20 -20 -20 -20 -20 -20 -20 -20 -20 -20 -20 -20 -20 -20
-20 -20 -20 -20 -20 -20 -20 -20 -20 -20 -20 -20 -20 -20 -20 -20 -20 -20 -20 -20 -20 -20 -20 -20 -20 -20 -20 -20 -20 -20 -20 -20 -20 -20 -20 -20 -20 -20 -20 -20 -20 -20 -20 -20 -20 -20 -20 -20 -20 -20 -20 -20 -20 -20

GFSWCAN_prec_radar_075.txt.gz
Reflectivity
9 10 9 -8 -20 -20 -13 2 14 12 16 11 15 12 16 9 -13 7 -1 -3 17 25 -20 -20 -20 21 7 6 20 28 14 14 23 28 20 20 18 14 -20 -6 18 12 11 12 13 21 8 -20 -20 -7 11 -20 -20 -20
9 4 -7 1 7 8 12 8 8 12 28 4 -17 6 -18 19 16 24 32 12 16 16 -15 -20 -20 -20 -3 27 33 28 18 25 3 10 12 20 18 19 -18 11 -7 21 -18 0 -18 -18 -12 -20 -13 -17 -20 -20 -20 -20
-2 -5 -3 11 10 11 -2 -20 -20 15 20 21 -2 19 -14 15 25 32 32 25 17 33 18 8 1 -20 -20 -20 14 9 9 22 26 22 23 27 22 -7 16 -19 12 -19 15 23 27 -14 4 22 -18 -20 -20 -20 -20 -20
2 4 -3 -3 -20 -20 -20 -3 -20 9 17 -2 -15 25 4 9 16 26 32 21 18 27 2 -12 -20 -20 -20 -20 -20 -3 7 14 27 18 20 22 19 -20 16 -14 -9 0 14 -10 -20 -6 -4 1 -18 -20 -20 -20 -20 -20
-4 3 -14 -20 -18 -20 0 1 2 0 -13 2 8 20 9 12 14 29 30 28 18 2 13 -19 -20 -20 -20 -20 -2 12 22 22 30 26 35 -6 -8 18 -20 7 15 -20 -4 7 -9 10 -20 11 -14 -20 -20 -20 -20 -20
-17 -20 -20 -20 9 -8 -11 10 -11 -0 -20 -13 -5 17 31 14 20 31 39 29 19 1 18 21 -20 -20 -20 -20 -15 7 22 26 23 38 10 19 -19 18 21 15 -15 17 -13 -20 -19 -20 -20 -20 -20 -20 -20 -20 -20 -20
-20 -19 -11 10 8 -3 -17 -19 -4 -20 -20 -6 17 17 26 17 23 31 21 6 11 19 24 14 22 4 5 7 13 20 15 24 29 27 18 9 20 18 -3 9 34 4 -20 -20 -20 -20 -20 -20 -20 -20 -20 -20 -20 -20
-20 1 6 -18 -10 0 -20 -5 15 -20 -20 13 14 -16 13 15 25 31 -12 4 -1 13 24 24 23 16 -1 19 21 22 35 29 29 14 6 13 0 25 25 -20 -19 -20 -20 -20 -20 -20 -20 -20 -20 -20 -20 -20 -20 -20
10 6 -7 23 -5 14 -11 17 17 17 17 -7 17 33 33 25 27 28 11 17 13 26 19 5 15 16 -1 15 13 18 20 13 4 11 10 18 15 23 1 -16 -20 -20 -20 -20 -20 -20 -20 -20 -20 -20 -20 -20 -20 -20
-10 21 6 27 16 -18 10 16 28 29 11 31 36 29 28 25 34 24 25 35 39 27 21 6 24 15 1 9 18 23 15 -14 12 2 11 27 17 -16 -20 -20 -20 -20 -20 -20 -20 -20 -20 -11 -4 -20 -9 -20 -8 -5
15 6 35 23 -9 17 32 35 25 25 22 27 34 21 23 34 27 31 32 23 25 24 -9 15 10 11 13 12 4 -18 9 5 19 8 13 13 1 -3 -20 -20 -20 -20 -20 -20 -20 -20 -20 -2 -20 -16 -7 -8 -5 -3
19 -12 13 18 23 35 24 5 18 26 21 -2 13 22 29 27 28 17 19 4 18 13 9 12 4 17 3 20 19 17 17 13 20 -9 10 5 -0 -20 -20 -13 -20 -20 -11 -13 -15 -11 -11 -8 -1 -10 -2 -0 -4 -1
17 9 -8 24 14 -15 0 -4 26 27 5 16 10 17 7 -18 -18 18 8 5 9 5 4 -9 -2 12 -14 -14 1 13 12 0 -18 6 -2 2 3 -18 -12 -2 -7 -17 -8 -4 -2 -4 -0 0 1 -0 1 3 -1 -4
21 14 23 22 -8 6 -20 -20 -18 -6 -1 -20 -20 -20 -19 -18 -4 -6 1 -0 1 4 -6 7 9 6 21 22 7 9 -2 -12 -4 0 0 7 4 7 3 3 -0 3 1 1 -1 -2 0 -3 -0 -0 1 -2 -17 -18
21 3 -20 -6 21 -20 -20 -20 -20 -20 -20 -20 4 -11 -1 4 -2 3 -1 -1 1 4 0 5 -14 -5 -12 -17 -20 -8 -15 -5 -10 1 6 4 2 3 4 4 3 1 2 3 2 -1 -0 -1 -2 -2 -1 -0 -5 -11
13 -15 -16 -20 -20 -20 -20 -20 -20 -20 -4 11 -14 5 -20 9 6 1 0 4 -1 -5 -20 -15 -15 -20 -5 -9 -17 -6 -10 -2 3 8 8 4 3 4 4 5 4 5 5 3 2 -0 -1 -4 -6 -2 -11 -15 -2 -3
-20 -4 -20 -20 -20 -20 -20 -20 -20 -16 -17 -14 1 0 6 -3 4 1 1 -2 -16 4 -18 -20 -20 -20 -19 -11 -5 -1 1 4 6 5 4 7 7 6 5 4 7 7 5 5 5 4 2 4 3 -0 -3 4 1 -5
-20 -20 -20 -20 -20 -20 -20 -20 -20 -20 -1 6 -1 5 0 4 6 1 -0 -20 -20 -20 -20 -6 -20 -20 -2 -1 1 4 6 4 4 3 2 -1 -4 0 2 0 -0 -1 -1 -0 0 4 4 4 -1 -2 -3 -20 -20 -20
-20 -20 -20 -20 -20 -20 -20 -20 -20 -7 3 4 6 3 2 5 -1 -0 -20 -20 -20 -20 -20 -20 -15 -1 4 7 5 5 7 3 2 2 1 -0 -1 -3 -2 -3 -2 -2 -2 -1 -4 -11 -5 -10 -18 -20 -20 -20 -20 -20
-20 -20 -20 -20 -20 -20 -20 -20 -20 -20 -1 -1 -3 -20 -15 -11 -1 3 -16 -20 -20 -20 -20 -8 5 11 6 7 5 -1 0 0 -0 0 2 1 2 0 6 5 2 2 -2 -1 -1 -20 -20 -20 -20 -20 -20 -20 -2 -3
-14 -20 -20 -20 -20 -20 -20 -20 -4 -20 -20 -1 -20 -20 0 -20 -2 -17 -20 -20 -20 -1 4 8 3 4 6 10 9 5 6 6 6 10 -0 0 1 -1 -1 -0 -2 -0 0 -1 -20 -20 -20 -20 -20 -20 1 2 1 -1
-15 -20 -16 -20 -20 -20 -14 -17 -14 -20 4 -9 -18 -20 -0 1 -2 -20 -20 -16 2 8 9 4 2 -0 -1 -3 -3 -4 -3 -16 -16 -16 -16 -16 -0 -4 -7 -20 -20 -13 -20 -20 -16 -2 -20 -20 -4 -10 0 -0 -1 1
-20 -20 -20 -20 -20 -20 6 3 2 2 4 -14 -20 -20 -20 -6 -20 -20 -4 -12 5 6 -1 -4 -5 -12 -6 -20 -20 -20 -20 -20 -20 -20 -20 -20 -20 -20 -20 -20 -20 -20 -20 -20 -20 -11 -9 -20 -20 -1 -10 1 2 2
-20 -20 -20 -20 -20 -4 1 -2 -20 -10 -20 -20 -20 -20 -19 -20 -20 -20 -1 1 3 -0 -2 -3 -3 -20 -20 -20 -20 -20 -20 -20 -20 -20 -20 -20 -20 -20 -20 -20 -20 -20 -20 -20 -20 -4 -2 -0 -18 -0 -1 -1 -2 -1
-20 -20 -20 -20 -20 -20 -20 -20 -20 -20 -20 -20 -20 -20 -20 -20 -20 -20 -5 1 3 4 -1 -2 -20 -20 -20 -20 -20 -20 -20 -20 -20 -20 -20 -20 -20 -20 -20 -20 -20 -20 -20 1 -0 1 -0 -2 -0 -0 -5 -3 -17 -20
-20 -16 -20 -20 -20 -20 -20 -20 -20 -20 -20 -20 -20 -20 -20 -20 -20 -15 -12 2 4 2 3 2 2 -14 -20 -20 -20 -20 -20 -20 -20 -20 -20 -20 -20 -9 -8 -17 -20 -10 -18 -3 -1 -0 -3 -11 -9 -20 -20 -14 -20 -18
-20 -17 -20 -20 -20 -20 -20 -20 -20 -20 -20 -20 -20 -20 -20 -20 -20 -2 0 0 -0 -1 -2 -9 -20 -13 -20 -20 -20 -20 -20 -20 -20 -20 -20 -20 -20 -20 -17 -3 -20 -9 -20 -14 -3 -2 0 -9 -5 -16 -14 -3 -1 -1
-20 -20 -20 -20 -20 -20 -20 -20 -20 -20 -20 -20 -20 -20 -20 -20 -10 7 2 5 -3 -3 -20 -20 -20 -20 -20 -20 -20 -20 -20 -20 -20 -20 -20 -20 -20 -20 -20 -10 -8 -20 -4 -6 -0 -4 -2 -2 -1 -1 -2 -2 -2 -1
-20 -20 -20 -20 -20 -20 -20 -20 -20 -16 -20 -20 -20 -20 -7 -3 4 0 -0 -0 0 -18 -20 -20 -20 -20 -20 -20 -20 -20 -15 -4 -3 -20 -20 -20 -3 -4 -7 -2 -1 -1 1 1 -20 -13 -2 -2 -1 -2 -2 -1 0 -1
-20 -20 -20 -20 -20 -16 0 0 2 0 -20 -20 -20 -4 -0 2 5 4 -1 2 1 4 2 -0 1 2 -4 -13 -20 -20 -11 -4 -13 -7 -7 -3 0 -1 -1 -0 -0 -1 -1 0 -1 -1 -17 -2 -3 -3 -1 -1 0 1
-20 -20 -20 -20 -9 4 4 -6 1 -1 -1 -7 -8 -20 -6 1 3 -0 -1 0 1 0 0 -6 -20 -8 -12 -20 -16 -20 -2 -2 -20 -20 -20 -10 -3 -0 -1 -5 -4 -3 -3 -4 -15 -15 -18 -20 -3 -4 -17 -20 -16 -20
-20 -20 -20 -20 -11 2 -6 4 -1 0 -1 -3 -1 -20 -2 -0 -3 1 -2 0 2 1 -19 0 2 2 -2 -4 -19 -20 -20 -20 -20 -20 -20 -3 0 -16 -19 -20 -20 -20 -20 -20 -20 -20 -20 -20 -20 -20 -20 -20 -20 -20
-20 -20 -20 -20 -20 -20 -20 -20 -20 -20 -20 -20 -14 -6 -6 -18 -13 0 -17 -8 -3 3 2 -1 0 -4 -20 -20 -20 -20 -20 -20 -20 -20 -20 -20 -20 -20 -10 -3 -5 -17 -20 -20 -20 -20 -20 -20 -20 -20 -20 -20 -20 -20

GFSWCAN_prec_radar_078.txt.gz
Reflectivity
-13 -11 -1 3 5 8 -10 -8 2 -0 13 27 8 15 11 9 18 28 0 9 -5 13 -6 -19 -19 5 17 19 2 19 -3 26 -0 5 -9 3 12 16 20 17 20 -9 8 8 2 13 2 -20 -18 20 24 -2 -12 -10
-20 -10 3 8 5 -20 -11 2 7 5 0 6 24 12 -20 -20 17 31 15 9 15 13 -17 -14 -20 -20 -13 -8 -8 29 25 20 23 -20 -15 20 18 20 0 21 25 19 -17 -18 -20 -20 -20 -20 -16 13 -20 16 1 -15
-10 8 3 -10 1 2 -3 0 11 12 -20 -2 14 18 14 -6 3 16 10 10 17 25 13 -19 -20 -20 -20 -20 0 19 17 14 -20 14 22 27 21 22 20 -20 -10 24 24 9 20 -15 14 34 8 11 -17 -20 -20 -20
8 -8 3 7 4 -10 -12 -11 -11 -20 1 12 10 20 -11 10 7 25 7 12 5 19 0 -20 -20 -20 -20 -20 -5 13 24 -11 -8 7 37 25 -4 30 24 13 -5 19 -11 -3 15 32 27 9 19 30 -20 -20 -20 -20
5 19 11 10 7 -18 -20 -16 -14 2 -15 15 15 -6 -19 12 12 23 33 26 18 12 17 -8 -20 -20 -20 -20 -20 -20 -16 2 13 21 16 9 -19 8 -10 5 8 -1 29 32 26 33 33 33 31 10 -20 -20 -20 -20
29 19 12 -20 -20 -20 -20 -20 -20 -10 -4 -10 12 11 13 27 15 32 37 31 24 6 33 29 18 -20 -20 -20 -20 -20 16 18 23 28 4 17 18 21 -12 21 12 13 -14 -20 -19 1 -8 -20 -20 -20 -20 -20 -20 -20
16 -20 -11 -20 -2 6 6 4 13 -12 3 1 13 14 14 13 28 29 19 13 10 19 36 15 10 -14 -20 -4 -20 -20 -10 27 20 12 33 15 -18 12 15 -13 13 27 3 -14 -20 -18 -9 -20 -20 -20 -20 -20 -20 -20
-14 -20 -20 -1 18 21 13 5 -16 9 2 -6 9 11 26 36 28 16 13 10 9 33 18 -2 18 22 10 13 19 13 0 21 28 10 16 -9 -0 -12 10 -8 -20 -16 8 -12 12 -5 -20 -20 -20 -20 -20 -20 -20 -20
-20 -20 2 19 13 13 9 20 -9 3 13 12 27 30 31 34 28 12 18 2 14 23 -12 10 20 19 -12 -2 14 2 -18 16 3 26 9 7 -3 17 11 -14 -20 -20 -20 -19 -8 -20 -20 -20 -20 -20 -20 -20 -20 -20
-11 -3 23 -19 -6 -20 12 16 17 14 21 31 19 30 30 21 7 28 36 37 35 22 12 13 25 14 7 -4 22 -0 17 14 14 -3 -2 -3 -20 -20 -20 -20 -20 -20 -20 -20 -20 -20 -20 -20 -19 -20 -20 -20 -20 -20
8 24 -7 -11 1 -8 20 23 24 32 25 20 28 18 12 24 23 31 26 29 29 10 -12 7 -5 -6 -20 2 9 -2 24 13 13 4 4 14 -2 -1 -20 -20 -20 -20 -20 -20 -20 -20 -20 -20 -7 -19 -20 -20 -6 -6
16 -13 13 8 19 35 33 30 31 25 27 -1 11 15 29 32 22 15 20 13 19 19 -3 20 21 19 6 -9 17 -16 -2 10 17 19 17 8 6 -3 -15 -20 -20 1 -20 -20 -20 -20 -16 -8 -20 -17 -5 -3 -0 1
23 17 18 1 19 29 36 36 39 27 15 22 6 25 31 24 18 20 14 20 10 3 -1 -2 -17 -18 -18 -10 -12 6 1 9 -9 15 -10 3 2 -20 -20 -20 -6 -20 -19 -17 -4 -18 -20 -17 -7 -6 -3 0 -15 -18
12 31 2 23 28 23 28 22 24 13 12 4 -20 -20 -2 -20 -18 -5 -3 -0 -2 2 -6 8 -9 7 -6 -13 -5 13 -19 -20 -2 9 -3 4 -0 6 6 3 -19 -2 -5 -4 0 0 2 1 2 -4 -4 -10 -18 -20
10 28 20 -5 -11 -12 3 17 7 5 6 -20 -20 -11 -2 -3 -2 3 4 2 -1 21 13 10 -3 -20 3 9 1 -20 -13 -12 -20 -1 6 3 5 7 6 7 5 5 5 4 0 -2 0 -3 -6 -2 -6 -13 -20 -20
-20 -20 -20 -20 -20 -20 -20 -20 -20 -20 -20 -20 -15 9 -2 6 5 -4 6 -2 4 19 -7 12 -13 -20 -20 -13 -20 -9 -5 -10 3 7 6 -1 1 2 3 3 3 5 2 2 2 -2 -3 -7 -16 -6 -15 -20 -5 -12
-20 -20 -20 -20 -20 -20 -20 -20 -5 17 0 -15 -2 -18 11 -2 6 3 2 -3 -3 8 -19 -13 -20 -20 -20 -13 -20 -20 -4 4 -1 1 -4 0 1 0 -3 -3 4 -1 0 0 0 -1 0 1 2 -4 -20 -1 -9 -20
4 -20 -20 -20 -20 -20 -20 -20 -19 -18 -3 6 5 4 -18 5 7 3 -3 -20 -20 -20 -20 -20 -20 -20 -15 -3 -3 2 2 1 1 4 1 -1 -1 7 6 3 5 2 3 3 2 0 -6 -8 -17 -20 -20 -20 -20 -20
-20 -20 -20 -20 -20 -20 -20 -20 -20 -7 5 5 8 9 3 7 1 -12 -14 -20 -20 -20 -20 -20 -20 -2 4 4 2 1 5 2 3 -4 -3 2 -6 -6 -8 -9 -7 -7 3 3 -1 -13 -20 -20 -13 -7 -20 -20 -20 -20
-20 -20 -20 -20 -20 -20 -20 -20 -20 -12 2 1 1 -20 -16 2 4 1 -20 -20 -20 -20 -20 -10 5 11 7 10 2 -12 -13 2 -2 3 4 4 4 -12 9 5 0 -1 -3 -4 -5 -16 -19 -20 -20 -20 -20 -20 -19 -7
-20 -20 -20 -20 -20 -20 -20 -20 -12 -8 2 -0 -10 -20 2 -10 -5 -20 -20 -20 -20 -3 3 7 1 -2 -2 13 9 -18 -7 9 4 2 -20 2 7 3 2 2 2 9 8 5 -5 -20 -20 -20 -20 -14 1 -2 -7 -20
-18 -20 -20 -20 -20 -20 -15 -20 -15 -11 3 -4 -17 -1 7 2 -10 -20 -20 -20 -1 12 8 3 3 -1 -6 -13 -20 -18 -14 -20 -20 -15 -15 -14 5 1 1 1 -0 -4 -20 -20 -17 -12 -20 -20 -20 -11 -3 1 -19 -10
-20 -20 -20 -20 -20 -20 -7 -0 -1 2 4 -15 -20 -12 2 -5 -20 -20 -11 -7 6 4 -9 -20 -20 -20 -20 -20 -20 -20 -20 -20 -20 -13 -16 -20 -20 -20 -20 -20 -20 -13 -16 -20 -20 -10 -20 -20 -20 -2 -20 -11 -20 -20
-20 -20 -20 -20 -20 -16 4 1 -20 -9 -20 -6 -19 -4 -16 -17 -20 -6 -1 4 3 -2 -3 -4 -19 -20 -20 -20 -20 -20 -20 -20 -20 -20 -20 -20 -20 -20 -20 -20 -20 -20 -20 -20 -19 -9 -5 -18 -20 1 -17 -7 -20 -16
-20 -20 -20 -20 -20 -20 -20 -19 -20 -20 -20 -20 -20 -20 -20 -20 -4 -4 -3 1 5 3 -1 -3 -3 5 -7 -20 -20 -20 -20 -20 -20 -20 -20 -20 -20 -19 -20 -20 -20 -20 -20 2 1 0 -15 -20 -1 -2 -9 -19 -20 -20
-20 -20 -18 -20 -20 -20 -20 -20 -20 -20 -20 -20 -20 -20 -20 -20 -20 -3 2 6 7 3 9 8 0 -5 -20 -20 -20 -20 -20 -20 -20 -20 -20 -20 -20 -20 -20 -11 -8 -8 -20 -20 -2 2 -20 -20 -12 -20 -17 -20 -20 -20
-20 -20 -20 -20 -20 -20 -20 -20 -20 -20 -20 -20 -20 -20 -20 -20 -20 -7 8 -0 6 4 -19 -20 -20 -14 -20 -20 -20 -20 -20 -20 -20 -20 -20 -20 -20 -20 -20 -17 -20 -16 -20 -20 -19 -20 -5 -18 -6 -18 -16 -7 -3 -20
-20 -20 -20 -20 -20 -20 -20 -20 -20 -20 -20 -20 -20 -20 -20 -20 -2 6 4 -3 -20 -20 -20 -20 -20 -20 -20 -20 -20 -20 -20 -20 -20 -20 -20 -20 -20 -20 -20 -20 -20 -20 -20 -20 -20 -8 -20 -18 -15 -8 -4 -11 -20 -20
-20 -20 -20 -20 -20 -20 -20 -20 -20 -19 -20 -20 -20 -20 -9 -2 -1 3 -3 -3 -4 -6 -7 -5 -3 -20 -18 -18 -18 -5 -3 -20 -11 -20 -20 -6 -10 -7 -20 -11 -3 -20 -4 2 -20 -20 -20 -20 -20 -20 -20 -20 -18 -19
-20 -20 -20 -20 -20 -16 1 -2 -0 -4 -20 -20 -20 -6 0 8 5 0 -1 5 6 4 -0 -0 4 2 1 -15 -20 -19 -14 -12 -20 -20 -7 -9 -10 -20 -7 -5 -2 -6 -11 -3 -5 -4 -17 -13 -14 -18 -20 -11 -12 -2
-20 -20 -20 -20 -5 2 2 3 -4 8 4 -16 -8 -20 -8 -2 -5 -16 -3 -6 -5 -1 -0 1 0 -1 -10 -20 -4 -9 -15 -16 -20 -20 -20 -20 -6 -5 -17 -20 -15 -16 -4 -6 -18 -11 -18 -20 -15 -3 -9 -20 -20 -20
-20 -20 -20 -20 -11 6 5 9 4 3 -0 -2 -4 -0 -4 -3 -4 0 -8 7 6 5 -18 3 2 -12 -20 -20 -20 -20 -20 -20 -20 -20 -20 -11 -16 -20 -20 -20 -20 -5 -13 -20 -9 -20 -20 -20 -20 -20 -20 -20 -20 -20
-4 -20 -20 -20 -19 -16 -8 -12 -20 -8 -20 -10 -12 -20 -20 -20 -12 -3 -17 -20 3 3 1 -20 -18 -20 -20 -20 -20 -20 -20 -20 -20 -20 -20 -20 -20 -20 -20 -7 -6 -7 -20 -20 -20 -11 -20 -20 -20 -20 -20 -20 -20 -20

GFSWCAN_prec_radar_081.txt.gz
Reflectivity
18 -9 6 -20 -20 -20 -8 6 -6 -7 -8 -3 10 -9 11 11 4 33 14 1 -8 8 -10 -20 -20 -17 13 5 16 14 -20 -19 19 -19 -20 -20 -20 -20 -7 0 30 14 2 12 14 4 5 -20 -20 -8 -16 -20 -20 -20
7 -1 -20 -20 -14 -4 10 5 -11 4 -11 8 -5 9 18 17 19 29 29 5 13 10 -20 -20 -20 -20 -20 -20 -17 14 35 26 23 12 -20 -20 -20 14 2 18 19 30 -4 -18 -20 -20 -3 25 2 -18 11 18 -20 -3
-20 -20 -20 -18 -6 8 0 -20 -14 -6 9 14 14 9 19 24 12 22 27 10 21 23 -4 -20 -20 -20 -20 -20 -20 -20 11 25 30 -20 -20 4 -13 10 17 8 22 34 20 25 19 17 -12 11 25 -6 36 11 4 29
-20 -20 -20 -7 10 17 17 9 11 3 4 -6 1 -17 10 20 -13 1 16 29 16 1 -20 -20 -20 -20 -20 -20 -20 -20 -13 31 23 -20 -20 -9 7 23 13 29 18 10 25 15 24 22 10 22 26 36 22 -19 -20 -20
-20 -15 7 17 21 19 11 -12 -11 10 7 -4 17 17 17 29 -7 -11 -14 -8 -10 -6 5 12 -20 -20 -20 -20 -20 -20 -18 -1 -17 5 -16 -14 -0 26 10 31 21 2 11 29 17 33 20 37 32 31 26 4 -20 -20
-3 9 22 17 9 3 10 11 12 5 -19 6 16 14 17 25 4 11 29 24 -14 -20 -12 -20 -20 -20 -20 -20 -20 -20 -20 -1 -15 10 8 -15 -20 26 -9 25 27 -12 -20 0 34 36 34 36 31 8 4 -19 -20 -20
8 13 14 10 -17 -8 7 4 5 -0 -1 15 18 22 21 21 23 23 9 9 7 13 32 -6 -20 18 -20 -17 -19 -20 -9 -20 11 -0 15 -20 -20 8 14 16 -20 -11 3 -6 13 31 20 -18 -13 -13 -20 -20 -20 -20
14 8 5 -19 -20 2 3 -12 -19 -3 14 7 19 17 20 31 33 12 -1 -20 3 25 25 6 -5 23 -9 -1 1 -13 6 -11 -6 -17 -0 -19 -4 3 -4 -13 -11 -17 -20 -15 -20 -20 -20 -20 -20 -20 -20 -20 -20 -20
7 -7 -9 -13 -14 -10 -19 6 -0 14 -0 17 19 24 34 34 30 3 -8 -3 9 9 5 -19 -20 23 -6 -16 -10 -20 -7 1 -7 5 -7 10 -5 2 -8 -20 -20 -20 -20 -20 -20 -20 -20 -20 -20 -20 -20 -20 -20 -20
2 12 -7 -11 -19 -20 -19 22 18 -3 20 22 29 31 26 32 12 23 38 33 39 28 -3 -2 -2 32 -19 -20 12 19 6 -19 3 -5 -0 18 3 -18 -19 -20 -20 -20 -20 -20 -20 -20 -20 -5 -20 -20 -20 -20 -20 -20
19 16 -1 -11 -20 9 14 28 16 17 27 20 39 28 13 11 22 30 14 18 26 -8 -20 -20 -20 21 25 5 22 -13 -7 15 -20 -20 -20 -15 -9 3 -20 -20 -20 -20 -20 -20 -20 -20 -20 -19 -12 -20 -20 -20 -20 -20
-14 9 5 12 0 12 9 29 20 14 26 29 19 20 22 28 21 22 16 -1 -11 -20 -20 -20 -19 24 -11 2 -16 -20 -20 -17 6 24 21 12 6 -20 -18 -16 -20 -20 -20 -20 -20 -20 -20 -20 -20 -20 -20 -20 -17 -15
-3 13 18 20 27 28 26 27 26 23 14 16 17 19 21 19 11 23 -16 -9 -12 -8 -10 6 19 30 -14 -6 23 -20 -20 17 20 16 -5 -5 -2 -19 -20 -20 -20 -20 -20 -20 -20 -20 -20 -20 -20 -20 -20 -20 -20 -20
14 8 22 17 28 31 32 29 16 3 6 -6 -20 -8 11 -13 -20 -20 -20 -20 -19 -20 -19 -20 -15 -20 -15 -20 -16 -5 -20 -19 -4 -20 -19 -19 -20 -20 -20 -20 -20 -20 -20 -20 -20 -20 -20 -20 -20 -20 -20 -20 -20 -20
12 1 17 17 26 3 15 24 18 -11 -20 -20 -20 -13 -20 -20 -18 -20 -19 -20 -17 19 -4 -20 -20 -20 -20 -20 -20 -20 -20 -20 -20 -20 -20 -20 -20 -20 -20 -20 -20 -20 -20 -20 -20 -20 -20 -20 -20 -20 -20 -20 -20 -20
28 6 -11 10 9 5 -17 13 0 -20 -20 -20 -20 -5 -17 -20 -19 -19 -17 -18 -5 -12 1 -15 -20 -20 -20 -20 -20 -20 -20 -20 -17 -20 -20 -20 -20 -20 -20 -20 -20 -20 -20 -20 -20 -20 -20 -20 -20 -20 -20 -20 -20 -20
-19 -20 -20 -20 -10 1 -20 -20 -10 -20 -20 -20 -20 -20 -20 -20 -7 -19 -20 -17 27 11 -20 -20 -20 -20 -20 -20 -20 -20 -20 -20 -20 -20 -20 -20 -20 -20 -20 -20 -20 -19 -15 -8 -20 -20 -20 -20 -20 -20 -20 -20 -20 -20
-20 -20 -20 -20 -20 -20 -19 4 15 7 -20 -20 -20 -14 -20 -20 -7 -19 -20 -20 -20 -20 -20 -20 -20 -20 -20 -20 -20 -20 -20 -20 -20 -20 -20 -11 -20 -7 -20 -20 -20 -20 -20 -20 -20 -20 -20 -20 -20 -20 -20 -20 -20 -20
-20 -20 -20 -20 -20 -17 -16 -20 -20 -15 -5 -11 -12 -20 -20 -20 -20 -20 -20 -20 -20 -20 -20 -20 -20 -20 -20 -20 -20 -20 -20 -20 -20 -20 -20 -20 -20 -20 -20 -20 -20 -20 -20 -20 -20 -20 -20 -20 -19 -14 -18 -19 -20 -20
-20 -20 -20 -20 -20 -20 -20 -20 -20 -20 -20 -2 -20 -20 -20 -9 -5 -20 -20 -20 -20 -20 -20 -20 -19 -19 -15 -10 -20 -20 -20 -20 -20 -20 -20 -12 -20 -16 -15 -19 -20 -20 -20 -20 -20 -20 -20 -20 -20 -20 -20 -20 -20 -20
-20 -20 -20 -20 -20 -20 -20 -20 -11 -20 -5 -17 -20 -20 -2 -20 -20 -20 -20 -20 -20 -2 -3 -16 -20 -18 -20 -20 -20 -20 -17 -11 -18 -20 -20 -20 -20 -20 -20 -20 -15 1 -20 -20 -20 -20 -20 -20 -20 -20 -20 -20 -20 -20
-20 -20 -20 -20 -20 -20 -20 -20 -16 -20 -7 -17 -20 -5 -6 -20 -20 -20 -20 -20 -14 3 -18 -20 -20 -20 -20 -20 -20 -20 -20 -20 -20 -20 -20 -15 -20 -6 -20 -20 -20 -20 -20 -20 -20 -20 -20 -20 -20 -20 -20 -20 -20 -20
-20 -20 -20 -20 -20 -20 -10 -20 -20 -20 -20 -20 -20 -20 -13 -20 -20 -20 -20 -17 -14 -19 -20 -20 -20 -20 -20 -20 -20 -20 -20 -20 -20 -20 -20 -20 -20 -20 -20 -20 -20 -20 -20 -20 -20 -20 -20 -20 -20 -20 -20 -20 -20 -20
-20 -20 -20 -20 -20 -11 -20 -19 -20 -20 -20 -7 -20 -8 -20 -20 -20 -20 -15 -18 -20 -20 -20 -20 -20 -20 -20 -20 -20 -20 -20 -20 -20 -20 -20 -20 -20 -20 -20 -20 -20 -20 -20 -20 -20 -20 -20 -20 -20 -20 -20 -20 -20 -20
-20 -20 -20 -20 -20 -20 -20 -20 -20 -20 -20 -20 -20 -20 -20 -20 -20 -20 -11 -5 -19 -20 -20 -20 -19 -1 -20 -20 -20 -20 -20 -20 -20 -20 -20 -20 -20 -20 -20 -20 -20 -20 -20 -20 -20 -20 -20 -20 -20 -20 -20 -20 -20 -20
-20 -20 -20 -20 -20 -20 -20 -20 -20 -20 -20 -20 -20 -20 -20 -20 -20 -20 -13 -9 -20 -20 -12 -17 -20 -20 -20 -20 -20 -20 -20 -20 -20 -20 -20 -20 -20 -20 -20 -20 -20 -20 -20 -20 -20 -20 -20 -20 -20 -20 -20 -20 -20 -20
-20 -20 -20 -20 -20 -20 -20 -20 -20 -20 -20 -20 -20 -20 -20 -20 -20 -9 1 -20 -20 -17 -20 -20 -20 -20 -20 -20 -20 -20 -20 -20 -20 -20 -20 -20 -20 -20 -20 -20 -20 -20 -20 -20 -20 -20 -20 -20 -20 -20 -20 -20 -20 -20
-20 -20 -20 -20 -20 -20 -20 -20 -20 -20 -20 -20 -20 -20 -20 -20 -9 -18 -11 -11 -20 -20 -20 -20 -20 -20 -20 -20 -20 -20 -20 -20 -20 -20 -20 -20 -20 -20 -20 -20 -20 -20 -20 -20 -20 -20 -20 -20 -20 -20 -20 -20 -20 -20
-20 -20 -20 -20 -20 -20 -20 -20 -20 -20 -20 -20 -20 -20 -20 -17 -18 -15 -20 -20 -20 -20 -20 -20 -20 -20 -20 -20 -20 -20 -20 -20 -20 -20 -20 -20 -20 -20 -20 -20 -20 -20 -20 -20 -20 -20 -20 -20 -20 -20 -20 -20 -20 -20
-20 -20 -20 -20 -20 -20 -14 -9 -20 -20 -20 -20 -10 -11 -20 -14 -8 -20 -20 -12 -20 -20 -20 -20 -20 -20 -20 -20 -20 -20 -20 -20 -20 -20 -20 -20 -20 -20 -20 -20 -20 -20 -20 -20 -20 -20 -20 -20 -20 -20 -20 -20 -20 -20
-20 -20 -20 -20 -20 -18 -12 -15 -7 -16 -20 -20 -20 -20 -20 -20 -20 -17 -20 -20 -20 -20 -14 -20 -20 -20 -20 -20 -20 -20 -20 -20 -20 -20 -20 -20 -20 -20 -20 -20 -20 -20 -20 -20 -20 -20 -20 -20 -20 -20 -20 -20 -20 -20
-20 -20 -20 -20 -20 -12 1 -1 -20 -20 -20 -20 -13 -20 -20 -20 -20 -20 -20 -20 -8 -19 -20 -20 -20 -20 -20 -20 -20 -20 -20 -20 -20 -20 -20 -20 -20 -20 -20 -20 -20 -20 -20 -20 -20 -20 -20 -20 -20 -20 -20 -20 -20 -20
-20 -20 -20 -20 -20 -20 -20 -20 -20 -5 -20 -20 -20 -20 -20 -20 -20 -20 -20 -20 -19 -20 -20 -20 -20 -20 -20 -20 -20 -20 -20 -20 -20 -20 -20 -20 -20 -20 -20 -20 -20 -20 -20 -20 -20 -20 -20 -20 -20 -20 -20 -20 -20 -20

GFSWCAN_prec_radar_084.txt.gz
Reflectivity
8 4 8 15 -10 -20 -20 -20 -20 -5 -14 -4 -18 12 14 16 17 17 17 8 -20 -20 -20 -20 -20 -20 -20 -20 -6 -15 -20 -20 -20 -6 -20 -20 -20 -20 -6 -20 -20 -10 -3 -5 -4 9 5 -20 -20 -4 -8 -20 -20 -8
2 10 22 7 -2 -20 -20 -16 -10 -0 -17 -20 -20 -20 17 14 26 21 25 13 3 -20 -20 -20 -20 -20 -20 -18 -20 -9 -17 5 23 6 -13 -20 -20 -20 -20 -20 22 -6 7 15 -20 -20 -11 -19 -20 -20 17 19 23 15
5 16 9 -18 -4 -20 -20 6 7 9 6 -20 -20 -16 7 2 23 23 22 4 33 30 3 -20 -17 -15 -20 -20 -20 -20 -20 18 33 37 25 -20 -20 -14 -7 -20 -20 33 38 11 15 19 -1 21 -15 -14 20 16 12 -11
14 11 -18 -20 -20 -20 -0 7 15 17 5 -5 -6 -8 21 10 23 32 25 8 24 18 -20 -20 -20 -20 -20 -20 -20 -20 -20 -16 21 31 -12 -12 -20 -20 -20 -20 12 40 23 30 37 33 15 2 -2 21 20 -4 20 11
11 -13 -20 -18 8 3 20 21 19 11 -17 -10 -20 -18 13 18 29 23 -8 14 5 15 -5 -19 -20 -20 -20 -20 -20 -20 -20 -20 6 18 -20 -20 -20 -11 7 26 1 10 24 28 27 40 17 30 18 36 31 19 -16 8
-3 -20 -5 10 -11 9 15 15 -2 9 7 -4 -20 14 17 18 31 1 26 17 4 24 -20 -20 -20 -20 -20 -20 -20 -20 -20 -20 5 -20 -20 -20 -20 6 14 23 21 20 27 2 18 37 38 41 31 26 17 14 12 8
-16 0 9 -9 4 13 9 -0 1 7 19 -3 0 16 19 20 28 -18 -20 -20 14 13 -12 -11 -20 -20 21 -20 -20 -20 -14 -9 -4 -5 5 -20 -20 -13 21 11 7 15 -20 -20 -9 5 -1 6 9 0 11 4 3 -18
4 2 -1 6 10 7 -16 -16 -3 -2 6 9 2 10 20 16 29 -4 -8 -7 -17 -1 -3 -15 -20 2 -15 -9 -0 -20 -7 15 0 -20 6 7 -4 14 -17 -8 -20 -19 -20 -20 -20 -20 -20 -20 -20 -20 -16 -20 -20 -20
1 -13 2 -7 -9 -2 3 -16 6 20 10 17 20 18 30 38 26 3 -4 8 11 -16 -19 -5 -20 -10 -1 14 20 5 4 -17 -20 7 9 -20 -17 -19 -13 -20 -20 -20 -20 -20 -20 -20 -20 -20 -20 -20 -20 -20 -20 -20
8 4 -19 12 -8 8 8 5 9 13 27 27 27 30 24 30 15 8 35 36 34 27 -4 -3 -20 10 28 -20 22 -19 -20 -20 -19 -20 -13 -8 -5 -20 -20 -20 -20 -20 -20 -20 -20 -20 -8 -20 -20 -20 -20 -20 -20 -20
12 7 15 10 -7 13 9 17 15 19 37 36 32 28 14 17 17 28 15 12 22 -18 -20 -20 -20 -20 14 1 -14 -18 -3 -8 -20 -20 -20 -14 -20 -6 -20 -20 -20 -20 -20 -20 -20 -20 -20 -20 -20 -20 -4 -20 -20 -20
23 29 13 2 4 -1 12 23 31 34 35 27 24 24 23 29 31 9 15 -2 -20 -20 -20 -12 -20 -8 32 31 21 -15 -6 12 -20 23 9 -20 -0 -20 -20 -20 -20 -20 -20 -20 -20 -20 -20 -20 -20 -20 -20 -14 -20 -20
29 17 14 10 6 14 20 31 20 -6 -18 11 24 25 32 23 -2 -20 13 -1 -20 -19 -9 -6 -20 -20 6 -6 -20 -20 -20 -18 -12 1 -15 -20 -6 -20 -20 -20 -20 -20 -20 -20 -20 -20 -20 -20 -20 -20 -20 -20 -20 -20
3 17 26 20 23 23 10 14 34 31 18 19 13 1 2 -20 -20 -20 -20 -20 -20 -18 9 -20 -15 -2 -4 -18 -5 3 -20 -20 -20 -20 -12 0 -20 -20 -20 -20 -20 -20 -20 -20 -20 -20 -20 -20 -20 -20 -20 -20 -20 -20
5 13 28 24 17 25 18 20 23 25 1 -12 -20 -17 -20 -20 -19 -18 -18 -20 -20 9 13 -20 -20 -2 -9 -20 -20 -20 -20 -20 -20 -20 -20 -20 -20 -20 -20 -20 -20 -20 -20 -20 -20 -20 -20 -20 -20 -20 -20 -20 -20 -20
0 15 21 17 25 23 27 20 -6 -18 -20 -20 -20 -20 -18 -20 -17 -19 -18 -1 7 -7 -16 -20 -20 -20 -20 -20 -20 -20 -20 -20 -20 -20 -20 -20 -20 -20 -20 -20 -20 -20 -20 -20 -20 -20 -20 -20 -20 -20 -20 -20 -20 -20
-2 -14 5 -10 -20 -13 6 -13 -19 -20 -20 -20 -20 -12 -20 -20 -18 -16 -19 -19 9 7 -20 -20 -20 -20 -20 -20 -20 -20 -20 -20 -20 -20 -20 -20 -20 -20 -20 -20 -20 -20 -20 -20 -20 -20 -20 -20 -20 -20 -20 -20 -20 -20
-20 -20 -15 7 -10 -20 10 7 -17 -20 -20 -20 -20 -20 -20 -20 -20 -18 -18 -18 -20 -20 -20 -20 -20 -20 -20 -20 -20 -20 -20 -20 -20 -20 -20 -20 -20 -20 -20 -20 -20 -20 -20 -20 -20 -20 -20 -20 -20 -20 -20 -20 -20 -20
-20 -20 -20 -3 -20 -20 -20 -9 -20 -20 -20 -20 -20 -20 -20 -20 -20 -20 -18 -19 -8 -19 -20 -20 -20 -20 -20 -20 -20 -20 -20 -20 -20 -20 -20 -20 -20 -20 -20 -20 -20 -20 -20 -20 -20 -20 -20 -20 -20 -20 -17 -19 -20 -20
-20 -20 -20 -20 -20 -20 -20 8 -20 -20 -20 -20 -20 -20 -19 -20 -20 -20 -20 -20 -20 -20 -20 -20 -20 -20 -20 -20 -20 -20 -20 -20 -20 -20 -20 -20 -20 -20 -20 -20 -20 -20 -20 -20 -20 -20 -20 -20 -20 -20 -20 -20 -20 -20
-20 -20 -20 -20 -20 -20 -20 -10 -20 -20 -20 -20 -20 -20 -20 -20 -20 -20 -20 -20 -20 -20 -20 -20 -20 -18 -20 -20 -20 -20 -20 -20 -20 -20 -20 -20 -20 -20 -20 -20 -20 -20 -20 -20 -20 -20 -20 -20 -20 -20 -20 -20 -20 -20
-20 -20 -20 -20 -20 -20 -20 -20 -20 -20 -17 -20 -13 -20 -20 -20 -20 -20 -20 -20 -20 -20 -20 -20 -20 -20 -20 -20 -20 -20 -20 -20 -20 -20 -20 -20 -20 -20 -20 -20 -20 -20 -20 -20 -20 -20 -20 -20 -20 -20 -20 -20 -20 -20
-20 -20 -20 -20 -20 -20 -20 -20 -20 -20 -20 -11 -20 -20 -20 -20 -20 -20 -20 -20 -20 -20 -20 -20 -20 -20 -20 -20 -20 -20 -20 -20 -20 -20 -20 -20 -20 -20 -20 -20 -20 -20 -20 -20 -20 -20 -20 -20 -20 -20 -20 -20 -20 -20
-20 -20 -20 -20 -20 -20 -20 -20 -20 -20 -20 -20 -20 -20 -20 -20 -20 -20 -18 -20 -20 -20 -20 -20 -20 -20 -20 -20 -20 -20 -20 -20 -20 -20 -20 -20 -20 -20 -20 -20 -20 -20 -20 -20 -20 -20 -20 -20 -20 -20 -20 -20 -20 -20
-20 -20 -20 -20 -20 -20 -20 -20 -20 -20 -20 -20 -20 -20 -20 -20 -20 -20 -20 -14 -20 -20 -20 -20 -20 -20 -20 -20 -20 -20 -20 -20 -20 -20 -20 -20 -20 -20 -20 -20 -20 -20 -20 -20 -20 -20 -20 -20 -20 -20 -20 -20 -20 -20
-20 -20 -20 -20 -20 -20 -20 -20 -20 -20 -20 -20 -20 -20 -20 -20 -20 -20 -20 -20 -20 -20 -20 -20 -16 -20 -20 -20 -20 -20 -20 -20 -20 -20 -20 -20 -20 -20 -20 -20 -20 -20 -20 -20 -20 -20 -20 -20 -20 -20 -20 -20 -20 -20
-20 -20 -20 -20 -20 -20 -20 -20 -20 -20 -20 -20 -20 -20 -20 -20 -20 -20 -18 -20 -20 -20 -20 -20 -20 -20 -20 -20 -20 -20 -20 -20 -20 -20 -20 -20 -20 -20 -20 -20 -20 -20 -20 -20 -20 -20 -20 -20 -20 -20 -20 -20 -20 -20
-20 -20 -20 -20 -20 -20 -20 -20 -20 -20 -20 -20 -20 -20 -20 -20 -12 -18 -20 -20 -20 -20 -20 -20 -20 -20 -20 -20 -20 -20 -20 -20 -20 -20 -20 -20 -20 -20 -20 -20 -20 -20 -20 -20 -20 -20 -20 -20 -20 -20 -20 -20 -20 -20
-20 -20 -20 -20 -20 -20 -20 -20 -20 -20 -20 -20 -20 -20 -20 -20 -20 -20 -20 -20 -20 -20 -20 -20 -20 -20 -20 -20 -20 -20 -20 -20 -20 -20 -20 -20 -20 -20 -20 -20 -20 -20 -20 -20 -20 -20 -20 -20 -20 -20 -20 -20 -20 -20
-20 -20 -20 -20 -20 -20 -20 -20 -20 -20 -20 -20 -20 -20 -20 -3 6 -20 -20 -20 -20 -20 -20 -20 -20 -20 -20 -20 -20 -20 -20 -20 -20 -20 -20 -20 -20 -20 -20 -20 -20 -20 -20 -20 -20 -20 -20 -20 -20 -20 -20 -20 -20 -20
-20 -20 -20 -20 -20 -18 -20 -20 -20 -20 -20 -20 -20 -20 -20 -12 -16 -14 -20 -20 -20 -20 -20 -20 -20 -20 -20 -20 -20 -20 -20 -20 -20 -20 -20 -20 -20 -20 -20 -20 -20 -20 -20 -20 -20 -20 -20 -20 -20 -20 -20 -20 -20 -20
-20 -20 -20 -20 -19 -20 -20 -20 -20 -20 -20 -20 -20 -20 -20 -20 -20 -20 -20 -20 -20 -20 -20 -20 -20 -20 -20 -20 -20 -20 -20 -20 -20 -20 -20 -20 -20 -20 -20 -20 -20 -20 -20 -20 -20 -20 -20 -20 -20 -20 -20 -20 -20 -20
-20 -20 -20 -20 -20 -20 -20 -20 -20 -20 -20 -20 -20 -20 -20 -20 -20 -20 -20 -20 -20 -20 -20 -20 -20 -20 -20 -20 -20 -20 -20 -20 -20 -20 -20 -20 -20 -20 -20 -20 -20 -20 -20 -20 -20 -20 -20 -20 -20 -20 -20 -20 -20 -20

GFSWCAN_prec_radar_087.txt.gz
Reflectivity
12 12 11 -18 -20 8 16 -20 -20 -20 -20 -14 8 -20 -20 1 -1 14 19 -8 13 -20 -20 -20 -20 -20 -20 -20 -20 -20 -20 -20 -20 -20 -20 -20 -20 -20 -20 -20 -20 -20 -20 -20 -20 -6 -15 -20 -20 -20 -20 -20 -1 18
0 -9 10 -20 -9 17 6 -20 -20 -20 -20 13 9 -20 -20 -20 -1 21 22 13 8 25 -20 -20 -20 -20 -20 -20 -20 -20 -20 -20 13 15 5 -18 -20 -20 -20 -20 -20 -19 -20 12 2 -20 -17 -19 -20 -20 -20 -20 10 10
12 -2 6 -20 4 13 -20 -20 -20 -13 3 8 5 -20 -20 -20 -20 21 26 22 24 22 -16 -20 -19 -20 -20 -20 -20 -20 -20 -20 -20 14 27 22 -20 -19 -20 -20 -20 -19 2 15 38 14 5 0 -20 -20 -20 -20 -19 -15
11 2 -8 18 16 -20 -20 -20 -10 7 12 14 1 -8 -20 -12 -8 24 26 15 2 16 -13 -20 -20 -20 -20 -20 -20 -20 -20 -20 3 3 19 7 -19 -20 -20 -20 4 17 15 32 32 27 30 26 13 13 -9 -15 -12 -13
-11 4 11 15 -14 -20 -9 -10 0 18 21 11 6 1 -13 24 24 26 15 20 9 12 -7 -20 -20 -20 -20 -20 -20 -20 -20 -9 -19 7 12 -20 -20 -0 -11 7 -16 22 2 10 15 27 35 19 28 21 14 22 7 9
-11 -20 11 13 -20 -20 -19 2 20 14 -12 -20 -20 -20 -17 27 22 20 33 31 26 30 -19 -20 -20 -20 -20 -20 -20 -20 -20 -20 -10 28 0 -20 -19 21 -20 17 20 29 20 27 30 33 27 29 30 30 14 4 9 6
-17 15 6 -20 -16 -20 5 7 19 10 -20 14 -20 -20 15 20 1 20 -20 -20 19 6 13 -20 -20 -20 -20 -20 -20 -20 -20 -20 3 12 -18 -20 -20 4 -14 -19 -5 -7 2 -20 7 16 -3 -5 7 -20 -12 -3 -6 4
15 -14 -20 -11 -10 7 9 13 12 -20 -20 -20 13 17 18 16 25 21 -19 3 2 1 -18 -20 -20 -20 -18 -20 -7 -20 -20 -20 -3 23 -0 -2 5 6 -1 -12 -20 -20 -20 -20 -20 -20 -20 -20 -20 -20 -20 -20 -20 -18
8 -9 1 3 5 7 12 -2 1 -20 -20 -20 21 25 33 32 14 21 -4 7 3 -20 -19 -4 -19 -20 -18 -20 1 17 -20 -20 -20 -20 -20 -18 -19 -20 -20 -20 -20 -20 -20 -20 -20 -20 -20 -20 -20 -20 -20 -20 -20 -20
-20 -20 -19 5 7 11 8 1 -0 -13 -20 14 32 36 21 19 8 29 28 26 29 18 15 -13 -20 -17 13 -1 15 15 -4 -20 -6 -19 -20 -15 -20 -20 -20 -20 -20 -20 -20 -20 -20 -20 -20 -20 -20 -20 -20 -20 -20 -20
7 6 13 16 17 26 16 0 13 23 29 38 35 31 17 23 20 27 -11 -8 -20 -10 -18 -20 -20 -20 2 15 -20 -20 -16 -2 -7 -20 8 -4 -20 -20 -20 -20 -20 -20 -20 -13 -20 -20 -20 -20 -20 -20 -20 -20 -20 -20
26 20 24 10 14 -3 4 7 9 28 29 34 27 20 31 19 27 5 4 -9 -17 -20 -20 -20 8 -8 -6 29 -15 -20 -2 2 -20 23 4 -20 -14 -20 -20 -20 -20 -20 -20 -20 -20 -20 -20 -20 -20 -20 -20 -20 -20 -20
19 34 8 -2 -18 -20 16 22 35 32 20 28 16 26 8 18 18 -20 -19 -20 -20 -8 -11 4 -13 -20 -12 34 5 -20 -20 -18 -11 -5 -10 -20 -20 -20 -20 -20 -20 -20 -20 -20 -20 -20 -13 -20 -20 -20 -20 -20 -20 -20
35 23 18 21 27 17 16 21 25 33 25 17 23 18 16 -5 -20 -20 -20 -20 -20 -18 -18 -20 -19 -20 -20 -9 9 -18 -20 -20 -20 -20 -20 -20 -20 -20 -20 -20 -20 -20 -20 -20 -20 -20 -20 -20 -20 -20 -20 -20 -20 -20
34 20 25 11 28 19 24 33 34 35 24 8 -14 -17 -20 -20 -20 -20 -20 -20 0 -16 -14 -20 -20 -20 -20 -20 -20 -20 -20 -20 -20 -20 -20 -20 -20 -20 -20 -20 -20 -20 -20 -20 -20 -20 -20 -20 -20 -20 -20 -20 -20 -20
28 26 29 24 7 13 13 -19 -4 -4 -20 -5 -20 -12 -20 -20 -17 -20 -20 -20 -6 3 -19 -16 -18 -20 -20 -20 -20 -20 -20 -20 -20 -20 -20 -20 -20 -20 -20 -20 -20 -20 -20 -20 -20 -20 -20 -20 -20 -20 -20 -20 -20 -20
9 17 27 18 26 13 -18 13 21 12 -1 -19 -20 -20 -20 -20 -20 -20 -17 -19 -4 -14 -20 -20 -20 -20 -20 -20 -20 -20 -20 -20 -20 -20 -20 -20 -20 -20 -20 -20 -20 -20 -20 -20 -20 -20 -20 -20 -20 -20 -20 -20 -20 -20
13 -18 -9 8 3 16 24 18 -20 -20 -20 -18 6 -19 -20 -20 -20 -19 -10 12 -16 -20 -20 -20 -20 -20 -20 -20 -20 -20 -20 -20 -20 -20 -20 -20 -20 -20 -20 -20 -20 -20 -20 -20 -20 -20 -20 -20 -20 -20 -20 -20 -20 -20
-14 29 20 8 -7 -17 3 -13 -20 -20 -20 -17 -20 -20 -20 -20 -19 -20 -20 -16 -20 -20 -20 -20 -20 -20 -20 -20 -20 -20 -20 -20 -20 -20 -20 -20 -20 -20 -20 -20 -20 -20 -20 -20 -20 -20 -20 -20 -20 -20 -20 -20 -20 -20
2 6 2 -3 -17 -15 1 -18 -20 -20 -20 -20 -20 -20 -20 -20 -20 -20 -20 -20 -15 -20 -20 -20 -20 -20 -20 -20 -20 -20 -20 -20 -20 -20 -20 -20 -20 -20 -20 -20 -20 -20 -20 -20 -20 -20 -20 -20 -20 -20 -20 -20 -20 -20
-20 -20 -20 -20 -20 -20 -7 -20 -20 -20 -20 -20 -20 -20 -20 -20 -20 -20 -20 -20 -20 -20 -20 -20 -20 -20 -20 -20 -20 -20 -20 -20 -20 -20 -20 -20 -20 -20 -20 -20 -20 -20 -20 -20 -20 -20 -20 -20 -20 -20 -20 -20 -20 -20
-20 -20 -20 -20 -20 -1 -2 -20 -20 -20 -20 -20 -20 -20 -20 -20 -20 -20 -20 -20 -20 -20 -20 -20 -20 -20 -20 -20 -20 -20 -20 -20 -20 -20 -20 -20 -20 -20 -20 -20 -20 -20 -20 -20 -20 -20 -20 -20 -20 -20 -20 -20 -20 -20
-20 -20 -20 -16 -20 -20 -20 -20 -20 -20 -20 -20 -20 -20 -20 -20 -20 -20 -20 -20 -20 -20 -20 -20 -20 -20 -20 -20 -20 -20 -20 -20 -20 -20 -20 -20 -20 -20 -20 -20 -20 -20 -20 -20 -20 -20 -20 -20 -20 -20 -20 -20 -20 -20
-15 9 -3 -20 -20 -20 -20 -20 -20 -20 -20 -20 -20 -20 -20 -20 -20 -20 -20 -20 -20 -20 -20 -20 -20 -20 -20 -20 -20 -20 -20 -20 -20 -20 -20 -20 -20 -20 -20 -20 -20 -20 -20 -20 -20 -20 -20 -20 -20 -20 -20 -20 -20 -20
-20 -20 -20 -20 -20 -20 -20 -20 -20 -20 -20 -20 -20 -20 -20 -20 -20 -20 -20 -20 -20 -20 -20 -20 -20 -20 -20 -20 -20 -20 -20 -20 -20 -20 -20 -20 -20 -20 -20 -20 -20 -20 -20 -20 -20 -20 -20 -20 -20 -20 -20 -20 -20 -20
-20 -20 -20 -20 -20 -20 -20 -20 -20 -20 -20 -20 -20 -20 -20 -20 -20 -20 -20 -20 -20 -20 -20 -20 -20 -20 -20 -20 -20 -20 -20 -20 -20 -20 -20 -20 -20 -20 -20 -20 -20 -20 -20 -20 -20 -20 -20 -20 -20 -20 -20 -20 -20 -20
-20 -20 -20 -20 -20 -20 -20 -20 -20 -20 -20 -20 -20 -20 -20 -20 -20 -20 -20 -20 -20 -20 -20 -20 -20 -20 -20 -20 -20 -20 -20 -20 -20 -20 -20 -20 -20 -20 -20 -20 -20 -20 -20 -20 -20 -20 -20 -20 -20 -20 -20 -20 -20 -20
-20 -20 -20 -20 -20 -20 -20 -20 -20 -20 -20 -20 -20 -20 -20 -20 -20 -20 -20 -20 -20 -20 -20 -20 -20 -20 -20 -20 -20 -20 -20 -20 -20 -20 -20 -20 -20 -20 -20 -20 -20 -20 -20 -20 -20 -20 -20 -20 -20 -20 -20 -20 -20 -20
-20 -20 -20 -20 -20 -20 -20 -20 -20 -20 -20 -20 -20 -20 -20 -20 -20 -20 -20 -20 -20 -20 -20 -20 -20 -20 -20 -20 -20 -20 -20 -20 -20 -20 -20 -20 -20 -20 -20 -20 -20 -20 -20 -20 -20 -20 -20 -20 -20 -20 -20 -20 -20 -20
-20 -20 -20 -20 -20 -20 -20 -20 -20 -20 -20 -20 -16 -20 -20 -13 2 -19 -20 -20 -20 -20 -20 -20 -20 -20 -20 -20 -20 -20 -20 -20 -20 -20 -20 -20 -20 -20 -20 -20 -20 -20 -20 -20 -20 -20 -20 -20 -20 -20 -20 -20 -20 -20
-20 -20 -20 -20 -20 -20 -20 -20 -20 -20 -20 -20 -20 -20 -20 -16 -17 -20 -20 -20 -20 -20 -20 -20 -20 -20 -20 -20 -20 -20 -20 -20 -20 -20 -20 -20 -20 -20 -20 -20 -20 -20 -20 -20 -20 -20 -20 -20 -20 -20 -20 -20 -20 -20
-20 -20 -20 -20 -19 -20 -20 -20 -20 -20 -20 -20 -20 -20 -20 -20 -20 -20 -20 -20 -20 -20 -20 -20 -20 -20 -20 -20 -20 -20 -20 -20 -20 -20 -20 -20 -20 -20 -20 -20 -20 -20 -20 -20 -20 -20 -20 -20 -20 -20 -20 -20 -20 -20
-20 -20 -20 -20 -20 -20 -20 -20 -20 -20 -20 -20 -20 -20 -20 -20 -20 -20 -20 -20 -20 -20 -20 -20 -20 -20 -20 -20 -20 -20 -20 -20 -20 -20 -20 -20 -20 -20 -20 -20 -20 -20 -20 -20 -20 -20 -20 -20 -20 -20 -20 -20 -20 -20

GFSWCAN_prec_radar_093.txt.gz
Reflectivity
-20 -20 30 -13 -20 -20 -20 3 -20 -20 -14 13 -20 -20 -20 -20 -20 23 27 -20 11 -19 -20 -20 -20 -20 -20 -20 -20 -20 -20 -20 -20 -19 -15 -11 -20 -20 -20 -20 -20 -20 -20 -20 -19 -13 -20 -20 -20 -17 -1 -4 10 -4
-20 -14 10 -5 1 -20 -20 5 -20 -20 25 -18 -20 -20 -20 -20 -20 16 31 -18 8 26 -20 -20 -20 -20 -20 -20 -20 -20 -20 -20 -20 -20 -20 -20 -18 -20 -20 -20 -20 -0 9 7 -17 14 25 2 -1 12 -1 -2 16 20
-18 21 10 -18 1 -20 -20 -20 -20 -17 17 -20 -20 -20 -20 10 -20 10 16 -3 25 26 -12 -20 -20 -20 -20 -20 -20 -20 -20 -20 -20 -20 -20 -20 -3 -19 -20 -20 -20 -16 -12 1 4 20 10 20 2 3 3 19 20 9
-12 -20 -10 -20 -20 -20 -20 -20 -20 18 -17 -20 -20 -11 11 -20 13 -1 11 6 15 14 -13 -20 -20 -20 -20 -20 -20 -20 -20 -20 -20 -20 -10 -17 -13 -16 -16 -9 6 -20 -20 -20 21 18 19 -20 5 15 -2 0 -8 -10
-17 17 14 -19 -20 -20 -20 -20 -20 13 -20 -20 -20 -10 10 -11 1 19 14 -2 -1 13 -10 -20 -20 -20 -20 -20 -20 -20 -20 -20 -20 -20 6 -4 -20 1 10 2 -20 -10 -7 -12 -2 0 3 -3 -3 7 12 4 2 -7
20 20 -19 -20 14 -9 -20 8 17 -20 -20 -20 -20 -16 1 -16 19 27 21 -1 -2 20 36 -14 -18 -20 -20 -20 -20 -20 -20 -20 -20 1 23 25 -19 18 -20 -20 -20 5 2 18 12 25 3 -3 -11 -6 10 15 2 -20
11 1 15 11 -20 -20 -20 11 -8 -20 -20 -19 13 24 14 8 18 10 6 -20 15 15 29 5 -20 -20 -20 -20 -20 -20 -20 -20 -15 1 9 -15 -20 10 -13 -16 -20 -17 -20 -14 8 -3 -5 -18 -19 -20 -20 -20 -20 -20
-18 -20 13 -6 -20 -20 -20 16 -20 -20 -20 15 22 20 9 18 24 25 28 7 4 25 11 -19 -20 -20 -19 -20 -20 -20 -20 -20 -16 -15 -16 5 8 -19 -13 -20 -20 -20 -20 -20 -20 -20 -20 -20 -20 -20 -20 -20 -20 -20
-20 17 13 -20 -20 -20 13 4 -20 -20 -15 28 29 35 33 27 27 26 21 13 -3 -16 -20 -20 -20 -20 -6 -14 2 -5 -20 -19 -20 -13 -17 -20 -19 -13 -20 -20 -20 -20 -20 -20 -20 -20 -20 -20 -20 -20 -20 -20 -20 -20
4 16 13 -20 -20 17 13 -20 -20 -19 15 32 37 29 16 31 18 16 30 23 24 5 10 4 -20 -20 0 24 -16 3 -20 -9 -20 -20 -14 8 -20 -20 -20 -20 -20 -20 -20 -20 -20 -20 -20 -20 -20 -20 -20 -20 -20 -20
-19 -17 -8 -20 -18 14 -18 -3 0 4 33 32 32 30 6 23 13 24 -12 -7 -19 -9 -4 -20 -20 -20 -20 -2 -19 -20 -20 -20 -20 -20 -20 -19 -20 -20 -18 -20 -20 -20 -20 -20 -20 -20 -20 -20 -20 -20 -20 -20 -20 -20
6 9 7 12 4 -2 -8 -19 6 32 32 17 21 28 23 34 13 -12 -20 -6 -15 -20 -20 -20 -20 -20 -20 3 -17 -11 -20 -4 -19 -0 -9 -20 -20 -20 -20 -20 -20 -20 -20 -20 -20 -20 -20 -20 -20 -20 -20 -20 -20 -20
-16 -12 -15 -15 -16 -6 0 11 27 30 33 32 28 28 13 14 5 -20 -20 -14 -20 -20 -20 -20 11 -20 -20 14 14 -19 -16 -20 6 -19 -20 -20 -20 -20 -20 -20 -20 -20 -20 -20 -20 -20 -20 -20 -20 -20 -20 -20 -20 -20
-5 1 15 9 7 -5 -7 11 29 32 36 21 17 2 -20 -20 -20 -20 -20 -20 -20 -20 -20 -11 -18 -20 -19 -9 14 -20 -20 -20 -20 -20 -20 -20 -20 -20 -20 -20 -20 -20 -20 -20 -20 -20 -20 -20 -20 -20 -20 -20 -20 -20
-8 -8 -13 -8 -6 3 10 24 33 35 31 20 15 6 -18 -20 -20 -20 -20 -20 -20 -20 -20 -20 -20 -20 -20 -10 -20 -20 -20 -20 -20 -20 -20 -20 -20 -20 -20 -20 -20 -20 -20 -20 -20 -20 -20 -20 -20 -20 -20 -20 -20 -20
37 30 19 0 23 19 7 29 39 33 23 15 8 -19 -20 -20 -17 -20 -16 -20 -20 -20 -20 -20 -20 -20 -20 -20 -20 -20 -20 -20 -20 -20 -20 -20 -20 -20 -20 -20 -20 -20 -20 -20 -20 -20 -20 -20 -20 -20 -20 -20 -20 -20
28 32 31 16 16 20 26 24 31 25 17 -3 -20 -20 -20 -20 -20 -20 -20 -20 -20 -20 -20 -20 -20 -20 -20 -20 -20 -20 -20 -20 -20 -20 -20 -20 -20 -20 -20 -20 -20 -20 -20 -20 -20 -20 -20 -20 -20 -20 -20 -20 -20 -20
22 31 20 15 -1 12 34 32 9 2 21 -2 -20 -20 -20 -20 -20 -20 -20 -18 -18 -20 -20 -20 -20 -20 -20 -20 -20 -20 -20 -20 -20 -20 -20 -20 -20 -20 -20 -20 -20 -20 -20 -20 -20 -20 -20 -20 -20 -20 -20 -20 -20 -20
19 22 27 25 17 13 20 17 -20 -20 -17 -19 -7 -18 -20 -20 -20 -20 -20 -20 -20 -19 -20 -20 -20 -20 -20 -20 -20 -20 -20 -20 -20 -20 -20 -20 -20 -20 -20 -20 -20 -20 -20 -20 -20 -20 -20 -20 -20 -20 -20 -20 -20 -20
26 26 15 8 1 2 6 19 10 -19 -20 -16 -20 -20 -20 -20 -20 -20 -20 -19 -20 -20 -20 -20 -20 -20 -20 -20 -20 -20 -20 -20 -20 -20 -20 -20 -20 -20 -20 -20 -20 -20 -20 -20 -20 -20 -20 -20 -20 -20 -20 -20 -20 -20
7 3 -7 -2 7 20 -20 -20 -20 -20 -20 15 -0 -20 -20 -20 -20 -18 -20 -20 -18 -17 -20 -20 -20 -20 -20 -20 -20 -20 -20 -20 -20 -20 -20 -20 -20 -20 -20 -20 -20 -20 -20 -20 -20 -20 -20 -20 -20 -20 -20 -20 -20 -20
-20 -20 -20 -20 -20 -20 -20 -20 -20 -20 -20 -20 -20 -20 -20 -20 -20 -20 -20 -20 -20 -20 -20 -20 -20 -20 -20 -20 -20 -20 -20 -20 -20 -20 -20 -20 -20 -20 -20 -20 -20 -20 -20 -20 -20 -20 -20 -20 -20 -20 -20 -20 -20 -20
-7 -16 -5 7 2 -14 -19 -20 -20 -20 -20 -20 -20 -20 -20 -20 -20 -20 -20 -20 -20 -20 -20 -20 -20 -20 -20 -20 -20 -20 -20 -20 -20 -20 -20 -20 -20 -20 -20 -20 -20 -20 -20 -20 -20 -20 -20 -20 -20 -20 -20 -20 -20 -20
-20 -20 -20 -20 -20 -20 -20 -20 -20 -20 -20 -20 -20 -20 -20 -20 -20 -20 -20 -20 -20 -20 -20 -20 -20 -20 -20 -20 -20 -20 -20 -20 -20 -20 -20 -20 -20 -20 -20 -20 -20 -20 -20 -20 -20 -20 -20 -20 -20 -20 -20 -20 -20 -20
-20 -20 -20 -20 -20 -20 -20 -20 -20 -20 -20 -20 -20 -20 -20 -20 -20 -20 -20 -20 -20 -20 -20 -20 -20 -20 -20 -20 -20 -20 -20 -20 -20 -20 -20 -20 -20 -20 -20 -20 -20 -20 -20 -20 -20 -20 -20 -20 -20 -20 -20 -20 -20 -20
-20 -20 -20 -20 -20 -20 -20 -20 -20 -20 -20 -20 -20 -20 -20 -20 -20 -20 -20 -20 -20 -20 -20 -20 -20 -20 -20 -20 -20 -20 -20 -20 -20 -20 -20 -20 -20 -20 -20 -20 -20 -20 -20 -20 -20 -20 -20 -20 -20 -20 -20 -20 -20 -20
-20 -20 -20 -20 -20 -20 -20 -20 -20 -20 -20 -20 -20 -20 -20 -20 -20 -20 -20 -20 -20 -20 -20 -20 -20 -20 -20 -20 -20 -20 -20 -20 -20 -20 -20 -20 -20 -20 -20 -20 -20 -20 -20 -20 -20 -20 -20 -20 -20 -20 -20 -20 -20 -20
-20 -20 -20 -20 -20 -20 -20 -20 -20 -20 -20 -20 -20 -20 -20 -20 -20 -20 -20 -20 -20 -20 -20 -20 -20 -20 -20 -20 -20 -20 -20 -20 -20 -20 -20 -20 -20 -20 -20 -20 -20 -20 -20 -20 -20 -20 -20 -20 -20 -20 -20 -20 -20 -20
-20 -20 -20 -20 -20 -20 -20 -20 -20 -20 -20 -20 -20 -20 -20 -20 -20 -20 -20 -20 -20 -20 -20 -20 -20 -20 -20 -20 -20 -20 -20 -20 -20 -20 -20 -20 -20 -20 -20 -20 -20 -20 -20 -20 -20 -20 -20 -20 -20 -20 -20 -20 -20 -20
-20 -20 -20 -20 -20 -20 -20 -20 -20 -20 -20 -20 -20 -20 -20 -20 -20 -20 -20 -20 -20 -20 -20 -20 -20 -20 -20 -20 -20 -20 -20 -20 -20 -20 -20 -20 -20 -20 -20 -20 -20 -20 -20 -20 -20 -20 -20 -20 -20 -20 -20 -20 -20 -20
-20 -20 -20 -20 -20 -20 -20 -20 -20 -20 -20 -20 -20 -20 -20 -20 -20 -19 -20 -20 -20 -20 -20 -20 -20 -20 -20 -20 -20 -20 -20 -20 -20 -20 -20 -20 -20 -20 -20 -20 -20 -20 -20 -20 -20 -20 -20 -20 -20 -20 -20 -20 -20 -20
-20 -20 -20 -20 -20 -20 -20 -20 -20 -20 -20 -20 -20 -20 -20 -20 -20 -20 -19 -20 -20 -20 -20 -20 -20 -20 -20 -20 -20 -20 -20 -20 -20 -20 -20 -20 -20 -20 -20 -20 -20 -20 -20 -20 -20 -20 -20 -20 -20 -20 -20 -20 -20 -20
-20 -20 -20 -20 -20 -20 -20 -20 -20 -20 -20 -20 -20 -20 -20 -20 -20 -20 -20 -20 -20 -20 -20 -20 -20 -20 -20 -20 -20 -20 -20 -20 -20 -20 -20 -20 -20 -20 -20 -20 -20 -20 -20 -20 -20 -20 -20 -20 -20 -20 -20 -20 -20 -20

GFSWCAN_prec_radar_096.txt.gz
Reflectivity
17 17 12 13 -20 -20 -20 -20 1 -20 -20 -14 9 -20 -20 -20 -20 14 22 10 -7 -7 -12 -20 -20 -20 -20 -20 -20 -20 -4 -20 -20 1 2 7 12 10 12 10 14 8 9 6 -7 -16 -7 -13 -20 -16 7 1 -18 -1
-0 -10 -19 18 19 -13 -20 -20 -20 -20 -20 -14 15 -20 -20 -20 -20 17 19 23 15 19 -1 -20 -20 -20 -20 -20 -20 -20 -19 -20 7 10 5 -18 -0 -20 -13 15 5 17 1 11 2 -0 13 4 3 5 3 -4 12 16
15 10 -12 -19 12 -7 -18 -20 -20 -4 -20 4 2 -20 -20 -20 -20 -9 17 30 15 10 -6 -3 -20 -20 -20 -20 -20 -20 -20 -20 12 -18 4 4 11 -2 2 -1 -7 1 -20 15 15 2 -11 7 4 3 2 -7 17 16
10 2 -15 -3 -11 6 -10 -20 -20 -20 -20 19 11 -20 -20 -20 -20 15 19 -18 5 1 3 -20 -20 -20 -20 -20 -20 -20 -20 -20 3 -5 7 -5 -8 -15 15 10 4 -16 -8 -12 6 10 -9 -10 -1 2 -3 -7 -18 -18
17 13 -20 -20 -15 -20 -20 -13 -20 -20 -20 5 -20 -20 -20 -13 -20 13 19 14 1 -9 6 8 -20 -20 -20 -20 -20 -20 -20 -20 6 4 6 18 13 7 19 12 1 -6 -2 5 -2 -10 -10 -1 0 -1 -17 -20 -20 -20
-8 19 -20 -16 -4 9 -20 -20 -20 -20 -20 -19 -20 -20 -20 13 8 18 26 5 11 19 14 14 -20 -20 -20 -20 -20 -20 -20 3 5 4 12 26 -1 19 12 -19 0 3 -3 13 2 7 -4 -5 0 -9 -12 -20 -20 -20
-10 16 17 12 -12 -20 8 -15 -20 -20 13 -20 -20 -20 -20 -20 22 21 8 3 6 6 30 16 5 3 -20 -20 -20 -20 -15 4 3 6 9 1 20 16 3 0 -20 -5 -5 -7 1 5 -18 -9 -15 -20 -20 -20 -20 -20
17 -20 -20 14 -11 -20 -1 -20 -20 12 -20 -20 -20 16 26 16 14 21 10 5 4 25 25 13 -20 -11 -20 10 10 1 2 -14 10 13 -5 2 19 16 10 -20 -20 -20 -20 -20 -20 -20 -20 -20 -20 -20 -20 -20 -20 -20
18 -17 -11 -20 8 -20 -20 -20 -20 7 -20 -20 12 30 30 30 25 6 5 24 19 6 12 -8 2 21 -5 -1 -10 9 5 1 19 13 7 14 10 4 -18 -20 -20 -20 -20 -20 -20 -20 -20 -20 -20 -20 -20 -20 -20 -20
-9 -20 -19 6 -20 -20 -20 -20 -6 -20 -2 7 33 35 17 1 26 24 35 32 32 14 10 -5 -2 10 6 7 10 7 16 20 12 3 2 10 6 -20 -20 -20 -20 -20 -20 -20 -10 -8 -20 -20 -20 -20 -20 -20 -20 -20
-14 -20 5 0 -20 -20 -20 17 -20 -3 16 33 37 32 17 17 21 19 4 6 3 9 -6 -8 -10 8 -13 17 13 -18 15 16 12 10 8 8 0 -11 -15 -20 -20 -20 -20 -20 -20 -20 -20 -20 -9 -20 -20 -20 -20 -20
14 -17 -20 -9 -20 -20 -9 9 -1 15 24 13 34 24 30 32 19 2 1 5 -12 -20 -9 -20 -18 5 11 -10 19 -10 -9 4 2 -11 9 9 -20 -12 -8 -20 -20 -20 -20 -20 -20 -20 -20 -20 -20 -20 -20 -3 -5 -14
-17 -15 -14 -19 -0 -20 13 5 -18 1 32 34 31 30 22 2 7 -18 -16 -10 -6 -20 3 -2 4 9 -13 1 26 8 -10 -0 3 15 13 -19 -5 -7 -20 -20 -20 -20 -20 -20 -20 -20 -20 -20 -20 -20 -20 -20 -20 -20
-18 -10 14 8 12 17 7 -20 3 29 36 35 16 12 3 -15 -20 -20 -20 -20 -20 -20 1 -6 -18 -18 -17 3 18 8 5 -3 2 5 -0 -5 -2 -6 -20 -20 -20 -20 -20 -20 -20 -20 -20 -20 -20 -20 -20 -20 -20 -20
-20 -16 -17 -20 18 17 14 12 17 37 35 19 16 6 -14 -20 -20 -20 -15 -20 -17 0 -16 8 -10 11 -4 2 -5 -20 -14 -6 -9 -1 -17 -1 -1 -20 -20 -20 -20 -20 -20 -20 -20 -20 -20 -20 -20 -20 -20 -20 -20 -20
8 11 17 -6 11 17 13 17 35 31 34 -17 -20 -20 -12 -20 -3 1 3 -0 -20 -19 -20 -9 -20 -20 -1 -14 -3 -20 -8 -20 -20 -18 -1 -2 -20 -20 -20 -20 -20 -20 -20 -20 -20 -20 -20 -20 -20 -20 -20 -20 -20 -20
9 7 -20 -20 -0 5 19 34 32 14 -7 -20 -20 -20 -4 -11 -5 -20 -20 -4 -20 10 14 -19 -20 -4 -20 -20 -20 -20 -20 -20 -20 0 2 -5 -20 -20 -20 -20 -20 -20 -20 -20 -20 -20 -20 -20 -20 -20 -20 -19 -20 -20
28 17 12 -3 2 31 40 30 14 -6 -20 -3 -9 -3 -20 -20 -6 -19 -18 -20 -19 -20 -20 -20 -20 -20 -20 -20 -20 -20 -20 -1 1 1 -1 -20 -20 -20 -20 -20 -20 -20 -20 -20 -20 -20 -20 -20 -20 -4 -20 -17 -20 -19
34 14 26 29 33 32 23 22 12 -20 -2 -5 -2 -20 -14 -20 -20 -20 -20 -20 -20 -20 -20 -20 -20 -20 -20 -20 -20 -20 -13 -20 -11 -2 -16 -20 -20 -20 -20 -20 -20 -20 -20 -20 -12 -1 -2 -5 -2 0 1 0 1 4
31 22 29 37 32 21 14 15 6 -11 -15 0 -20 -20 -20 -20 -20 -19 -17 -18 -18 -19 -20 -20 -20 -20 -20 -20 -20 -20 -20 -20 -20 -20 -2 -1 -10 -20 -7 -20 -9 -1 -7 0 1 -14 -0 -0 -4 -20 -15 -15 -2 3
24 31 12 -20 -20 -20 -17 -20 -20 -20 -3 -15 -20 -20 -20 -20 -20 -19 -13 -16 -17 -20 -20 -20 -20 -20 -20 -20 -20 -20 -20 -20 -20 -20 -20 -2 -2 -4 -20 -2 1 0 1 1 2 3 -9 3 1 -20 0 2 -20 -2
-20 -20 -10 -19 -17 -5 17 -15 -20 -20 -2 2 -18 -20 -16 -18 -19 -18 -19 -17 -20 -20 -20 -20 -20 -20 -20 -20 -20 -20 -20 -20 -20 -20 -20 -20 -20 -2 -0 1 1 2 2 3 3 4 3 -0 -6 -17 -1 2 -15 -0
-20 -20 -20 8 3 -20 -19 -3 -20 -20 -20 -19 -19 -20 -20 -20 -20 -20 -20 -20 -20 -20 -20 -20 -20 -20 -20 -20 -20 -20 -20 -20 -20 -20 -20 -20 -20 -9 -20 -20 -11 -10 -1 -3 -19 -0 0 -19 -20 -20 -14 -9 3 5
15 18 23 18 -8 -20 -20 -3 -20 -20 -16 -20 -20 -20 -20 -20 -20 -20 -20 -20 -4 -2 -20 -20 -20 -20 -20 -20 -20 -20 -20 -20 -20 -20 -20 -20 -20 -20 -20 -20 -20 -20 -20 -20 -20 -20 -20 -4 -20 -4 -3 1 2 1
-20 -20 -1 1 -20 -20 -20 -20 -20 -20 -20 -20 -20 -20 -20 -20 -20 -20 -20 -14 -3 -0 -7 -20 -20 -20 -20 -20 -20 -20 -20 -20 -20 -20 -20 -20 -20 -20 -20 -20 -20 -20 -20 -5 2 1 3 -18 -2 0 2 2 0 -1
-20 -20 -20 -20 -20 -20 -20 -20 -20 -20 -20 -20 -20 -20 -20 -20 -20 -20 -20 -9 1 -6 0 -13 -20 -20 -20 -20 -20 -20 -20 -20 -20 -20 -20 -20 -20 -20 -20 -20 -20 -20 -20 -20 -19 -20 -20 -20 -20 -16 -2 -1 -14 -20
-20 -20 -20 -20 -20 -20 -20 -20 -20 -20 -20 -20 -20 -20 -20 -20 -20 -20 -20 -19 -20 -20 -20 -20 -20 -20 -20 -20 -20 -20 -20 -20 -20 -20 -20 -20 -20 -20 -20 -20 -20 -18 -20 -20 -20 -20 -20 -20 -20 -20 -13 -2 -2 -1
-20 -20 -20 -20 -20 -20 -20 -20 -20 -20 -20 -20 -20 -20 -20 -20 -20 -0 -15 -20 -20 -20 -20 -20 -20 -20 -20 -20 -20 -20 -20 -20 -20 -20 -20 -20 -20 -20 -20 -20 -20 -20 -20 -20 -20 -20 -20 -6 -5 -6 -6 -8 -18 -4
-20 -20 -20 -20 -20 -20 -20 -20 -20 -20 -20 -20 -20 -20 -20 -20 -20 -8 -20 -20 -20 -20 -20 -20 -20 -20 -20 -20 -20 -20 -20 -20 -20 -20 -20 -20 -20 -20 -20 -20 -20 -20 -20 -20 -20 -18 -3 -4 -4 -6 -20 -20 -20 -20
-20 -20 -20 -20 -20 -20 -4 -15 -6 -20 -20 -20 -20 -18 -20 -17 -10 -5 -3 -6 -20 -20 -20 -20 -20 -20 -20 -20 -20 -20 -20 -20 -20 -20 -20 -20 -20 -20 -20 -20 -20 -20 -20 -20 -20 -20 -20 -20 -20 -20 -20 -20 -20 -20
-20 -20 -20 -20 -15 -1 -14 -20 -20 -20 -20 -20 -20 -20 -20 -20 -19 -19 -20 -20 -20 -20 -20 -20 -20 -20 -20 -20 -20 -20 -20 -20 -20 -20 -20 -20 -20 -20 -20 -20 -20 -20 -20 -20 -20 -20 -20 -20 -20 -20 -20 -20 -20 -20
-20 -20 -20 -20 -12 -20 -20 -20 -20 -20 -19 -7 -20 -20 -20 -20 -20 -20 -20 -20 -20 -20 -20 -20 -20 -20 -20 -20 -20 -20 -20 -20 -20 -20 -20 -20 -20 -20 -20 -20 -20 -20 -20 -20 -20 -20 -20 -20 -20 -20 -20 -20 -20 -20
-20 -20 -20 -20 -20 -20 -20 -20 -20 -20 -20 -20 -20 -20 -20 -20 -20 -20 -19 -20 -19 -20 -20 -20 -20 -20 -20 -20 -20 -20 -20 -20 -20 -20 -20 -20 -20 -20 -20 -20 -20 -20 -20 -20 -20 -20 -20 -20 -20 -20 -20 -20 -20 -20

GFSWCAN_prec_radar_099.txt.gz
Reflectivity
-13 9 16 15 14 15 -20 -20 -20 -20 -20 -16 -9 9 -20 -20 -20 -5 2 -4 8 8 -1 1 9 5 2 -2 7 -20 -1 -13 -2 4 5 3 10 -2 10 -8 3 15 9 7 12 0 8 -13 -20 -16 3 6 3 1
-17 -20 2 12 4 -20 -20 -20 -20 -20 -20 -20 -18 -17 -20 -20 -20 -20 19 3 17 8 -17 -17 -20 -20 -19 -19 9 -20 -17 9 4 8 8 -1 11 -11 -4 26 -2 18 9 13 6 5 5 0 2 2 3 -1 15 4
14 14 17 10 16 10 -20 -20 -20 -2 2 -20 -20 12 -20 -20 -20 -20 19 1 18 27 -19 -16 -14 -20 -20 -20 -20 2 -15 10 2 -18 -5 -3 7 16 20 10 3 0 -10 12 3 7 1 -4 -1 -3 3 1 8 -3
17 11 -17 -18 10 -5 2 -20 -20 -20 2 -20 -20 -20 -20 -20 -20 -20 15 10 7 11 11 21 -20 -20 -20 -20 -20 -20 -16 -20 -20 19 -6 -5 0 21 15 13 6 -19 -12 -5 2 4 -11 -13 -11 -18 -20 -20 -20 -20
16 14 -5 -20 -20 -20 -20 -20 -20 -12 1 -20 -20 11 -11 -20 -20 -12 19 17 16 19 15 -2 -17 -20 -20 -20 -20 -20 -5 2 -3 6 18 7 16 13 18 18 -2 -20 -1 8 6 2 1 -1 1 -10 -20 -20 -20 -20
15 14 17 13 11 12 -19 6 -20 5 5 -20 10 -20 -20 -20 -20 18 13 14 5 16 18 15 21 -20 -20 -20 -20 -19 3 5 6 4 -10 -6 -20 19 15 14 -19 3 0 5 12 3 -19 0 4 -4 -20 -20 -20 -20
16 14 9 14 10 3 6 -20 3 6 -20 -20 -8 -20 -20 -6 19 18 19 33 6 13 -1 16 20 -20 -20 3 5 7 -20 -15 -0 3 9 17 18 17 -11 16 -20 -20 -20 -17 10 5 -2 -3 -20 -20 -20 -20 -20 -20
11 -20 2 19 10 14 12 -20 -14 -6 -20 -20 -20 -20 -20 -20 2 12 -1 22 16 18 12 17 17 8 -20 3 14 -5 -5 -16 -10 16 -1 16 17 22 20 -20 -20 -20 -20 -20 -20 -20 -20 -20 -20 -20 -20 -20 -20 -20
12 -5 14 6 -13 -11 6 5 14 -20 -20 -20 -9 7 20 30 30 14 10 -3 4 25 26 9 11 22 3 12 -6 15 -0 -0 19 17 0 19 17 20 -12 -20 -20 -20 -16 -20 -20 -20 -20 -20 -20 -20 -20 -20 -20 -20
14 14 14 14 16 17 -20 -20 -20 -19 5 -11 13 33 19 14 22 12 33 25 22 31 18 -6 -1 19 2 14 3 -17 10 18 21 14 11 7 -2 -20 -20 -20 -20 -20 -20 -20 -20 -19 -20 -20 -20 -20 -20 -20 -20 -14
-13 13 6 -20 -8 13 7 -20 3 -2 7 16 27 26 21 21 29 31 14 13 10 11 -6 -7 -17 19 9 6 20 11 22 22 16 17 8 10 5 -5 -20 -20 -20 -20 -20 -20 -20 -20 -20 -20 -20 -20 -20 -20 -8 -9
16 16 -20 -20 -3 0 -20 -20 17 5 -4 -2 15 32 28 30 31 11 7 7 1 1 0 -12 -9 13 19 -2 23 7 -5 17 13 3 10 9 -3 -20 -20 -20 -20 -20 -20 -20 -20 -20 -20 -20 -20 -20 -20 -11 -13 -10
13 -17 13 15 -1 -18 -1 10 -14 9 -0 25 38 34 29 15 16 6 4 0 -1 -4 -2 -3 9 8 -5 1 -0 13 -8 14 11 13 20 -3 -18 -20 -20 -20 -20 -20 -20 -20 -20 -20 -20 -20 -20 -9 -8 -5 -3 -17
16 -6 19 21 13 -20 -19 9 10 14 34 28 29 17 10 -14 3 -18 -20 -16 4 -5 -3 -12 -6 9 -10 3 23 16 13 -17 16 13 15 -14 -4 -18 -20 -20 -20 -20 -20 -20 -7 -20 -20 -20 -20 -20 -20 -20 -20 -20
-12 -20 -20 -20 -12 -20 -20 15 17 12 35 21 34 12 -11 -1 -14 -3 -20 -6 -17 -0 5 7 0 8 6 12 9 15 8 7 -11 15 -1 -2 -3 -13 -20 -20 -20 -20 -20 -14 -14 -20 -20 -20 -20 -20 -16 -3 -20 -20
-20 12 15 -7 2 -2 19 14 18 30 32 30 5 -5 -5 -10 -12 2 6 -5 -20 -4 5 15 -9 -10 -15 -2 4 -9 14 13 1 -0 0 -2 -5 -8 -20 -20 -20 -20 -4 -3 -11 -10 -11 -6 -6 -1 -3 -1 -13 -20
15 5 -20 5 14 17 15 -5 33 29 24 6 -20 -20 3 2 8 4 -16 -12 -20 -1 8 8 -16 -18 -18 -10 0 -0 -5 -3 -4 1 2 -19 -18 -20 -20 -20 -20 -6 -3 -5 -3 -3 -5 -3 -4 -18 -7 -15 2 -5
11 -3 -19 -20 20 21 -5 30 15 11 -20 -9 -20 -3 -5 -19 1 3 1 5 1 11 2 11 -20 -16 -1 18 11 -19 -3 -4 -16 3 -6 -4 -3 -20 -16 -4 -3 -0 -0 -2 -2 -1 -4 -4 -3 4 -20 -14 -7 -14
2 -7 -20 -18 14 3 -1 5 9 -10 -1 -2 -20 -8 -20 -6 -17 -19 -10 -20 -20 -20 -20 -20 -9 17 -1 -20 -2 -4 -2 -1 1 -4 -6 -8 -1 -3 -2 -2 -2 -1 -1 0 -0 -1 -3 -12 -11 -7 -3 -3 -1 0
9 8 10 11 -8 -20 -20 -14 -20 -17 -18 -12 -15 -4 -20 -8 -11 1 -20 -20 -20 -20 -4 1 -7 -5 -3 -16 -11 -3 -16 -17 -15 -14 -1 -0 -3 -8 -2 -10 0 -13 -2 -7 -1 -15 -4 -4 -13 -9 -13 -20 -5 1
32 20 12 17 27 1 -20 -20 -20 -14 -6 -20 -20 -20 -19 -2 -1 -1 -5 -20 -8 -20 -20 -20 -3 -20 -20 -20 -20 -20 -20 -20 -20 -20 -20 -1 0 -3 -3 -3 -1 -1 2 3 4 3 -13 2 0 -5 2 4 4 2
35 32 31 11 20 16 -8 -19 -20 -20 -2 2 -5 -20 4 2 2 -1 -20 -20 -20 -20 -20 -20 -20 -20 -20 -20 -20 -20 -20 -20 -20 -20 -20 -20 -2 -1 -1 -2 -1 3 1 5 3 3 5 -0 -7 1 3 4 2 1
22 36 34 25 9 -9 -5 -5 -5 -20 -1 5 -4 -9 -2 -2 -17 -20 -19 -20 -20 -20 -20 -20 -20 -20 -20 -20 -20 -20 -20 -20 -20 -20 -17 -5 -5 -2 -3 -3 -3 -2 -1 -5 -13 -12 -1 -19 -12 -10 1 1 3 4
-17 -19 -16 9 -20 5 12 10 -20 -13 2 5 1 -9 -16 -4 -19 -20 -6 -20 -20 -20 -20 -20 -20 -20 -20 -20 -20 -20 -20 -20 -20 -20 -20 -20 -20 -20 -20 -20 -20 -20 -20 -20 -20 -2 1 3 -18 2 4 3 3 3
9 12 6 -11 -20 -0 1 -0 -2 -5 2 -2 -20 -2 -3 -20 -12 -20 -18 -20 -4 -20 -19 -20 -20 -20 -20 -20 -20 -20 -20 -20 -20 -20 -20 -20 -20 -20 -20 -20 -20 -20 -20 -6 3 2 2 2 2 3 0 -1 1 0
15 -6 13 -1 -5 -4 -6 -20 -20 -20 -20 -9 -15 -20 -20 -16 -20 -20 -20 -20 0 -2 -3 0 -20 -20 -20 -20 -20 -20 -20 -20 -20 -20 -20 -20 -20 -20 -20 -20 -20 -14 -20 -4 -1 -2 -8 -20 -20 -20 -20 -3 -14 -17
-20 -3 -20 -20 -20 -20 -14 -20 -20 -20 -20 -20 -13 -13 -20 -20 -20 -20 -10 -4 3 -10 -12 -14 -20 -20 -20 -20 -20 -20 -20 -20 -20 -20 -20 -20 -20 -20 -20 -20 -20 -20 -20 -20 -20 -20 -20 -20 -20 -16 -11 -2 -0 0
-20 -20 -20 -20 -20 -20 -20 -20 -20 -20 -6 -20 -12 -20 -20 -20 -20 4 1 -14 11 -6 -19 -20 -20 -20 -20 -20 -20 -20 -20 -20 -20 -20 -20 -20 -20 -20 -20 -20 -20 -20 -20 -20 -18 -20 -19 -5 -4 -5 -4 -4 -5 -2
-13 -20 -20 -20 -20 -20 -20 -20 -20 -16 -20 -20 -13 -20 -7 -13 0 5 2 8 -19 -20 -20 -20 -3 -20 -20 -20 -20 -20 -20 -20 -20 -20 -20 -20 -20 -2 -20 -20 -20 -20 -20 -7 -20 -20 -20 -20 -6 -8 -20 -8 -4 -1
-20 -20 -20 -20 -20 -20 -1 -2 -0 1 -20 -10 -20 -20 -1 2 0 5 3 9 5 2 -20 -20 -20 -20 -20 -20 -11 -9 -13 -20 -20 -20 -20 -20 -20 -10 -4 -20 -20 -20 -20 -20 -20 -20 -20 -20 -20 -14 -8 -20 -10 -11
-20 -20 -20 -20 -6 1 1 2 1 1 -0 -7 -18 -10 -0 1 -1 -8 -4 -1 -7 -2 -16 -6 -2 -8 -20 -20 -20 -20 -20 -20 -20 -20 -20 -20 -20 -20 -20 -20 -20 -20 -20 -20 -20 -20 -20 -20 -20 -20 -20 -20 -20 -20
-20 -20 -20 -20 -3 2 -0 6 1 1 2 1 1 -2 -1 3 -3 -3 -19 -3 -0 2 -19 -19 -20 -0 -20 -20 -20 -20 -20 -20 -20 -20 -20 -20 -20 -20 -20 -20 -20 -20 -20 -20 -20 -20 -20 -20 -20 -20 -20 -20 -20 -20
-7 -12 -20 -4 -0 0 -0 -0 -16 -1 -1 1 1 -17 -3 -2 -3 -2 -4 -9 7 -0 -4 -19 -20 -20 -20 -20 -20 -20 -20 -20 -20 -20 -20 -20 -20 -20 -20 -20 -20 -20 -20 -20 -20 -20 -20 -20 -20 -20 -20 -20 -20 -20

GFSWCAN_prec_radar_105.txt.gz
Reflectivity
19 14 13 -3 -15 7 14 -3 13 -17 -20 -20 8 -20 -20 -20 -20 -20 -3 -20 -16 -20 -20 -20 -20 -20 -20 -20 -20 -20 -20 -20 -20 -20 -20 -20 -20 -18 1 3 4 -20 -14 -20 -20 -20 -20 -20 -20 -19 11 20 14 3
27 27 15 10 -18 -18 -20 -16 -9 1 -20 -20 -20 -15 -20 -20 -20 -20 -20 -20 -20 -20 -20 -20 -20 -20 -20 -20 -20 -20 -20 4 -17 -20 -20 -20 -20 -20 -19 -1 -20 -13 -19 -20 -6 -12 -3 0 7 5 3 2 24 6
31 27 18 -17 -4 -20 -20 -20 -20 -2 -20 11 -20 -20 -20 -20 -20 -20 4 -20 -20 -10 -20 -20 -20 -20 -20 -20 -20 -20 -20 -15 -20 -20 -20 -20 -20 -20 -6 10 16 -12 -8 -20 -10 6 -17 2 2 -1 11 -11 -20 -20
23 24 18 -7 14 -20 -20 6 -20 -20 -20 -20 -4 -10 -20 -20 -20 -20 -20 -20 -13 -20 -20 -15 -20 -20 -20 -20 -20 -20 -20 -20 -20 -20 -20 -20 -20 -14 -8 12 -20 -20 -17 -20 0 -15 -20 -20 -7 -5 -20 -20 -20 -20
17 16 19 1 14 14 8 -8 -20 -6 -20 -6 -20 -13 -20 -20 -20 -20 -20 -20 -20 5 -1 -20 -20 -20 -20 -20 -20 -20 -20 -20 -20 -20 -17 2 -20 -20 -20 -18 -20 -20 1 -18 -20 -0 -20 -18 -11 -20 -20 -20 -20 -20
14 19 8 1 -0 13 11 -19 -20 -20 -20 11 -20 6 -20 -20 -20 -20 -20 -20 -20 -20 -20 -20 -20 -20 -20 -20 -20 -20 -20 -20 -20 -20 -20 -20 4 -20 -20 -20 -7 -1 -20 -20 -20 -20 -20 -20 -20 -20 -20 -20 -20 -20
-8 11 12 2 16 5 -20 4 -20 -20 -20 10 -7 17 3 -20 -20 -16 3 18 -15 16 -2 -20 -20 -20 -20 -20 -20 -20 -20 -20 -20 -20 -20 -20 -20 -20 -20 -20 -2 -14 -19 -20 -19 -18 -15 -19 -20 -20 -20 -20 -20 -20
15 16 12 10 19 -2 -5 -9 -20 -20 -20 -10 7 -20 -20 -20 -20 -20 -19 27 7 -19 -20 -20 -20 -20 -20 -20 -20 -20 -20 -20 -20 -20 -20 -20 -20 -18 -7 -20 -4 -7 -15 -9 -20 -20 -20 -20 -20 -20 -20 -20 -20 -20
12 13 -12 1 13 -5 12 5 -20 -20 -1 -11 17 -20 -20 -20 -14 -19 6 -10 11 9 -11 -10 -20 -15 -13 -18 -20 -20 -20 -20 -20 -20 -20 -20 -20 -19 -4 -19 -20 -20 -20 -20 -20 -20 -20 -20 -20 -20 -20 -20 -20 -20
11 12 10 16 -19 14 7 3 -4 -20 -19 11 -20 -20 -20 -20 -20 8 -7 2 14 15 4 -15 -20 -20 -20 -20 -20 1 -20 -12 -17 -20 -20 -20 -20 -20 -20 -20 -20 -20 -20 -20 -20 -20 -20 -20 -20 -20 -20 -20 -20 -20
12 14 10 -10 -20 -20 -5 5 -12 7 18 -20 -20 -20 -2 3 11 -16 -1 -1 -14 -17 -7 -20 -20 -20 -20 -20 -20 -20 -20 -20 -1 13 -15 -20 -19 -20 -20 -20 -20 -20 -20 -20 -20 -20 -20 -20 -20 -20 -20 -20 -20 -20
-20 -4 0 0 -20 -20 -20 -17 13 -10 -20 -20 -16 23 33 1 20 6 -14 -20 -16 -20 -20 -20 -20 -20 -20 21 17 -9 -20 -20 -20 10 -20 -20 -12 -20 -20 -20 -20 -20 -20 -20 -20 -20 -20 -20 -20 -20 -20 -20 -20 -20
7 13 -15 -15 -15 -20 -20 -20 -20 12 -20 -20 15 24 18 3 16 -18 -20 -18 -20 -20 -20 -20 -17 -15 2 -18 -20 -20 -20 -20 -12 -13 -16 -20 -20 -20 -20 -20 -20 -20 -20 -20 -20 -20 -20 -20 -20 -20 -20 -20 -20 -20
16 13 16 16 -20 -20 -20 -20 16 -8 10 -16 -8 8 -9 -10 -20 -20 -20 -20 -20 -20 -20 -20 -20 -20 -20 -20 -20 -20 -20 -20 -20 -20 -3 -20 -20 -20 -20 -20 -20 -20 -20 -20 -20 -20 -20 -20 -20 -20 -20 -20 -20 -20
17 15 18 15 -20 -20 -20 4 -10 -4 20 -7 2 11 -18 -20 -20 -20 -20 -20 -20 -20 -20 -20 -20 -17 -20 -20 -20 -20 -20 -20 -20 -1 -20 -20 -20 -20 -20 -20 -20 -20 -20 -20 -20 -20 -20 -20 -20 -20 -20 -20 -20 -20
16 21 -15 17 -20 -10 5 13 -11 -20 -20 -4 -20 4 14 -13 -20 -20 -18 -11 -20 -20 -20 -20 -20 6 -20 -20 -11 -20 -20 11 14 -20 -20 -20 -20 -20 -20 -20 -20 -20 -20 -20 -20 -20 -20 -20 -20 -20 -20 -20 -20 -20
13 -9 -20 17 13 -17 -18 -20 -19 -20 -20 -6 -9 16 16 -5 -20 17 -20 -20 -20 -20 -20 -20 -20 3 -20 -20 -20 -20 -20 -20 -20 -20 -20 -20 -20 -20 -20 -20 -20 -20 -20 -20 -20 -20 -20 -20 -20 -20 -20 -20 -20 -20
-4 -20 -11 9 -14 19 27 16 -20 -20 -8 -20 9 12 -7 -20 -18 -10 -20 -20 -20 -20 -20 -20 -20 -17 -3 -7 -12 -20 -20 -19 -20 -20 -20 -20 -20 -20 -20 -20 -20 -20 -20 -20 -20 -20 -20 -20 -20 -20 -20 -20 -19 -3
-20 -20 -20 -20 -20 -13 -15 -20 16 2 -9 -12 5 -18 -17 -20 -20 -20 -20 -20 -20 -20 -20 -20 -20 -11 -20 -20 -20 -20 -20 -20 -20 -20 -20 -20 -20 -20 -20 -20 -14 -20 -20 -20 -20 -20 -20 -20 -20 -20 -20 -20 -20 -20
-11 -20 -20 -20 7 1 16 -2 -18 -18 -20 15 4 -20 -20 -20 -20 -20 1 -11 -20 -20 -14 -20 -16 -20 -20 -20 -20 -20 -20 -20 -20 -20 -15 -15 -20 -20 -20 -20 -20 -20 -20 -20 -20 -20 -20 -20 -20 -20 -20 -20 -20 -20
17 -6 18 3 27 22 25 -20 -6 -20 5 17 -7 -20 -18 -20 -12 -17 -20 -20 -20 -20 -20 -20 -20 -20 -20 -20 -20 -20 -20 -20 -20 -20 -20 -20 -20 -20 -20 -18 -20 -20 -20 -20 -20 -20 -20 -20 -20 -20 -20 -20 -20 -20
15 9 23 21 29 16 -16 -20 -20 -20 -20 -16 -19 -20 -20 -11 -16 -15 -19 -20 -15 -20 -20 -20 -20 -20 -20 -20 -20 -20 -20 -20 -20 -20 -20 -20 -7 -20 -20 -20 -20 -20 -20 -20 -20 -20 -20 -20 -20 -20 -20 -20 -20 -20
9 5 -11 -12 -12 -20 -19 -12 -20 -20 -20 -8 -20 -11 -17 -14 -16 -20 -19 -20 -20 -20 -20 -20 -20 -20 -20 -20 -20 -20 -20 -20 -20 -20 -20 -20 -20 -20 -20 -20 -20 -20 -20 -20 -20 -20 -20 -20 -20 -20 -20 -20 -20 -20
-20 -20 -20 -20 12 -18 -20 -20 -20 -20 -20 -15 -19 -20 -16 -20 -20 -20 -17 -20 -20 -20 -20 -20 -20 -20 -20 -20 -20 -20 -20 -20 -20 -20 -20 -20 -20 -20 -20 -20 -20 -20 -20 -20 -20 -20 -20 -20 -20 -20 -20 -20 -20 -20
-12 -8 -20 -4 -1 -20 1 -18 -19 -20 -20 -16 -20 -8 -20 -20 -20 -20 -18 -20 -20 -20 -20 -20 -20 -20 -20 -20 -20 -20 -20 -20 -20 -20 -20 -20 -20 -20 -20 -20 -20 -20 -20 -20 -20 -20 -20 -20 -20 -20 -20 -20 -20 -20
-20 -20 -20 -14 -20 -18 -20 -4 -3 -19 -16 -10 1 -20 -20 -20 -20 -20 -20 -20 -20 -20 -20 -20 -20 -20 -20 -20 -20 -20 -20 -20 -20 -20 -20 -20 -20 -20 -20 -20 -20 -20 -20 -20 -20 -20 -20 -20 -20 -20 -20 -20 -20 -20
19 10 -20 -20 -20 -20 -12 -18 -13 -20 -17 -7 -15 -20 -20 -13 -20 -20 -20 -18 -20 -20 -20 -20 -20 -20 -20 -20 -20 -20 -20 -20 -20 -20 -20 -20 -20 -20 -20 -20 -20 -20 -20 -20 -20 -20 -20 -20 -20 -20 -20 -20 -20 -20
-5 -20 -20 -14 -20 -20 -20 -20 -20 -20 -20 -20 -14 -20 -20 -20 -20 -18 -20 6 -15 -18 -17 -17 -15 -20 -20 -20 -20 -20 -20 -20 -20 -20 -20 -20 -20 -20 -20 -20 -20 -20 -20 -20 -20 -20 -20 -20 -20 -20 -20 -20 -20 -20
18 16 13 2 -3 -4 -16 -20 -20 -20 -20 -20 -18 -20 -20 -20 -19 -19 -5 2 -20 -20 -20 -20 -16 -20 -20 -20 -20 -20 -20 -20 -20 -20 -20 -20 -20 -10 -20 -20 -20 -20 -20 -20 -20 -20 -20 -20 -20 -20 -20 -20 -20 -16
-11 -20 -10 -20 -20 -20 -20 -20 -20 -20 -20 -20 -20 -20 -20 -20 -20 -15 -3 -18 -20 -20 -20 -20 -20 -20 -20 -20 -20 -20 -20 -20 -20 -20 -20 -20 -20 -20 -20 -20 -20 -20 -20 -20 -20 -20 -20 -20 -20 -20 -20 -20 -20 -20
-20 -20 -16 -19 -20 -20 -20 -20 -20 -20 -20 -17 -20 -20 -20 -20 -20 -20 -19 1 -20 -20 -20 -19 -20 -20 -20 -20 -20 -20 -20 -20 -20 -20 -20 -20 -20 -20 -20 -20 -20 -20 -20 -20 -20 -20 -20 -20 -20 -20 -20 -20 -20 -20
-20 -20 -20 -20 -19 -20 -19 -7 6 -20 -20 -20 -20 -20 -20 -20 -20 -20 -16 -6 -16 -20 -5 -11 -19 -19 -20 -20 -20 -20 -20 -20 -20 -20 -20 -20 -20 -20 -20 -20 -20 -20 -20 -20 -20 -20 -20 -20 -20 -20 -20 -20 -20 -20
-19 -20 -20 -20 -9 -20 -20 -13 -18 -4 -20 -20 -17 -16 1 -20 -20 -20 -20 -16 -4 -17 -20 -20 -20 -20 -20 -20 -20 -20 -20 -20 -20 -20 -20 -20 -20 -20 -20 -20 -20 -20 -20 -20 -20 -20 -20 -20 -20 -20 -20 -20 -20 -20

GFSWCAN_prec_radar_108.txt.gz
Reflectivity
21 20 15 -10 -20 -4 11 13 13 -12 7 -5 -6 -8 -19 -20 -20 -20 -20 -20 -20 -20 -20 -20 -20 -20 -20 -20 -20 -20 -20 -20 -20 -20 -20 -20 -20 -20 13 4 -9 -20 -20 -20 -20 -20 -20 -20 -20 -20 0 19 10 1
28 23 7 -12 3 3 13 7 6 10 6 -1 -18 -20 -20 -20 -20 -20 -20 -20 -20 -20 -20 -20 -20 -20 -20 -20 -20 -20 -20 -20 -20 -20 -20 -20 -20 -20 -18 -14 -20 -20 -20 -20 -2 -4 0 4 6 19 19 2 17 -13
24 24 16 -0 -1 -9 -16 11 12 6 8 6 -20 -20 -20 -20 -20 -20 -20 -20 -20 -20 -20 -20 -20 -20 -20 -20 -20 -20 -20 -20 -20 -20 -20 -20 -20 -20 -0 20 -20 6 -20 -20 -20 1 -1 1 5 2 -6 -20 -20 -20
28 23 -1 -7 -18 -15 -0 -2 -17 -20 -20 -20 -20 -20 -20 -20 -20 -20 -20 -20 -20 -20 -20 -20 -20 -20 -20 -20 -20 -20 -20 -20 -20 -20 -20 -20 -20 -20 -20 8 -20 -20 -20 -20 -2 -1 -5 -20 -13 -20 -20 -20 -20 -20
30 25 16 10 -11 -3 -16 -17 -20 -20 -11 3 -20 -20 -20 -20 -20 -20 -20 -20 -20 -20 -20 -20 -20 -20 -20 -20 -20 -20 -20 -20 -20 -20 -20 -20 -20 -20 -20 -5 -20 -10 -8 -12 -20 -14 -20 -19 -20 -20 -20 -20 -20 -20
26 29 17 14 7 -20 -20 -20 -20 -20 -20 -20 -20 -20 -20 -20 -20 -20 -20 -20 -20 -20 -20 -20 -20 -20 -20 -20 -20 -20 -20 -20 -20 -20 -20 -20 -20 -20 -20 -20 -19 -20 -20 -20 -20 -20 -20 -20 -20 -20 -20 -20 -20 -20
14 17 24 22 12 -18 -14 -20 -20 -20 -20 -20 -20 -20 -20 -20 -20 -20 -18 14 -11 -20 -20 -20 -20 -20 -20 -20 -20 -20 -20 -20 -20 -20 -20 -20 -20 -20 -5 -20 -20 -16 -20 -20 -20 -20 -17 -20 -20 -20 -20 -20 -20 -20
6 17 12 15 16 10 -6 -20 -20 -20 -20 -4 -20 -20 -20 -20 -20 -20 -14 4 -7 -20 -20 -20 -20 -8 -20 -20 -20 -20 -20 -20 -20 -20 -20 -20 -20 14 -20 -20 -20 -15 -20 -10 -14 -20 -20 -20 -20 -20 -20 -20 -20 -20
14 16 13 5 4 4 6 -20 -20 -20 -20 -20 -20 -20 -20 -20 -20 -18 7 12 -20 -14 -20 -20 -20 -20 -20 -20 -20 -20 -20 -20 -20 -20 -20 -20 -20 -20 3 -20 -20 -20 -20 -20 -20 -20 -20 -20 -20 -20 -20 -20 -20 -20
10 -20 9 9 -20 -20 8 -20 -20 -20 14 10 -20 -20 -20 -20 -20 -20 -20 -20 -19 -20 -16 -20 -20 -20 -20 -20 -20 -19 -20 -20 -20 -19 -20 -20 -20 -13 -5 -20 -20 -20 -20 -20 -20 -20 -20 -20 -20 -20 -20 -20 -20 -20
12 6 9 4 -20 -20 8 10 -20 -18 10 -20 -20 -13 1 -17 -1 -20 -9 -17 -20 -20 -17 -20 -20 -20 -20 -20 -20 -20 -20 -20 -20 13 -20 -18 -17 -14 -20 -20 -20 -20 -20 -20 -20 -20 -20 -20 -20 -20 -20 -20 -20 -20
1 13 10 -20 -20 -11 -9 -17 -20 -20 -20 -20 -13 17 -3 -12 -10 -1 -20 -20 -19 -20 -20 -20 -20 -20 -20 -20 -20 -20 -20 -20 -20 -18 -20 -20 -20 -20 -20 -20 -20 -20 -20 -20 -20 -20 -20 -20 -20 -20 -20 -20 -20 -20
16 15 13 -20 3 -6 -20 -20 -20 8 -20 -20 18 11 9 6 -4 -20 -20 -20 -20 -20 -20 -20 -20 -16 -20 -20 -13 -20 -20 -20 -20 -20 -18 -20 -20 -20 -20 -20 -20 -20 -20 -20 -20 -20 -20 -20 -20 -20 -20 -20 -20 -20
17 16 14 14 -20 -20 -20 13 12 -20 -20 -20 -19 -7 -20 -20 -20 -20 -20 -20 -20 -20 -20 -20 -20 -20 -20 -20 -20 -20 -20 -20 -20 -20 -20 -20 -20 -20 -20 -20 -20 -20 -20 -20 -20 -20 -20 -20 -20 -20 -20 -20 -20 -20
3 17 18 -6 -20 -20 -20 17 -20 -20 -20 -20 -16 -20 -20 -20 -20 -4 -9 -20 -20 -20 -20 -20 -20 -20 -20 -20 -20 -5 -20 -20 -20 -20 -20 -20 -20 -20 -20 -20 -20 -20 -20 -20 -20 -20 -20 -20 -20 -20 -20 -20 -20 -20
18 21 -18 17 15 2 -7 -15 -20 -20 -20 -17 -8 -20 -17 -12 -20 -20 -20 -20 -20 -20 -20 -20 -20 -20 -20 -20 -9 -20 -20 -20 4 -20 -20 -20 -20 -20 -20 -20 -20 -20 -20 -20 -20 -20 -20 -20 -20 -20 -20 -20 -20 -20
16 -12 17 21 16 -20 -20 -20 -20 -20 -20 -20 -20 -20 -20 -20 -20 -20 -20 -17 -19 -20 -20 -20 -20 -20 -20 -20 -20 -20 -20 -20 -20 -20 -20 -20 -20 -20 -20 -20 -20 -20 -20 -20 -20 -20 -20 -20 -20 -20 -20 -20 -20 -20
-20 6 18 17 -20 -20 -20 -20 -20 -20 -20 -20 -20 -3 5 -9 -20 -20 -18 -20 -20 -20 -20 -5 -20 -20 -20 -20 -20 -20 -20 -20 -20 -20 -20 -20 -20 -20 -20 -20 -20 -20 -20 -20 -20 -20 -20 -20 -20 -20 -20 -20 -20 -20
-5 -20 -18 -20 -20 -20 -20 -20 -17 -14 -20 -20 -20 -20 -18 -10 -20 -14 -3 -20 -20 -20 -20 -20 -20 -20 -20 -20 -20 -20 -20 -20 -20 -20 -20 -20 -20 -20 -20 -20 -20 -20 -20 -20 -20 -20 -20 -20 -20 -20 -20 -20 -20 -20
-20 -20 -20 -20 -5 -20 -18 -2 -20 -20 -20 -20 -3 6 -19 -20 -20 -5 5 -14 -20 -20 -20 -20 -20 -20 -20 -20 -20 -20 -20 -20 -20 -20 -20 -20 -20 -20 -20 -20 -20 -20 -20 -20 -20 -20 -20 -20 -20 -20 -20 -20 -20 -20
14 20 19 -20 -20 -19 11 -20 -20 -19 -20 -20 -16 16 5 -20 -20 -12 -8 -3 -14 -20 -20 -20 -20 -20 -20 -20 -20 -20 -20 -20 -20 -20 -20 -20 -20 -20 -20 -20 -20 -20 -20 -20 -20 -20 -20 -20 -20 -20 -20 -20 -20 -20
4 -2 -12 -15 2 23 19 -20 -20 -20 -20 -13 15 8 -20 -20 -20 -17 -20 -20 -20 -20 -20 -20 -20 -20 -20 -20 -20 -20 -20 -20 -20 -20 -20 -20 -20 -20 -20 -20 -20 -20 -20 -20 -20 -20 -20 -20 -20 -20 -20 -20 -20 -20
-2 2 -9 5 8 -19 -13 -20 -20 -20 -8 15 6 7 -6 -20 -20 -20 -20 -20 -20 -20 -20 -20 -20 -20 -20 -20 -20 -20 -20 -20 -20 -20 -20 -20 -20 -20 -20 -20 -20 -20 -20 -20 -20 -20 -20 -20 -20 -20 -20 -20 -20 -20
-20 -20 -20 -20 -18 -20 -12 -19 -20 -20 -9 -7 -18 -20 -10 -20 -20 -20 -20 -20 -20 -20 -20 -20 -20 -20 -20 -20 -20 -20 -20 -20 -20 -20 -20 -20 -20 -20 -20 -20 -20 -20 -20 -20 -20 -20 -20 -20 -20 -20 -20 -20 -20 -20
-12 -20 -20 -20 17 -20 -20 -18 -19 -20 -20 -20 -20 -20 -20 -20 -20 -20 -20 -20 -20 -20 -20 -20 -20 -20 -20 -20 -20 -20 -20 -20 -20 -20 -20 -20 -20 -20 -20 -20 -20 -20 -20 -20 -20 -20 -20 -20 -20 -20 -20 -20 -20 -20
-20 -20 -20 -20 -20 -20 -20 -20 -20 -20 -20 -20 -20 -20 -20 -20 -20 -20 -20 -20 -20 -20 -20 -20 -20 -20 -20 -20 -20 -20 -20 -20 -20 -20 -20 -20 -20 -20 -20 -20 -20 -20 -20 -20 -20 -20 -20 -20 -20 -20 -20 -20 -20 -20
-20 -20 -20 -20 -20 -20 -20 -20 -20 -20 -20 -20 -20 -20 -20 -15 -20 -20 -20 -20 -20 -20 -20 -20 -20 -20 -20 -20 -20 -20 -20 -20 -20 -20 -20 -20 -20 -20 -20 -20 -20 -20 -20 -20 -20 -20 -20 -20 -20 -20 -20 -20 -20 -20
-16 -19 -20 -20 -20 -19 -20 -20 -20 -20 -20 -20 -20 -20 -20 -20 -20 -20 -20 -20 -20 -20 -20 -20 -20 -20 -20 -20 -20 -20 -20 -20 -20 -20 -20 -20 -20 -20 -20 -20 -20 -20 -20 -20 -20 -20 -20 -20 -20 -20 -20 -20 -20 -20
-3 8 6 6 5 1 -18 -20 -20 -20 -20 -20 -20 -20 -20 -20 -20 -20 -20 -16 -19 -20 -20 -19 -12 -20 -19 -19 -20 -20 -20 -20 -20 -20 -20 -20 -20 -20 -20 -20 -20 -20 -20 -20 -20 -20 -20 -20 -20 -20 -20 -20 -20 -20
-19 16 19 7 -4 -19 -20 -9 -12 -20 -20 -20 -20 -20 -20 -20 -20 -19 -20 -19 -19 -20 -20 -19 -19 -20 -20 -20 -20 -20 -20 -20 -20 -20 -20 -20 -20 -20 -20 -20 -20 -20 -20 -20 -20 -20 -20 -20 -20 -20 -20 -20 -20 -20
-12 11 16 2 8 -1 -17 -20 -20 -20 -20 -20 -20 -20 -20 -20 -20 -18 -20 -20 -19 -20 -20 -13 -10 -17 -20 -20 -20 -20 -20 -20 -20 -20 -20 -20 -20 -20 -20 -20 -20 -20 -20 -20 -20 -20 -20 -20 -20 -20 -20 -20 -20 -20
-4 7 -18 7 9 -15 -20 -20 -20 -20 -20 -20 -20 -20 -20 -20 -20 -20 -19 -14 -20 -19 -19 -20 -20 -20 -19 -19 -20 -20 -20 -20 -20 -20 -20 -20 -20 -20 -20 -20 -20 -20 -20 -20 -20 -20 -20 -20 -20 -20 -20 -20 -20 -20
-20 -20 -20 -20 -20 -20 -20 -20 -20 -20 -20 -20 -20 -20 -20 -20 -20 -20 -19 -17 -20 -20 -20 -20 -20 -19 -19 -20 -20 -20 -20 -20 -20 -20 -20 -20 -20 -20 -20 -20 -20 -20 -20 -20 -20 -20 -20 -20 -20 -20 -20 -20 -20 -20

GFSWCAN_prec_radar_111.txt.gz
Reflectivity
14 19 25 15 12 15 -20 -17 -11 -20 -20 -16 -6 2 -14 -1 -18 -20 -20 -20 -20 -20 -20 -20 -20 -20 -20 -20 -20 -20 -20 -20 -20 -20 -20 -20 -20 -15 1 4 -5 -20 -9 -17 -14 -18 -20 -20 -19 -20 -7 6 -12 -19
29 26 15 13 11 11 7 -20 -20 -20 -20 -20 -12 -2 1 1 -20 -20 -20 -20 -20 -20 -20 -20 -20 -20 -20 -20 -20 -20 -20 -20 -20 -20 -20 -20 -20 -11 -6 13 -20 -20 -20 -18 2 -18 7 11 0 7 -1 -19 18 -20
25 19 12 5 -3 12 13 -20 -20 -20 -20 -20 -18 11 5 -5 -20 -20 -20 -20 -20 -20 -20 -20 -20 -20 -20 -20 -20 -20 -20 -20 -20 -20 -20 -20 -20 -20 -16 -11 -3 -17 -20 -20 -20 9 -11 -1 -20 -5 -14 -20 -20 -6
13 1 -9 11 23 12 -2 -2 -20 -5 -18 -4 3 4 -3 -18 -20 -20 -20 -20 -20 -20 -20 -20 -20 -20 -20 -20 -20 -20 -20 -20 -20 -20 -20 -20 -20 -20 -20 -5 -20 -20 -5 -17 -11 1 -20 -20 -20 -20 -20 -20 -20 -20
12 -9 20 20 15 -12 -9 -20 -20 -20 -19 -14 -19 -17 -19 -20 -20 -20 -20 -20 -20 -20 -20 -20 -20 -20 -20 -20 -20 -20 -20 -20 -20 -20 -20 -20 -20 -20 -14 -16 -20 -12 -3 -16 -20 -20 -20 -20 -20 -20 -20 -20 -20 -20
-0 -19 -17 15 3 9 16 -20 -20 -20 -20 -19 -20 -20 -20 -20 -20 -20 -20 -20 -20 -20 -20 -20 -20 -20 -20 -20 -20 -20 -20 -20 -20 -20 -20 -20 -20 -20 -20 -20 -2 -20 -20 -20 -20 -20 -20 -20 -20 -20 -20 -20 -20 -20
12 5 8 -20 17 -20 -20 -20 -20 -20 -20 -12 5 -20 -20 -20 -20 -20 -20 -20 -14 -20 -20 -20 -20 -20 -20 -20 -20 -20 -20 -20 -20 -20 -20 -20 -20 -19 -9 -20 3 -20 -20 -20 -20 -20 -20 -20 -20 -20 -20 -20 -20 -20
25 10 8 9 3 -14 -2 -20 -20 -3 -3 15 -20 -20 -20 -20 -20 -20 -20 -20 -20 -20 -20 -20 -20 1 -20 -20 -20 -20 -20 -20 -20 -20 -20 -20 -20 -1 -20 -9 -13 -17 -19 -9 -20 -20 -20 -20 -20 -20 -20 -20 -20 -20
19 23 14 14 -14 -20 -20 -20 -20 -18 13 -20 -20 -20 -20 -20 -20 -10 11 -9 -20 -20 -20 -20 -20 -20 -20 -20 -20 -20 -20 -20 -20 -20 -20 -20 -20 -15 -20 -20 -20 -17 -20 -20 -20 -20 -20 -20 -20 -20 -20 -20 -20 -20
16 21 25 20 13 -20 -20 -20 -4 15 -20 -20 -20 -20 -20 -20 -20 1 -20 -20 -20 -20 -20 -20 -20 -20 -20 -20 -20 -19 -20 -20 -20 -20 -20 -20 -20 -14 -20 -20 -20 -20 -20 -20 -20 -20 -20 -20 -20 -20 -20 -20 -20 -20
16 17 -9 -3 8 -20 -20 -20 -20 7 -20 -20 -20 9 -20 -20 -20 -20 -20 -20 -20 -13 -11 -20 -20 -20 -20 -20 -20 -20 -20 -20 -20 -10 -20 -20 -20 -20 -20 -20 -20 -20 -20 -20 -20 -20 -20 -20 -20 -20 -20 -20 -20 -20
17 15 9 7 8 -20 -20 -20 2 -20 -20 -20 -20 -20 -8 -20 -16 -20 -20 -20 -13 -20 -20 -20 -20 -20 -20 -20 -20 -20 -20 -20 -20 -20 -20 -20 -20 -20 -20 -20 -20 -20 -20 -20 -20 -20 -20 -20 -20 -20 -20 -20 -20 -20
12 -14 -15 4 -20 -20 -20 -20 -20 -20 -20 -20 -17 -20 5 -20 -20 -20 -20 -20 -20 -20 -20 -20 -20 -20 -20 -20 -20 -20 -20 -20 -20 -18 -19 -20 -20 -20 -20 -20 -20 -20 -20 -20 -20 -20 -20 -20 -20 -20 -20 -20 -20 -20
13 12 7 4 -20 -20 -20 -14 -20 -20 -20 -20 -20 -19 -20 -20 -20 -20 -20 -20 -20 -20 -20 -20 -20 -1 -20 -20 -20 -20 -20 -20 -20 -20 -20 -20 -20 -20 -20 -20 -20 -20 -20 -20 -20 -20 -20 -20 -20 -20 -20 -20 -20 -20
13 3 -7 11 -15 -12 -19 3 -20 -20 -20 -20 -20 -20 -20 -20 -18 -20 -20 -20 -20 -20 -20 -20 -20 -20 -20 -20 -20 -20 -14 -20 -20 -20 -20 -20 -20 -20 -20 -20 -20 -20 -20 -20 -20 -20 -20 -20 -20 -20 -20 -20 -20 -20
15 15 -20 14 0 -20 -12 -20 -20 -20 -20 -20 -20 -20 -20 -18 -20 -15 -20 -20 -20 -20 -20 -20 -20 -20 -20 -20 -10 -20 -20 -20 -20 -20 -20 -20 -20 -20 -20 -20 -20 -20 -20 -20 -20 -20 -20 -20 -20 -20 -20 -20 -20 -20
8 -19 21 15 12 -5 -20 -20 -20 -20 -20 -20 -20 -20 -20 -20 -20 -18 -2 -13 -14 -20 -20 -20 -20 -20 -20 -20 -20 -20 -20 -20 -20 -20 -20 -20 -20 -20 -20 -20 -20 -20 -20 -20 -20 -20 -20 -20 -20 -20 -20 -20 -20 -20
-20 -20 13 2 -20 -17 -9 -18 -20 -20 -20 -20 -20 -20 -16 -17 -20 -10 -18 17 -1 -20 -14 -3 -20 -17 -20 -20 -20 -20 -20 -20 -20 -20 -20 -20 -20 -20 -20 -20 -20 -20 -20 -20 -20 -20 -20 -20 -20 -20 -20 -20 -20 -20
-20 -17 -20 -20 -20 -20 -20 -20 -20 -20 -20 -20 -20 -20 -20 -20 -20 -16 -1 9 -20 -20 -20 -20 -20 -20 -20 -20 -20 -20 -20 -20 -20 -20 -20 -20 -20 -20 -20 -20 -20 -20 -20 -20 -20 -20 -20 -20 -20 -20 -20 -20 -20 -20
-20 -20 -15 -20 -20 -20 -20 -20 -20 -20 -20 -20 -20 -20 -20 -20 -20 -20 -6 -1 -19 -20 -20 -20 -20 -20 -20 -20 -20 -20 -20 -20 -20 -20 -20 -20 -20 -20 -20 -20 -20 -20 -20 -20 -20 -20 -20 -20 -20 -20 -20 -20 -20 -20
19 27 3 -20 -20 -20 -20 -20 -20 -20 -20 -20 -20 -20 -13 -20 -20 -20 -12 -3 -17 -20 -20 -20 -20 -20 -20 -20 -20 -20 -20 -20 -20 -20 -20 -20 -20 -20 -20 -20 -20 -20 -20 -20 -20 -20 -20 -20 -20 -20 -20 -20 -20 -20
15 -11 -20 -20 -20 -20 -15 -20 -20 -20 -20 -20 -20 -18 4 -20 -20 -15 -20 -20 -20 -20 -20 -20 -20 -20 -20 -20 -20 -20 -20 -20 -20 -20 -20 -20 -20 -20 -20 -20 -20 -20 -20 -20 -20 -20 -20 -20 -20 -20 -20 -20 -20 -20
-19 -16 -20 -20 -15 -3 17 -20 -20 -17 -9 -19 -20 -20 -15 -20 -20 -20 -20 -20 -20 -20 -20 -20 -20 -20 -20 -20 -20 -20 -20 -20 -20 -20 -20 -20 -20 -20 -20 -20 -20 -20 -20 -20 -20 -20 -20 -20 -20 -20 -20 -20 -20 -20
-20 -20 -20 -20 -5 3 15 -18 -16 -11 -20 -18 -12 -12 -4 -20 -20 -20 -20 -20 -20 -20 -20 -20 -20 -20 -20 -20 -20 -20 -20 -20 -20 -20 -20 -20 -20 -20 -20 -20 -20 -20 -20 -20 -20 -20 -20 -20 -20 -20 -20 -20 -20 -20
-20 -20 -20 -20 -20 -20 -20 -18 -20 -20 -20 -20 -20 6 -5 -20 -20 -20 -20 -20 -20 -20 -20 -20 -20 -20 -20 -20 -20 -20 -20 -20 -20 -20 -20 -20 -20 -20 -20 -20 -20 -20 -20 -20 -20 -20 -20 -20 -20 -20 -20 -20 -20 -20
-20 -20 -20 -20 -20 -14 -20 -20 -20 -20 -20 -20 -20 -20 -20 -20 -20 -20 -20 -20 -20 -20 -20 -20 -20 -20 -20 -20 -20 -20 -20 -20 -20 -20 -20 -20 -20 -20 -20 -20 -20 -20 -20 -20 -20 -20 -20 -20 -20 -20 -20 -20 -20 -20
-20 -20 -20 -20 -20 -20 -20 -20 -20 -20 -20 -20 -20 -20 -20 -20 -20 -20 -20 -20 -20 -20 -20 -20 -20 -20 -20 -20 -20 -20 -20 -20 -20 -20 -20 -20 -20 -20 -20 -20 -20 -20 -20 -20 -20 -20 -20 -20 -20 -20 -20 -20 -20 -20
-20 -20 -20 -20 -20 -20 -20 -20 -20 -20 -20 -20 -20 -20 -20 -20 -20 -20 -20 -20 -20 -20 -20 -20 -20 -20 -20 -20 -20 -20 -20 -20 -20 -20 -20 -20 -20 -20 -20 -20 -20 -20 -20 -20 -20 -20 -20 -20 -20 -20 -20 -20 -20 -20
-18 -20 -0 5 1 -20 -20 -20 -20 -20 -20 -20 -20 -20 -20 -20 -20 -20 -20 -20 -20 -20 -20 -20 -20 -20 -20 -20 -20 -20 -20 -20 -20 -20 -20 -20 -20 -20 -20 -20 -20 -20 -20 -20 -20 -20 -20 -20 -20 -20 -20 -20 -20 -20
-20 -9 -3 -2 4 -3 -16 -20 -20 -20 -20 -20 -20 -20 -20 -20 -20 -20 -20 -20 -20 -19 -20 -20 -19 -20 -20 -20 -20 -20 -20 -20 -20 -20 -20 -20 -20 -20 -20 -20 -20 -20 -20 -20 -20 -20 -20 -20 -20 -20 -20 -20 -20 -20
-20 -20 -20 -20 -20 -11 8 -1 -20 -20 -20 -20 -20 -20 -20 -20 -20 -20 -20 -20 -20 -20 -20 -20 -20 -17 -17 -18 -20 -20 -20 -20 -20 -20 -20 -20 -20 -20 -20 -20 -20 -20 -20 -20 -20 -20 -20 -20 -20 -20 -20 -20 -20 -20
-20 -19 5 7 -18 -1 8 -15 -20 -20 -20 -20 -20 -20 -20 -20 -20 -20 -20 -20 -20 -20 -20 -20 -20 -17 -11 -3 -15 -20 -20 -20 -20 -20 -20 -20 -20 -20 -20 -20 -20 -20 -20 -20 -20 -20 -20 -20 -20 -20 -20 -20 -20 -20
-20 -20 -1 7 -2 -16 2 -11 -18 -19 -20 -20 -20 -20 -20 -20 -20 -20 -20 -20 -20 -20 -20 -20 -20 -19 -20 -20 -20 -20 -20 -20 -20 -20 -20 -20 -20 -20 -20 -20 -20 -20 -20 -20 -20 -20 -20 -20 -20 -20 -20 -20 -20 -20

GFSWCAN_prec_radar_114.txt.gz
Reflectivity
25 23 23 22 28 27 15 10 5 -20 -20 -7 -19 -20 -12 1 -14 -20 -20 -3 0 -13 -20 -20 -20 -20 -20 -20 -20 -20 -20 -20 -20 -20 -20 -20 -20 -20 -20 -10 10 -20 6 9 14 2 -20 -1 -17 -20 1 -11 -20 -20
28 21 6 21 17 22 20 4 4 -2 -20 -20 -20 -20 -20 -19 -20 -20 -20 -8 -12 -20 -20 -20 -20 -20 -20 -20 -20 -20 -20 -20 -20 -20 -20 -20 -20 -20 -20 17 0 -14 -11 11 3 -20 3 8 -1 -7 -20 -12 -10 -20
28 28 23 17 9 13 -5 -20 -16 5 -20 -20 -20 -20 -20 -20 -20 -19 -9 -11 -20 -20 -20 -20 -20 -20 -20 -20 -20 -20 -20 -20 -20 -20 -20 -20 -20 -20 -19 -15 -20 9 -0 2 -11 6 1 -17 -20 -20 -20 -20 -19 -18
21 17 19 28 24 7 -1 -16 -20 -20 -20 -20 -20 -20 -20 -20 -14 -13 -2 -13 -20 -20 -20 -20 -20 -20 -20 -20 -20 -20 -20 -20 -20 -20 -20 -20 -20 -20 -20 -13 -20 -18 3 7 1 -14 -20 -20 -20 -20 -20 -20 -20 -20
2 11 23 20 15 -20 -20 -20 -20 -14 -20 -20 -20 -20 -20 -7 6 1 -6 -20 -20 -20 -20 -20 -20 -20 -20 -20 -20 -20 -20 -20 -20 -20 -20 -20 -20 -20 -20 -20 -20 -10 -14 -19 -8 -6 -20 -20 -20 -20 -20 -20 -20 -20
8 9 26 28 -10 -4 -20 -20 -19 19 -20 -20 -20 -20 -19 -15 1 -2 -20 -20 -20 -20 -20 -20 -20 -20 -20 -20 -20 -20 -20 -20 -20 -20 -20 -20 -20 -20 -20 -20 -6 -19 -20 -20 -19 -20 -20 -20 -20 -20 -20 -20 -20 -20
27 30 24 11 12 -16 -19 1 16 19 -20 -20 -10 -14 -20 -14 -15 -20 -20 -20 -20 -20 -20 -20 -20 -20 -20 -20 -20 -20 -20 -20 -20 -20 -20 -20 -20 -20 -20 -20 -6 -20 -20 -20 -20 -20 -20 -20 -20 -20 -20 -20 -20 -20
-20 -4 13 9 -13 -4 -20 -3 -20 14 -20 -20 -20 -20 -20 -20 -20 -20 -20 -20 -20 -20 -20 -20 -12 -1 -20 -20 -20 -20 -20 -20 -20 -20 -20 -20 -20 -20 -20 -5 -20 -20 -20 -18 -20 -20 -20 -20 -20 -20 -20 -20 -20 -20
-20 4 -13 -15 -17 -20 -20 -9 12 7 -20 -20 -20 -20 -20 -20 -20 -18 -20 -20 -20 -20 -20 -20 -20 -14 -20 -20 -20 -20 -20 -20 -20 -20 -20 -20 -20 -20 -20 -18 -20 -20 -20 -20 -20 -20 -20 -20 -20 -20 -20 -20 -20 -20
14 7 4 -20 -20 -20 -20 -20 13 -16 -20 -20 -20 -20 -20 -10 -20 -20 -20 -20 -20 -20 -20 -20 -20 -20 -20 -20 -20 -20 -20 -20 -20 -20 -20 -20 -20 -20 -20 -20 -20 -20 -20 -20 -20 -20 -20 -20 -20 -20 -20 -20 -20 -20
14 11 9 -20 -20 -20 -12 -14 -16 -20 -20 -20 -20 -17 -15 -2 -20 -20 -20 -20 -20 -20 -20 -20 -20 -20 -20 -20 -20 -20 -20 -20 -20 -14 -16 -20 -20 -20 -20 -20 -20 -20 -20 -20 -20 -20 -20 -20 -20 -20 -20 -20 -20 -20
27 27 15 1 -20 -20 -8 5 -20 -20 -20 -20 -20 -3 -20 -20 -20 -20 -20 -20 -20 -20 -20 -20 -20 -20 -20 -20 -20 -20 -20 -20 -20 -17 -12 -20 -20 -20 -20 -20 -20 -20 -20 -20 -20 -20 -20 -20 -20 -20 -20 -20 -20 -20
11 14 16 -20 -8 -20 11 -20 -20 -20 -20 -20 -20 -20 -20 -20 -20 -20 -20 -20 -20 -20 -20 -20 -20 -20 -20 -20 -20 -20 -20 -20 -20 -20 -18 -20 -20 -20 -20 -20 -20 -20 -20 -20 -20 -20 -20 -20 -20 -20 -20 -20 -20 -20
10 11 16 5 -19 11 -20 -20 -20 -20 -20 -20 -20 -20 -20 -19 -20 -20 -20 -20 -20 -20 -20 -20 -20 -20 -20 -20 -20 -20 -20 -20 -20 -20 -20 -20 -20 -20 -20 -20 -20 -20 -20 -20 -20 -20 -20 -20 -20 -20 -20 -20 -20 -20
-3 16 17 16 8 -17 -20 -20 -20 -20 -20 -20 -20 -20 -20 -20 -20 -20 -20 -20 -5 -20 -20 -20 -20 -20 -20 -20 -20 -20 -2 -20 -20 -20 -20 -20 -20 -20 -20 -20 -20 -20 -20 -20 -20 -20 -20 -20 -20 -20 -20 -20 -20 -20
20 22 -13 18 -20 -20 -20 -20 -20 -20 -20 -20 -20 -20 -20 -20 -20 -20 -20 -10 -16 -20 -20 -20 -20 -20 -20 -20 -20 -20 -20 -20 -20 -20 -20 -20 -20 -20 -20 -20 -20 -20 -20 -20 -20 -20 -20 -20 -20 -20 -20 -20 -20 -20
-18 -12 21 16 -18 -20 -20 -20 -20 -20 -20 -20 -20 -20 -20 -19 -20 -20 4 -20 -15 -20 -20 -20 -20 -20 -20 -20 -20 -20 -20 -20 -20 -20 -20 -20 -20 -20 -20 -20 -20 -20 -20 -20 -20 -20 -20 -20 -20 -20 -20 -20 -20 -20
-20 7 -18 -20 -20 -20 -20 -20 -20 -20 -20 -20 -20 -19 -18 -20 -16 -17 19 9 -20 -20 -20 -20 -20 -20 -20 -20 -20 -20 -20 -20 -20 -20 -20 -20 -20 -20 -20 -20 -20 -20 -20 -20 -20 -20 -20 -20 -20 -20 -20 -20 -20 -20
-20 -20 -20 -20 -20 -20 -20 -20 -20 -20 -20 -20 -20 -20 -17 -20 -20 -20 -16 22 12 -20 -20 -20 -20 -20 -20 -20 -20 -20 -20 -20 -20 -20 -20 -20 -20 -20 -20 -20 -20 -20 -20 -20 -20 -20 -20 -20 -20 -20 -20 -20 -20 -20
-20 -20 -20 -20 -20 -20 -20 -20 -20 -20 -20 -20 -20 -20 -20 -20 -20 -20 -20 7 -8 -20 -20 -20 -20 -20 -20 -20 -20 -20 -20 -20 -20 -20 -20 -20 -20 -20 -20 -20 -20 -20 -20 -20 -20 -20 -20 -20 -20 -20 -20 -20 -20 -20
-1 -2 -19 -20 -20 -20 -20 -20 -20 -20 -20 -20 -20 -20 -20 -20 -20 -20 -20 -20 -20 -20 -20 -20 -20 -20 -20 -20 -20 -20 -20 -20 -20 -20 -20 -20 -20 -20 -20 -20 -20 -20 -20 -20 -20 -20 -20 -20 -20 -20 -20 -20 -20 -20
24 -15 -20 -20 -20 -20 -20 -20 -20 -20 -20 -20 -20 -20 -20 -20 -20 -20 -20 -20 -20 -20 -20 -20 -20 -20 -20 -20 -20 -20 -20 -20 -20 -20 -20 -20 -20 -20 -20 -20 -20 -20 -20 -20 -20 -20 -20 -20 -20 -20 -20 -20 -20 -20
1 -8 -20 -20 -20 -20 2 -10 -20 -20 -20 -20 -19 -20 -20 -20 -20 -20 -20 -20 -20 -20 -20 -20 -20 -20 -20 -20 -20 -20 -20 -20 -20 -20 -20 -20 -20 -20 -20 -20 -20 -20 -20 -20 -20 -20 -20 -20 -20 -20 -20 -20 -20 -20
-20 -20 -20 -20 -20 -13 14 -19 -20 -19 -19 -20 -20 -20 -20 -20 -20 -20 -20 -20 -20 -20 -20 -20 -20 -20 -20 -20 -20 -20 -20 -20 -20 -20 -20 -20 -20 -20 -20 -20 -20 -20 -20 -20 -20 -20 -20 -20 -20 -20 -20 -20 -20 -20
-20 -20 -20 -20 -20 -20 -10 -20 -20 -15 -6 -20 -20 -20 -20 -20 -20 -20 -20 -20 -20 -20 -20 -20 -20 -20 -20 -20 -20 -20 -20 -20 -20 -20 -20 -20 -20 -20 -20 -20 -20 -20 -20 -20 -20 -20 -20 -20 -20 -20 -20 -20 -20 -20
-20 -18 -20 -20 -20 -20 -20 -20 -20 -20 -20 -20 -20 -20 -20 -20 -20 -20 -20 -20 -20 -20 -20 -20 -20 -20 -20 -20 -20 -20 -20 -20 -20 -20 -20 -20 -20 -20 -20 -20 -20 -20 -20 -20 -20 -20 -20 -20 -20 -20 -20 -20 -20 -20
-20 -20 -20 -20 -20 -20 -20 -20 -20 -20 -20 -20 -20 -20 -20 -20 -20 -20 -20 -20 -20 -20 -20 -20 -20 -20 -20 -20 -20 -20 -20 -20 -20 -20 -20 -20 -20 -20 -20 -20 -20 -20 -20 -20 -20 -20 -20 -20 -20 -20 -20 -20 -20 -20
-20 -20 -20 -20 -20 -20 -20 -20 -20 -20 -20 -20 -20 -20 -20 -20 -20 -20 -20 -20 -20 -20 -20 -20 -20 -20 -20 -20 -20 -20 -20 -20 -20 -20 -20 -20 -20 -20 -20 -20 -20 -20 -20 -20 -20 -20 -20 -20 -20 -20 -20 -20 -20 -20
-20 -20 -20 -20 -20 -20 -20 -20 -20 -20 -20 -20 -20 -20 -20 -20 -20 -20 -20 -20 -20 -20 -20 -20 -20 -20 -20 -20 -20 -20 -20 -20 -20 -20 -20 -20 -20 -20 -20 -20 -20 -20 -20 -20 -20 -20 -20 -20 -20 -20 -20 -20 -20 -20
-20 -20 -12 -8 -15 -2 -20 -20 -20 -20 -20 -20 -20 -20 -20 -20 -20 -20 -20 -20 -20 -20 -20 -20 -20 -20 -20 -20 -20 -18 -20 -20 -20 -20 -20 -20 -20 -20 -20 -20 -20 -20 -20 -20 -20 -20 -20 -20 -20 -20 -20 -20 -20 -20
-15 -6 -4 -3 7 4 -11 -20 -20 -20 -20 -20 -20 -20 -20 -20 -20 -20 -20 -20 -20 -20 -20 -20 -20 -20 -20 -20 -20 -20 -20 -20 -20 -20 -20 -20 -20 -20 -20 -20 -20 -20 -20 -20 -20 -20 -20 -20 -20 -20 -20 -20 -20 -20
-20 -20 -20 -20 -20 -4 3 -20 -20 -20 -20 -20 -20 -20 -20 -20 -20 -20 -20 -20 -20 -20 -20 -20 -20 -20 -20 -16 -13 -20 -20 -20 -20 -20 -20 -20 -20 -20 -20 -20 -20 -20 -20 -20 -20 -20 -20 -20 -20 -20 -20 -20 -20 -20
-20 -20 -20 -20 -20 -20 -20 -14 -20 -20 -20 -20 -20 -20 -20 -20 -20 -20 -20 -20 -20 -20 -20 -20 -20 -19 -19 -20 -20 -20 -20 -20 -20 -20 -20 -20 -20 -20 -20 -20 -20 -20 -20 -20 -20 -20 -20 -20 -20 -20 -20 -20 -20 -20

GFSWCAN_prec_radar_117.txt.gz
Reflectivity
19 25 30 30 29 29 31 36 38 37 35 32 25 23 19 12 6 -10 -20 -13 -5 -10 -18 -20 -20 -20 -20 -20 -20 -20 -20 -20 -20 -20 -20 -20 -20 -20 -20 -11 -8 -20 -14 -20 -19 3 6 9 16 -11 -16 -1 -20 -20
20 22 24 31 31 28 32 18 20 17 20 21 22 7 -16 -9 -14 6 -2 -12 -19 -20 -20 -20 -20 -20 -20 -20 -20 -20 -20 -20 -20 -20 -20 -20 -20 -20 -20 17 -20 -15 -20 -20 2 3 -0 20 0 -13 14 -20 -20 -20
13 25 26 28 28 20 8 8 16 9 5 6 -11 -20 -20 -19 -7 0 -20 -20 -20 -20 -20 -20 -20 -20 -20 -20 -20 -20 -20 -20 -20 -20 -20 -20 -20 -20 -18 -20 -2 -2 -19 -9 4 8 -2 -20 -4 -19 -15 -20 -20 -20
11 25 26 24 23 24 7 -6 8 6 -20 -20 -19 -20 -18 -13 -17 -20 -20 -20 -20 -20 -20 -20 -20 -20 -20 -20 -20 -20 -20 -20 -20 -20 -20 -20 -20 -20 -20 -20 -20 -14 -12 -20 -5 3 -18 -20 -20 -20 -20 -20 -20 -20
14 21 30 22 21 17 20 8 -1 -17 -20 -20 -20 -15 -16 -20 -20 -20 -20 -20 -20 -20 -20 -20 -20 -20 -20 -20 -20 -20 -20 -20 -20 -20 -20 -20 -20 -20 -20 -20 -15 -8 -13 -20 -20 -20 -19 -20 -20 -20 -20 -20 -20 -20
22 25 21 12 16 -2 4 5 -19 -9 -20 -20 -20 -20 -20 -20 -20 -20 -20 -20 -20 -20 -20 -20 -20 -20 -20 -20 -20 -20 -20 -20 -20 -20 -20 -20 -20 -20 -20 -20 -19 -20 -19 -20 -19 -20 -20 -20 -20 -20 -20 -20 -20 -20
25 23 10 17 -7 -20 -20 -20 -20 -20 -20 -20 -20 -20 -20 -20 -20 -14 -17 -20 -20 -20 -20 -20 9 -20 -20 -20 -20 -20 -20 -20 -20 -20 -20 -20 -20 -20 -20 -20 -20 -3 -4 -20 -20 -20 -20 -20 -20 -20 -20 -20 -20 -20
28 22 12 -5 -20 16 -3 -20 -20 -20 -20 -20 -20 -20 -20 -20 -20 -20 -20 -16 -18 -20 -20 -20 2 13 -20 -20 -20 -20 -20 -20 -20 -20 -20 -20 -20 -20 -16 -3 -20 -20 -20 -20 -20 -20 -20 -20 -20 -20 -20 -20 -20 -20
14 13 -4 -13 13 12 5 -20 -20 -20 -20 -20 -20 -20 -20 -20 -20 -20 -20 -20 -20 -20 -20 -20 -20 -3 -20 -20 -20 -20 -20 -20 -20 -20 -20 -20 -20 -20 -20 -19 -20 -20 -20 -20 -20 -20 -20 -20 -20 -20 -20 -20 -20 -20
11 16 9 -10 -20 -18 -20 -20 -20 -20 -20 -20 -20 -20 -20 -20 -20 -20 -20 -20 -20 -20 -20 -20 -20 4 -20 -20 -20 -20 -20 -20 -20 -20 -20 -6 -20 -20 -20 -20 -20 -20 -20 -20 -20 -20 -20 -20 -20 -20 -20 -20 -20 -20
-0 -20 -20 -19 -10 14 15 -20 -20 -20 -20 -20 -20 -16 -20 -20 -20 -20 -20 -20 -20 -20 -20 -20 -20 -20 -20 -20 -20 -20 -20 -20 -20 -20 -20 -20 -20 -20 -20 -20 -20 -20 -20 -20 -20 -20 -20 -20 -20 -20 -20 -20 -20 -20
-20 -20 -18 -20 -6 12 -19 -20 -20 -20 -20 -14 -1 -20 -20 -20 -20 -20 -20 -20 -20 -20 -20 -20 -20 -20 -20 -20 -20 -20 -20 -20 -20 -20 -14 -20 -20 -20 -20 -20 -20 -20 -20 -20 -20 -20 -20 -20 -20 -20 -20 -20 -20 -20
-16 -20 -20 -20 9 -20 -20 -20 -20 -4 -3 -19 -20 -20 -20 -20 -20 -20 -20 -20 -20 -20 -20 -20 -20 -20 -20 -20 -20 -20 -20 -20 -20 -20 -20 -20 -20 -20 -20 -20 -20 -20 -20 -20 -20 -20 -20 -20 -20 -20 -20 -20 -20 -20
-16 -6 3 -20 -20 -11 -20 -20 -20 -20 -20 -20 -20 -20 -20 -20 -20 -20 -20 -20 -20 -20 -20 -20 -20 -20 -20 -20 -20 -20 -20 -19 -20 -20 -20 -20 -20 -20 -20 -20 -20 -20 -20 -20 -20 -20 -20 -20 -20 -20 -20 -20 -20 -20
8 -13 -18 -6 1 -20 -20 -20 -20 -20 -20 -20 -20 -20 -20 -20 -20 -20 -20 -20 -20 -20 -20 -20 -20 -20 -20 -20 -20 -20 -11 -20 -20 -20 -20 -20 -20 -20 -20 -20 -20 -20 -20 -20 -20 -20 -20 -20 -20 -20 -20 -20 -20 -20
7 1 -17 -20 -20 -20 -20 -20 -20 -20 -20 -20 -20 -20 -20 -20 -20 -19 -3 -17 -20 -20 -20 -20 -20 -20 -20 -20 -20 -20 -20 -20 -20 -20 -20 -20 -20 -20 -20 -20 -20 -20 -20 -20 -20 -20 -20 -20 -20 -20 -20 -20 -20 -20
-19 26 9 -20 -20 -20 -20 -20 -20 -20 -20 -20 -20 -20 -20 -20 -20 -12 -7 -20 -20 -20 -20 -20 -20 -20 -20 -20 -20 -20 -20 -20 -20 -20 -20 -20 -20 -20 -20 -20 -20 -20 -20 -20 -20 -20 -20 -20 -20 -20 -20 -20 -20 -20
-11 0 -20 -20 -20 -20 -20 -20 -20 -20 -20 -20 -20 -20 -20 -20 -20 1 -16 -19 -20 -20 -20 -20 -20 -20 -20 -20 -20 -20 -20 -20 -20 -20 -20 -20 -20 -20 -20 -20 -20 -20 -20 -20 -20 -20 -20 -20 -20 -20 -20 -20 -20 -20
-20 -20 -20 -20 -20 -20 -20 -20 -20 -20 -20 -20 -19 -20 -20 -20 -19 -13 -2 1 -20 -20 -20 -20 -20 -20 -20 -20 -20 -20 -20 -20 -20 -20 -20 -20 -20 -20 -20 -20 -20 -20 -20 -20 -20 -20 -20 -20 -20 -20 -20 -20 -20 -20
-20 -20 -20 -20 -20 -20 -20 -20 -20 -20 -20 -20 -20 -20 -20 -20 -20 -20 -19 7 20 -20 -20 -20 -20 -20 -20 -20 -20 -20 -20 -20 -20 -20 -20 -20 -20 -20 -20 -20 -20 -20 -20 -20 -20 -20 -20 -20 -20 -20 -20 -20 -20 -20
-20 -20 -20 -20 -20 -20 -20 -20 -20 -20 -20 -20 -20 -20 -20 -20 -20 -20 -20 -20 -20 -20 -20 -20 -20 -20 -20 -20 -20 -20 -20 -20 -20 -20 -20 -20 -20 -20 -20 -20 -20 -20 -20 -20 -20 -20 -20 -20 -20 -20 -20 -20 -20 -20
-16 -20 -20 -20 -20 -20 -20 -20 -20 -20 -20 -20 -20 -20 -20 -20 -20 -20 -20 -20 -20 -20 -20 -20 -20 -20 -20 -20 -20 -20 -20 -20 -20 -20 -20 -20 -20 -20 -20 -20 -20 -20 -20 -20 -20 -20 -20 -20 -20 -20 -20 -20 -20 -20
-20 -20 -20 -20 -20 -20 -20 -20 -20 -20 -20 -20 -20 -20 -20 -20 -20 -20 -20 -20 -20 -20 -20 -20 -20 -20 -20 -20 -20 -20 -20 -20 -20 -20 -20 -20 -20 -20 -20 -20 -20 -20 -20 -20 -20 -20 -20 -20 -20 -20 -20 -20 -20 -20
-20 -20 -20 -20 -20 -20 -18 -20 -20 -20 -20 -20 -20 -20 -20 -20 -20 -20 -20 -20 -20 -20 -20 -20 -20 -20 -20 -20 -20 -20 -20 -20 -20 -20 -20 -20 -20 -20 -20 -20 -20 -20 -20 -20 -20 -20 -20 -20 -20 -20 -20 -20 -20 -20
-9 -20 -20 -20 -20 -20 -11 -20 -20 -20 -20 -20 -20 -20 -20 -20 -20 -20 -20 -20 -20 -20 -20 -20 -20 -20 -20 -20 -20 -20 -20 -20 -20 -20 -20 -20 -20 -20 -20 -20 -20 -20 -20 -20 -20 -20 -20 -20 -20 -20 -20 -20 -20 -20
-20 -20 -20 -20 -20 -20 -20 -20 -20 -20 -20 -19 -20 -20 -20 -20 -20 -20 -20 -20 -20 -20 -20 -20 -20 -20 -20 -20 -20 -20 -20 -20 -20 -20 -20 -20 -20 -20 -20 -20 -20 -20 -20 -20 -20 -20 -20 -20 -20 -20 -20 -20 -20 -20
-20 -20 -20 -20 -20 -20 -20 -20 -20 -20 -20 -20 -20 -20 -20 -20 -20 -20 -20 -20 -20 -20 -20 -20 -20 -20 -20 -20 -20 -20 -20 -20 -20 -20 -20 -20 -20 -20 -20 -20 -20 -20 -20 -20 -20 -20 -20 -20 -20 -20 -20 -20 -20 -20
-20 -20 -20 -20 -20 -20 -20 -20 -20 -20 -20 -20 -20 -20 -20 -20 -20 -20 -20 -20 -20 -20 -20 -20 -20 -20 -20 -20 -20 -20 -20 -20 -20 -20 -20 -20 -20 -20 -20 -20 -20 -20 -20 -20 -20 -20 -20 -20 -20 -20 -20 -20 -20 -20
-20 -20 -20 -20 -20 -20 -20 -20 -20 -20 -20 -20 -20 -20 -20 -20 -20 -20 -20 -20 -20 -20 -20 -20 -19 -20 -20 -20 -20 -20 -20 -20 -20 -20 -20 -20 -20 -20 -20 -20 -20 -20 -20 -20 -20 -20 -20 -20 -20 -20 -20 -20 -20 -20
-20 -20 -20 -20 -20 -20 -20 -20 -20 -20 -20 -20 -20 -20 -20 -20 -20 -20 -20 -20 -20 -20 -20 -20 -20 -20 -20 -20 -20 -19 -19 -20 -20 -20 -20 -20 -20 -20 -20 -20 -20 -20 -20 -20 -20 -20 -15 -20 -20 -20 -20 -20 -20 -20
-20 -20 -20 -20 -20 -12 -15 -11 -20 -20 -20 -20 -20 -20 -20 -20 -20 -20 -20 -20 -20 -20 -20 -20 -20 -20 -20 -20 -20 -20 -20 -20 -20 -20 -20 -20 -20 -20 -20 -20 -20 -20 -20 -20 -20 -20 -20 -20 -20 -20 -20 -20 -20 -20
-20 -16 -20 -20 -20 -20 -20 -20 -20 -20 -20 -20 -20 -20 -20 -20 -20 -20 -20 -20 -20 -20 -20 -20 -20 -20 -20 -8 -9 -15 -20 -20 -20 -20 -20 -20 -20 -20 -20 -20 -20 -20 -20 -20 -20 -20 -20 -20 -20 -20 -20 -20 -20 -20
-20 -20 -20 -20 -20 -20 -20 -20 -20 -20 -20 -20 -20 -20 -20 -20 -20 -20 -20 -20 -20 -20 -20 -20 -20 -20 -20 -20 -20 -20 -20 -20 -20 -20 -20 -20 -20 -20 -20 -20 -20 -20 -20 -20 -20 -20 -20 -20 -20 -20 -20 -20 -20 -20

GFSWCAN_prec_radar_123.txt.gz
Reflectivity
10 34 29 -9 23 38 37 34 -2 25 20 15 20 26 36 39 35 28 17 -13 -16 -20 2 -11 -16 7 22 17 3 -4 4 -10 -20 -20 -20 -20 -20 -20 -3 -14 7 3 12 5 8 7 16 -11 3 5 0 -13 -20 -9
39 22 13 25 35 36 32 35 20 22 26 27 27 27 29 28 30 11 -11 -18 -20 -20 15 12 24 11 20 16 12 7 2 -4 -19 -20 -20 -20 -20 -15 -20 6 -20 7 -8 14 -18 3 -16 -2 11 6 21 14 4 -20
29 15 20 27 36 34 34 35 28 20 15 17 17 11 13 3 -18 -20 -15 7 14 32 31 28 25 12 2 4 -5 -20 -20 -20 -20 -20 -20 -20 -20 -20 -7 11 8 -9 -20 -18 -14 -15 -10 3 23 17 27 22 14 -0
20 17 25 27 35 35 32 34 34 32 30 32 29 28 26 21 14 25 27 23 15 16 13 8 4 -4 -17 -20 -20 -20 -20 -20 -20 -20 -20 -20 -15 -16 10 -2 13 -8 -9 -12 5 5 6 8 21 27 25 20 8 -18
12 31 35 29 30 36 35 31 32 29 31 27 16 11 9 14 16 8 7 7 9 12 5 8 -18 -18 -20 -20 -20 -20 -20 -20 -20 -20 -20 -20 -14 -12 -20 -11 -9 -16 -13 7 18 -20 3 2 19 25 21 10 2 -8
19 31 30 31 33 36 28 32 26 10 10 10 5 4 -6 3 3 -3 -6 4 -4 -20 -19 2 9 1 -20 -20 -20 -20 -20 -20 -20 -20 -20 -20 -20 5 9 -1 -19 -20 -20 -20 -19 2 -8 9 16 21 11 7 -20 -20
17 25 31 31 32 30 22 15 10 6 1 -6 1 2 8 -0 2 -13 -20 -18 -20 -20 -20 -13 10 10 -18 -20 -20 -20 -20 -20 -20 -20 -20 -20 -20 -8 -6 3 -20 -20 -13 -11 -0 -20 0 0 4 -8 -10 -10 -20 -20
21 25 33 24 -17 -16 -17 -20 -20 -20 -12 10 11 7 -11 -20 -19 -13 9 0 -15 -20 -20 0 1 5 -17 -20 -20 -20 -20 -20 -20 -20 -20 -20 -20 3 -10 -20 -13 -14 -20 -3 -4 -10 -9 -20 -14 -9 -20 -20 -20 -20
21 18 15 -7 -20 -20 -20 -20 -4 4 -16 -15 -19 -20 -20 -20 -19 -11 -14 -13 -20 -20 -17 -8 -6 9 -17 6 -13 -19 -19 1 -20 -3 -6 -20 2 -1 -3 -1 1 -4 -13 -2 -15 -20 -19 -9 -17 -20 -20 -20 -20 -20
17 14 2 0 -7 -2 -11 -20 -20 -20 -20 -20 -20 -20 -19 -20 -20 -20 -20 -20 -20 -20 -20 -2 -20 2 -14 1 5 -1 -3 -1 3 7 -20 -7 7 -20 -20 -0 -20 -20 -20 -20 -20 -20 -20 -20 -20 -20 -20 -20 -20 -20
15 -4 6 -20 -20 -20 -20 -20 -20 -20 -20 -20 -18 -11 -20 -20 -20 -20 -5 -20 -20 -9 -3 -12 -16 -5 1 3 0 -4 6 1 7 4 8 7 6 -20 -3 -20 -20 -20 -20 -20 -20 -20 -20 -20 -20 -20 -20 -20 -20 -20
7 -16 -20 -20 -20 -20 -20 -20 -20 -20 -20 -20 -20 -20 -20 -20 -20 -20 -20 -20 -20 -1 3 3 5 3 9 3 2 -4 -8 -1 13 5 9 6 12 -20 -20 -20 -20 -20 -20 -20 -20 -20 -20 -20 -20 -20 -20 -20 -20 -20
-20 -20 -20 -20 -20 -20 -20 -20 -20 -20 -20 -20 -20 -20 -20 -20 -13 -20 -20 -20 1 2 10 2 9 -1 -20 1 5 -3 2 10 -5 5 3 19 -20 -20 -20 -20 -20 -20 -20 -20 -20 -20 -20 -20 -20 -20 -20 -20 -20 -20
-20 -20 -20 -20 -20 -20 -20 -20 -20 -20 -20 -20 3 -20 -20 -19 -18 -15 -20 -13 -2 1 10 3 1 1 -7 -1 5 -10 6 -0 4 3 5 -11 -20 -20 -20 -20 -20 -20 -20 -20 -20 -20 -20 -20 -20 -20 -20 -20 -20 -20
-20 -20 -20 -20 -20 -20 -20 -20 -20 -20 -20 -20 -20 -11 5 9 9 5 -3 0 10 7 -3 -20 -20 -20 -9 -10 -1 -7 -1 1 -6 8 -2 -20 -20 -20 -20 -20 -20 -20 -20 -20 -20 -20 -20 -20 -20 -20 -20 -20 -20 -20
-20 -20 -20 -20 -20 -20 -20 -20 -20 -20 -20 -20 -9 10 13 13 12 10 -12 -15 9 -9 -20 -20 -20 -20 -20 -14 -20 -12 -16 -12 8 -10 -20 -20 -20 -20 -20 -20 -20 -20 -20 -20 -20 -20 -20 -20 -20 -20 -20 -20 -20 -20
-20 -0 -20 -20 -20 -20 -20 -20 -20 -20 -20 -7 6 6 12 4 9 10 14 3 -0 4 5 -20 -20 -19 -20 -11 -20 -20 6 -8 -20 -20 -20 -20 -20 -20 -20 -20 -20 -20 -20 -20 -20 -20 -20 -20 -20 -20 -20 -20 -20 -20
-20 -20 -20 -20 -20 -20 -20 -20 -20 -20 7 3 7 2 2 7 9 -5 -20 -5 7 -20 -20 -20 -20 -20 -19 -20 -0 4 -2 -20 -20 -5 -4 -20 -20 -20 -20 -20 -20 -20 -20 -20 -20 -20 -20 -20 -20 -20 -20 -20 -20 -20
-20 -20 -20 -20 -20 -20 -20 -20 -20 -2 6 6 10 -0 -3 -1 -12 -12 -14 -20 -20 -20 -14 -20 -20 -3 6 6 -1 -20 -20 -20 -15 -20 -20 -20 -20 -20 -20 -20 -20 -20 -20 -20 -20 -20 -20 -20 -20 -20 -20 -20 -20 -6
-20 -20 -20 -20 -20 -20 -20 -20 -20 -20 7 -0 -15 -7 -0 1 -16 -20 -8 -20 -20 -9 -20 -3 10 1 -9 -8 -8 -20 -20 -20 -20 -18 -10 -10 -9 -20 -20 -20 -20 -20 -20 -20 -20 -20 -20 -20 -20 -20 -20 -20 -0 1
-20 -20 -20 -20 -20 -20 -20 -20 -12 -20 -20 3 -11 -20 -4 -20 -4 -19 -5 -20 -20 6 7 9 -20 -20 -20 -20 -20 -20 -20 -20 -20 -20 -20 -7 -20 -20 -20 -20 -20 -20 -20 -20 -20 -20 -20 -20 -20 -16 -20 9 7 -20
-20 -20 -20 -20 -20 -20 -19 -2 -8 -20 -3 -20 -18 -20 3 0 -5 -14 -20 3 13 -12 -20 -12 -20 -20 -20 -20 -20 -20 -20 -20 -20 -20 -20 -20 -20 -20 -20 -20 -20 -20 -18 -4 -5 -5 -4 -2 -17 5 9 -4 -1 -1
-20 -20 -20 -20 -20 -20 -19 -20 -3 -6 -11 -20 -20 -20 -4 -2 -10 -20 -12 -1 -20 -20 -20 -20 -20 -20 -20 -20 -20 -20 -20 -20 -20 -20 -20 -20 -20 -20 -12 -20 -13 -15 -5 -9 -7 4 9 -11 -2 5 -0 -1 2 2
-20 -20 -20 -20 -20 -8 -4 1 1 -0 -2 -9 -7 -6 -20 -19 -20 -6 -8 -16 -20 -20 -20 -20 -20 -20 -20 -20 -20 -20 -20 -20 -20 -20 -20 -20 -20 -20 -20 -18 -17 -20 -18 -20 -5 -1 -14 3 -1 -1 1 1 -4 -20
-20 -20 -20 -20 -20 -2 -4 2 6 1 6 4 -4 -16 -20 -7 -11 -5 -17 -8 -20 -20 -20 -20 -20 -20 -20 -20 -20 -20 -20 -20 -20 -20 -20 -20 -20 -20 -20 -20 -20 -20 -19 -14 5 -11 -4 2 4 0 -2 -20 -20 -20
-20 -20 -20 -20 -17 9 2 -15 -14 8 6 7 1 -13 -5 -20 -7 -1 -20 -20 -20 -6 -0 -2 -17 -0 -20 -20 -20 -20 -20 -20 -20 -20 -20 -20 -16 -2 -11 -4 -3 -1 -17 7 0 -1 1 -0 -2 -20 -20 -20 -20 -20
-20 -20 -20 -20 -20 -20 1 -9 -20 -1 -0 10 7 -19 1 -20 -20 -20 -11 -6 -20 1 -20 -20 -20 -20 -20 -20 -20 -20 -20 -20 -20 -20 -20 -20 -20 -20 -10 2 5 -14 -6 -3 0 -1 -1 -20 -20 -20 -20 -20 -20 -20
-20 -20 -20 -4 -20 -20 -18 -13 -0 1 7 -20 -12 0 -2 -7 -2 -5 -18 -7 -2 -20 -20 -20 -20 -20 -20 -20 -20 -20 -20 -20 -20 -20 -20 -20 -20 -20 -20 -20 -20 -20 -12 -0 -17 -20 -20 -20 -20 -20 -20 -20 -20 -20
-20 -19 -20 -20 -20 -20 -20 -18 -10 -15 -20 -15 5 11 -6 -20 -15 -17 -18 -20 -20 -5 -20 -11 -5 -11 -7 -17 -14 -9 -13 -10 -20 -20 -18 -3 -20 -5 -18 -20 -20 -20 -20 -20 -20 -20 -20 -20 -20 -20 -20 -20 -20 -20
-11 -9 -2 -20 -20 -20 -7 -11 -20 -20 -20 -20 -20 -20 -20 -10 -5 -20 -20 -7 -11 -10 -6 -12 -5 -5 -3 -6 -2 -7 1 -5 -7 13 6 2 -19 -4 -3 -20 -20 -20 -20 -20 -20 -20 -20 -20 -20 -20 -20 -20 -20 -20
-14 -20 -5 0 3 -18 -14 -12 -6 -20 -20 -20 -20 -14 -3 -19 -15 -9 -10 -4 -4 -6 -3 -3 -4 -6 -3 -4 -4 -10 -12 -19 -20 -20 -20 -20 -20 -5 -8 -20 -20 -20 -20 -20 -20 -20 -20 -20 -20 -20 -20 -20 -20 -20
-14 -15 -9 1 -6 -20 -5 -5 -20 -10 -7 -5 -4 -4 -4 -3 -2 -18 -2 -3 -3 -7 -19 5 -1 -1 4 -13 -18 -19 -19 -20 -20 -20 -20 -20 -4 -20 -20 -20 -20 -20 -20 -20 -20 -20 -20 -20 -20 -20 -20 -20 -20 -20
-3 -4 -6 -19 -3 -7 -2 -3 -3 -2 -2 -2 -1 -7 -3 -2 -6 -4 -2 -3 -4 0 2 -12 -7 -5 -13 -19 -20 -20 -20 -20 -20 -20 -20 -20 -20 -20 -20 -20 -20 -20 -20 -20 -20 -20 -20 -20 -20 -20 -20 -20 -20 -20

GFSWCAN_prec_radar_129.txt.gz
Reflectivity
11 -0 1 -8 12 3 -9 11 7 11 -11 -20 -10 -9 -7 -20 -12 8 -20 -9 5 9 6 -20 -20 -20 23 -20 -11 -20 -11 11 3 -20 -20 -15 -19 -16 -19 5 -8 -17 -12 7 -2 -11 -9 -20 -20 -20 -20 -20 -20 -20
8 16 11 7 4 -10 -20 -12 -18 -20 -20 -20 -20 -6 18 14 12 21 6 -10 21 22 8 -20 -20 -20 -14 29 12 -20 -20 -20 -19 -20 -20 -4 -1 -5 10 14 26 21 -20 -19 -20 -20 -20 -20 -15 -20 -20 -20 -20 -20
8 15 12 -3 -20 -20 -20 -18 -18 -19 -20 -20 -20 -2 6 7 4 21 4 4 25 18 10 -1 -20 -20 -20 15 20 -20 -17 -20 -20 -17 6 17 5 -20 -10 -20 -20 -20 -20 -20 -20 -18 -20 -6 -7 -19 -20 -17 -20 -20
6 7 -2 -5 -4 1 7 8 28 30 22 17 14 -4 -20 8 8 8 8 6 6 17 18 26 -15 28 -16 9 -10 -20 -17 -4 7 12 21 10 13 -13 -12 -20 -20 -19 -20 -20 -20 -12 -4 6 -10 -6 1 5 1 3
4 -13 5 4 -1 13 34 35 37 29 21 9 -19 -20 -1 -17 6 8 15 6 -15 16 24 31 25 -0 -20 -20 -20 -20 -20 10 -3 6 7 9 -20 -20 -20 -20 -20 -20 -20 -20 -20 -20 -20 -20 -19 -20 -18 -15 -19 6
0 -20 20 22 32 29 38 38 34 35 33 39 17 -20 3 21 24 30 32 18 -6 -15 13 9 25 -12 -20 -20 -20 9 15 -12 1 -20 -20 -20 -20 -20 -20 -20 -20 -20 -20 -20 -20 -20 -20 -20 6 -20 -20 -20 -9 -7
13 20 24 29 33 33 37 35 26 34 38 31 27 23 34 36 38 38 36 36 37 30 25 7 3 -1 -12 -7 9 13 5 -20 -20 -20 -20 -18 -20 -20 -20 -20 -20 -20 -20 -20 -20 -20 -20 -18 -20 -20 -20 -20 -20 -20
22 28 26 31 34 37 38 26 25 33 37 38 35 32 36 35 30 24 -14 14 29 31 10 -14 18 19 -6 3 5 -2 -0 -14 -20 -20 -20 -20 -20 -20 -20 -20 -20 -20 -20 -20 -20 -20 -20 -20 -20 -20 -20 -20 -20 -20
32 32 30 33 36 36 34 29 -11 -17 5 20 31 36 30 20 29 26 25 23 20 0 0 -9 2 12 6 -2 -13 -1 -20 -10 -20 -20 -20 -20 -20 -20 -20 -20 -20 -20 -20 -20 -20 -20 -20 -20 -20 -20 -20 -20 -20 -20
22 21 28 29 33 35 35 29 23 6 -20 -20 -17 -4 28 9 -12 3 11 12 16 18 7 -6 -11 -14 0 -17 -14 -19 -20 -16 -20 -20 -20 -20 -20 -20 -20 -20 -20 -20 -20 -20 -20 -20 -20 -20 -20 -20 -20 -20 -20 -20
-4 -12 9 19 25 23 27 27 20 13 -11 -20 -20 17 26 23 11 -4 -8 -5 -13 16 -10 -14 -8 -6 1 1 3 -19 -20 -20 -11 -20 -20 -20 -20 -20 -20 -20 -20 -20 -20 -14 -20 -20 -20 -20 -20 -20 -20 -20 -20 -20
-6 -2 4 5 9 12 8 4 -7 -16 -20 -20 -20 -7 -14 -19 -20 -20 -20 -20 -20 -20 -20 -20 -11 -14 -4 -17 -20 -20 -20 -20 9 -20 -20 -16 -20 -20 -20 -20 -20 -20 -20 -20 -20 -20 -20 -20 -20 -20 -20 -20 -20 -20
-9 5 -7 10 7 -4 -16 -12 2 9 12 3 -6 -20 -20 -20 -20 -20 -20 -20 -20 -20 -7 -18 3 -20 -20 -20 -20 -20 -20 -20 -20 -20 -20 -20 -20 -20 -20 -20 -20 -20 -20 -20 -20 -20 -20 -20 -20 -20 -20 -20 -20 -20
10 -15 -20 -20 -20 -20 -20 -20 -20 -20 -20 -20 -20 -20 -19 -20 -3 -3 -20 -20 -20 -20 -20 -20 -20 -20 -20 -20 -20 -20 -20 -20 -20 -20 -16 -20 -20 -20 -20 -20 -20 -20 -20 -20 -20 -20 -20 -20 -20 -20 -20 -20 -20 -20
-8 -20 -20 -20 -20 -20 -20 -20 -20 -20 -20 -20 -20 -13 -6 -8 -20 -20 -20 -20 -3 -20 -20 -20 -20 -20 -20 -20 -20 -20 -16 -20 -20 -20 -20 -20 -20 -20 -20 -20 -20 -20 -20 -20 -20 -20 -20 -20 -20 -20 -20 -20 -20 -20
-11 -20 -20 -20 -20 -20 -20 -20 -20 -20 -20 -20 -20 -2 -20 -15 4 3 1 10 -20 -20 -20 -20 -20 -20 -20 -20 -20 -20 -20 -20 -20 -20 -20 -20 -20 -20 -20 -20 -20 -20 -20 -20 -20 -20 -20 -20 -20 -20 -20 -20 -20 -20
-20 -20 -20 -20 -20 -20 -20 -20 -20 -20 -20 -20 3 -19 -20 -2 8 17 -20 -20 -20 -20 -20 -20 -20 -20 -20 -20 -20 -20 -20 -20 1 -20 -20 -20 -20 -20 -20 -20 -20 -20 -20 -20 -20 -20 -20 -20 -20 -20 -20 -20 -20 -20
-20 -20 -20 -20 -20 -20 -20 -20 -20 -20 -19 -17 -15 -18 -16 18 13 -18 -20 -20 -20 -20 -20 -20 -20 -20 -20 -20 -20 -20 -20 -20 1 -19 -10 -19 -20 -20 -20 -20 -20 -20 -20 -20 -20 -20 -20 -20 -20 -20 -20 -20 -20 -20
-20 -20 -20 -20 -20 -20 -20 -20 -20 -20 -5 2 12 22 23 15 -17 -6 -20 -20 -20 -20 -20 -20 -20 -20 -20 -20 -20 -20 -17 -20 -20 -19 -19 -4 -20 -20 -20 -20 -20 -20 -20 -20 -20 -20 -20 -20 -20 -20 -20 -20 -20 -20
-20 -20 -20 -20 -20 -20 -20 -20 -20 -20 -16 16 8 -16 18 -20 -20 -20 -20 -20 -20 -20 -20 -20 -20 -20 -20 -20 -20 -20 -20 -20 -20 -20 -20 -20 -16 -13 -13 -20 -20 -20 -20 -20 -20 -20 -20 -20 -20 -20 -20 -20 -20 -20
-20 -20 -20 -20 -20 -20 -20 -20 -20 -20 -20 3 -14 -20 14 -19 -20 -20 -20 -20 -20 -20 -19 -20 -20 -20 -20 -20 -20 -20 -20 -20 -20 -20 -20 -20 -12 -20 -20 -20 -20 -20 -20 -20 -20 -20 -20 -20 -20 -20 -20 -20 -20 -20
-20 -20 -20 -20 -20 -20 -20 -20 -20 -20 -20 -19 -20 -20 -20 -20 -20 -20 -20 -20 -19 -16 -9 -20 -20 -20 -20 -20 -20 -20 -20 -20 -20 -15 -14 3 -20 -20 -7 -20 -20 -20 -20 -20 -20 -20 -20 -20 -20 -20 -20 -20 -20 -20
-20 -20 -20 -20 -20 -20 -20 -20 -20 -20 -20 -20 -20 -20 -20 -20 -20 -20 -20 -20 -5 19 -20 -20 -20 -20 -20 -20 -20 -20 -20 -20 -20 -20 -20 -20 -20 -20 -20 -20 -20 -20 -20 -20 -20 -20 -20 -20 -20 -20 -20 -20 -20 -20
-20 -20 -20 -20 -20 -20 -20 -20 -20 -20 -20 -20 -20 -20 -20 -20 -20 -20 -15 -20 -17 -19 -20 -20 -20 -20 -20 -20 -20 -20 -20 -20 -20 -20 -20 -20 -20 -20 -20 -20 -20 -20 -20 -20 -20 -20 -20 -20 -20 -20 -20 -20 -20 -20
-20 -20 -20 -20 -20 -20 -20 -20 -20 -20 -20 -20 -20 -20 -20 -20 -20 -20 -5 -18 -20 -17 -12 -20 -20 -20 -20 -20 -20 -20 -20 -20 -20 -20 -20 -20 -20 -20 -20 -20 -20 -20 -20 -20 -20 -20 -20 -20 -20 -20 -20 -20 -20 -20
-20 -20 -20 -20 -20 -20 -20 -20 -20 -20 -20 -20 -20 -20 -20 -20 -20 -13 -12 -16 -20 4 -10 -20 -20 -20 -20 -20 -20 -20 -20 -20 -20 -20 -20 -20 -20 -20 -20 -20 -20 -4 -20 -20 -20 -20 -20 -20 -20 -20 -20 -20 -20 -20
-20 -20 -20 -20 -18 -20 -20 -20 -20 -20 -20 -20 -20 -20 -20 -20 -20 -20 -20 -20 -20 -7 -20 -20 -20 -20 -20 -20 -20 -20 -20 -20 -20 -20 -20 -20 -20 -20 -20 -20 -20 -20 -20 -20 -20 -20 -20 -20 -20 -20 -20 -20 -20 -20
-20 -20 -20 -20 -20 -20 -20 -20 -20 -3 -20 -20 -20 -17 -20 -20 -20 -20 -20 -20 -20 -20 -20 -20 -20 -20 -20 -20 -20 -20 -20 -20 -20 -20 -20 -20 -20 -20 -20 -20 -20 -20 -20 -20 -20 -20 -20 -20 -20 -20 -20 -20 -20 -20
-20 -13 -20 -20 -20 -20 -20 -20 -20 -20 -20 -20 -8 -20 -20 -20 -20 -20 -20 3 -20 -20 -20 -20 -20 -20 -20 -20 -20 -20 -20 -20 -20 -20 -20 -20 -20 -20 -19 -20 -20 -20 -20 -20 -20 -20 -20 -20 -20 -20 -20 -20 -20 -20
-20 -20 -20 -20 -20 -20 -20 -20 -9 -14 -20 -20 -20 -20 -20 -4 -20 -20 -8 -2 -15 -20 -20 -20 -18 -5 -13 -20 -20 -10 -7 -20 -20 -20 -20 -20 -20 -20 -20 -20 -20 -20 -20 -20 -20 -20 -20 -20 -20 -20 -20 -20 -20 -20
-20 -20 -20 -20 -20 -15 -20 -19 -11 -14 -20 -20 -20 -20 -20 -20 -19 -20 -20 -20 -20 -20 -20 -20 -10 -19 -20 -20 -6 -20 -20 -18 -20 -20 -20 -20 -20 -20 -20 -20 -20 -20 -20 -20 -20 -20 -20 -20 -20 -20 -20 -20 -20 -20
-20 -20 1 4 -3 -19 -19 -20 -20 -20 -20 -20 -20 -20 -20 -8 -20 -20 -20 -20 -20 -20 -20 -14 -20 -20 -16 -20 -20 -20 -20 -20 -19 -20 -20 -20 -20 -20 -20 -20 -20 -20 -20 -20 -20 -20 -20 -20 -20 -20 -20 -20 -20 -20
-9 -7 -20 -4 2 -17 -20 -20 -1 -4 -20 -20 -17 -19 -18 -20 -20 -20 -20 -20 -20 -18 -18 -18 -18 -20 -20 -20 -20 -20 -20 -20 -20 -20 -20 -20 -20 -20 -20 -20 -20 -20 -20 -20 -20 -20 -20 -20 -20 -20 -20 -20 -20 -20